[[{"header":{"parameterUnit":"m.s-1","parameterCategory":1,"la1":30.6,"la2":28.766,"lo1":-90.7593,"lo2":-88.6598,"dy":0.0162,"dx":0.0183,"nx":116,"ny":114,"refTime":"2023-05-16T12:00:00:Z","depth":0,"parameterNumber":2,"parameterNumberName":"U-component_of_WINDS"},"data":[0.0,0.0,0.0,0.0,0.0,0.0,0.0,0.0,0.0,0.0,0.0,0.0,0.0,0.0,0.0,0.0,0.0,0.0,0.0,0.0,0.0,0.0,0.0,0.0,0.0,0.0,0.0,0.0,0.0,0.0,0.0,0.0,0.0,0.0,0.0,0.0,0.0,0.0,0.0,0.0,0.0,0.0,0.0,0.0,0.0,0.0,0.0,0.0,0.0,0.0,0.0,0.0,0.0,0.0,0.0,0.0,0.0,0.0,0.0,0.0,0.0,0.0,0.0,0.0,0.0,0.0,0.0,0.0,0.0,0.0,0.0,0.0,0.0,0.0,0.0,0.0,0.0,0.0,0.0,0.0,0.0,0.0,0.0,0.0,0.0,0.0,0.0,0.0,0.0,0.0,0.0,0.0,0.0,0.0,0.0,0.0,0.0,0.0,0.0,0.0,0.0,0.0,0.0,0.0,0.0,0.0,0.0,0.0,0.0,0.0,0.0,0.0,0.0,0.0,0.0,0.0,0.0,0.0,0.0,0.0,0.0,0.0,0.0,0.0,0.0,0.0,0.0,0.0,0.0,0.0,0.0,0.0,0.0,0.0,0.0,0.0,0.0,0.0,0.0,0.0,0.0,0.0,0.0,0.0,0.0,0.0,0.0,0.0,0.0,0.0,0.0,0.0,0.0,0.0,0.0,0.0,0.0,0.0,0.0,0.0,0.0,0.0,0.0,0.0,0.0,0.0,0.0,0.0,0.0,0.0,0.0,0.0,0.0,0.0,0.0,0.0,0.0,0.0,0.0,0.0,0.0,0.0,0.0,0.0,0.0,0.0,0.0,0.0,0.0,0.0,0.0,0.0,0.0,0.0,0.0,0.0,0.0,0.0,0.0,0.0,0.0,0.0,0.0,0.0,0.0,0.0,0.0,0.0,0.0,0.0,0.0,0.0,0.0,0.0,0.0,0.0,0.0,0.0,0.0,0.0,0.0,0.0,0.0,0.0,0.0,0.0,0.0,0.0,0.0,0.0,0.0,0.0,0.0,0.0,0.0,0.0,0.0,0.0,0.0,0.0,0.0,0.0,0.0,0.0,0.0,0.0,0.0,0.0,0.0,0.0,0.0,0.0,0.0,0.0,0.0,0.0,0.0,0.0,0.0,0.0,0.0,0.0,0.0,0.0,0.0,0.0,0.0,0.0,0.0,0.0,0.0,0.0,0.0,0.0,0.0,0.0,0.0,0.0,0.0,0.0,0.0,0.0,0.0,0.0,0.0,0.0,0.0,0.0,0.0,0.0,0.0,0.0,0.0,0.0,0.0,0.0,0.0,0.0,0.0,0.0,0.0,0.0,0.0,0.0,0.0,0.0,0.0,0.0,0.0,0.0,0.0,0.0,0.0,0.0,0.0,0.0,0.0,0.0,0.0,0.0,0.0,0.0,0.0,0.0,0.0,0.0,0.0,0.0,0.0,0.0,0.0,0.0,0.0,0.0,0.0,0.0,0.0,0.0,0.0,0.0,0.0,0.0,0.0,0.0,0.0,0.0,0.0,0.0,0.0,0.0,0.0,0.0,0.0,0.0,0.0,0.0,0.0,0.0,0.0,0.0,0.0,0.0,0.0,0.0,0.0,0.0,0.0,0.0,0.0,0.0,0.0,0.0,0.0,0.0,0.0,0.0,0.0,0.0,0.0,0.0,0.0,0.0,0.0,0.0,0.0,0.0,0.0,0.0,0.0,0.0,0.0,0.0,0.0,0.0,0.0,0.0,0.0,0.0,0.0,0.0,0.0,0.0,0.0,0.0,0.0,0.0,0.0,0.0,0.0,0.0,0.0,0.0,0.0,0.0,0.0,0.0,0.0,0.0,0.0,0.0,0.0,0.0,0.0,0.0,0.0,0.0,0.0,0.0,0.0,0.0,0.0,0.0,0.0,0.0,0.0,0.0,0.0,0.0,0.0,0.0,0.0,0.0,0.0,0.0,0.0,0.0,0.0,0.0,0.0,0.0,0.0,0.0,0.0,0.0,0.0,0.0,0.0,0.0,0.0,0.0,0.0,0.0,0.0,0.0,0.0,0.0,0.0,0.0,0.0,0.0,0.0,0.0,0.0,0.0,0.0,0.0,0.0,0.0,0.0,0.0,0.0,0.0,0.0,0.0,0.0,0.0,0.0,0.0,0.0,0.0,0.0,0.0,0.0,0.0,0.0,0.0,0.0,0.0,0.0,0.0,0.0,0.0,0.0,0.0,0.0,0.0,0.0,0.0,0.0,0.0,0.0,0.0,0.0,0.0,0.0,0.0,0.0,0.0,0.0,0.0,0.0,0.0,0.0,0.0,0.0,0.0,0.0,0.0,0.0,0.0,0.0,0.0,0.0,0.0,0.0,0.0,0.0,0.0,0.0,0.0,0.0,0.0,0.0,0.0,0.0,0.0,0.0,0.0,0.0,0.0,0.0,0.0,0.0,0.0,0.0,0.0,0.0,0.0,0.0,0.0,0.0,0.0,0.0,0.0,0.0,0.0,0.0,0.0,0.0,0.0,0.0,0.0,0.0,0.0,0.0,0.0,0.0,0.0,0.0,0.0,0.0,0.0,0.0,0.0,0.0,0.0,0.0,0.0,0.0,0.0,0.0,0.0,0.0,0.0,0.0,0.0,0.0,0.0,0.0,0.0,0.0,0.0,0.0,0.0,0.0,0.0,0.0,0.0,0.0,0.0,0.0,0.0,0.0,0.0,0.0,0.0,0.0,0.0,0.0,0.0,0.0,0.0,0.0,0.0,0.0,0.0,0.0,0.0,0.0,0.0,0.0,0.0,0.0,0.0,0.0,0.0,0.0,0.0,0.0,0.0,0.0,0.0,0.0,0.0,0.0,0.0,0.0,0.0,0.0,0.0,0.0,0.0,0.0,0.0,0.0,0.0,0.0,0.0,0.0,0.0,0.0,0.0,0.0,0.0,0.0,0.0,0.0,0.0,0.0,0.0,0.0,0.0,0.0,0.0,0.0,0.0,0.0,0.0,0.0,0.0,0.0,0.0,0.0,0.0,0.0,0.0,0.0,0.0,0.0,0.0,0.0,0.0,0.0,0.0,0.0,0.0,0.0,0.0,0.0,0.0,0.0,0.0,0.0,0.0,0.0,0.0,0.0,0.0,0.0,0.0,0.0,0.0,0.0,0.0,0.0,0.0,0.0,0.0,0.0,0.0,0.0,0.0,0.0,0.0,0.0,0.0,0.0,0.0,0.0,0.0,0.0,0.0,0.0,0.0,0.0,0.0,0.0,0.0,0.0,0.0,0.0,0.0,0.0,0.0,0.0,0.0,0.0,0.0,0.0,0.0,0.0,0.0,0.0,0.0,0.0,0.0,0.0,0.0,0.0,0.0,0.0,0.0,0.0,0.0,0.0,0.0,0.0,0.0,0.0,0.0,0.0,0.0,0.0,0.0,0.0,0.0,0.0,0.0,0.0,0.0,0.0,0.0,0.0,0.0,0.0,0.0,0.0,0.0,0.0,0.0,0.0,0.0,0.0,0.0,0.0,0.0,0.0,0.0,0.0,0.0,0.0,0.0,0.0,0.0,0.0,0.0,0.0,0.0,0.0,0.0,0.0,0.0,0.0,0.0,0.0,0.0,0.0,0.0,0.0,0.0,0.0,0.0,0.0,0.0,0.0,0.0,0.0,0.0,0.0,0.0,0.0,0.0,0.0,0.0,0.0,0.0,0.0,0.0,0.0,0.0,0.0,0.0,0.0,0.0,0.0,0.0,0.0,0.0,0.0,0.0,0.0,0.0,0.0,0.0,0.0,0.0,0.0,0.0,0.0,0.0,0.0,0.0,0.0,0.0,0.0,0.0,0.0,0.0,0.0,0.0,0.0,0.0,0.0,0.0,0.0,0.0,0.0,0.0,0.0,0.0,0.0,0.0,0.0,0.0,0.0,0.0,0.0,0.0,0.0,0.0,0.0,0.0,0.0,0.0,0.0,0.0,0.0,0.0,0.0,0.0,0.0,0.0,0.0,0.0,0.0,0.0,0.0,0.0,0.0,0.0,0.0,0.0,0.0,0.0,0.0,0.0,0.0,0.0,0.0,0.0,0.0,0.0,0.0,0.0,0.0,0.0,0.0,0.0,0.0,0.0,0.0,0.0,0.0,0.0,0.0,0.0,0.0,0.0,0.0,0.0,0.0,0.0,0.0,0.0,0.0,0.0,0.0,0.0,0.0,0.0,0.0,0.0,0.0,0.0,0.0,0.0,0.0,0.0,0.0,0.0,0.0,0.0,0.0,0.0,0.0,0.0,0.0,0.0,0.0,0.0,0.0,0.0,0.0,0.0,0.0,0.0,0.0,0.0,0.0,0.0,0.0,0.0,0.0,0.0,0.0,0.0,0.0,0.0,0.0,0.0,0.0,0.0,0.0,0.0,0.0,0.0,0.0,0.0,0.0,0.0,0.0,0.0,0.0,0.0,0.0,0.0,0.0,0.0,0.0,0.0,0.0,0.0,0.0,0.0,0.0,0.0,0.0,0.0,0.0,0.0,0.0,0.0,0.0,0.0,0.0,0.0,0.0,0.0,0.0,0.0,0.0,0.0,0.0,0.0,0.0,0.0,0.0,0.0,0.0,0.0,0.0,0.0,0.0,0.0,0.0,0.0,0.0,0.0,0.0,0.0,0.0,0.0,0.0,0.0,0.0,0.0,0.0,0.0,0.0,0.0,0.0,0.0,0.0,0.0,0.0,0.0,0.0,0.0,0.0,0.0,0.0,0.0,0.0,0.0,0.0,0.0,0.0,0.0,0.0,0.0,0.0,0.0,0.0,0.0,0.0,0.0,0.0,0.0,0.0,0.0,0.0,0.0,0.0,0.0,0.0,0.0,0.0,0.0,0.0,0.0,0.0,0.0,0.0,0.0,0.0,0.0,0.0,0.0,0.0,0.0,0.0,0.0,0.0,0.0,0.0,0.0,0.0,0.0,0.0,0.0,0.0,0.0,0.0,0.0,0.0,0.0,0.0,0.0,0.0,0.0,0.0,0.0,0.0,0.0,0.0,0.0,0.0,0.0,0.0,0.0,0.0,0.0,0.0,0.0,0.0,0.0,0.0,0.0,0.0,0.0,0.0,0.0,0.0,0.0,0.0,0.0,0.0,0.0,0.0,0.0,0.0,0.0,0.0,0.0,0.0,0.0,0.0,0.0,0.0,0.0,0.0,0.0,0.0,0.0,0.0,0.0,0.0,0.0,0.0,0.0,0.0,0.0,0.0,0.0,0.0,0.0,0.0,0.0,0.0,0.0,0.0,0.0,0.0,0.0,0.0,0.0,0.0,0.0,0.0,0.0,0.0,0.0,0.0,0.0,0.0,0.0,0.0,0.0,0.0,0.0,0.0,0.0,0.0,0.0,0.0,0.0,0.0,0.0,0.0,0.0,0.0,0.0,0.0,0.0,0.0,0.0,0.0,0.0,0.0,0.0,0.0,0.0,0.0,0.0,0.0,0.0,0.0,0.0,0.0,0.0,0.0,0.0,0.0,0.0,0.0,0.0,0.0,0.0,0.0,0.0,0.0,0.0,0.0,0.0,0.0,0.0,0.0,0.0,0.0,0.0,0.0,0.0,0.0,0.0,0.0,0.0,0.0,0.0,0.0,0.0,0.0,0.0,0.0,0.0,0.0,0.0,0.0,0.0,0.0,0.0,0.0,0.0,0.0,0.0,0.0,0.0,0.0,0.0,0.0,0.0,0.0,0.0,0.0,0.0,0.0,0.0,0.0,0.0,0.0,0.0,0.0,0.0,0.0,0.0,0.0,0.0,0.0,0.0,0.0,0.0,0.0,0.0,0.0,0.0,0.0,0.0,0.0,0.0,0.0,0.0,0.0,0.0,0.0,0.0,0.0,0.0,0.0,0.0,0.0,0.0,0.0,0.0,0.0,0.0,0.0,0.0,0.0,0.0,0.0,0.0,0.0,0.0,0.0,0.0,0.0,0.0,0.0,0.0,0.0,0.0,0.0,0.0,0.0,0.0,0.0,0.0,0.0,0.0,0.0,0.0,0.0,0.0,0.0,0.0,0.0,0.0,0.0,0.0,0.0,0.0,0.0,0.0,0.0,0.0,0.0,0.0,0.0,0.0,0.0,0.0,-1.3691,0.0,0.0,0.0,0.0,0.0,0.0,0.0,0.0,0.0,0.0,0.0,0.0,0.0,0.0,0.0,0.0,0.0,0.0,0.0,0.0,0.0,0.0,0.0,0.0,0.0,0.0,0.0,0.0,0.0,0.0,0.0,0.0,0.0,0.0,0.0,0.0,0.0,0.0,0.0,0.0,0.0,0.0,0.0,0.0,0.0,0.0,0.0,0.0,0.0,0.0,0.0,0.0,0.0,0.0,0.0,0.0,0.0,0.0,0.0,0.0,0.0,0.0,0.0,0.0,0.0,0.0,0.0,0.0,0.0,0.0,0.0,0.0,0.0,0.0,0.0,0.0,0.0,0.0,0.0,0.0,0.0,0.0,0.0,0.0,0.0,0.0,0.0,0.0,0.0,0.0,0.0,0.0,0.0,0.0,0.0,0.0,0.0,0.0,0.0,0.0,0.0,0.0,0.0,0.0,0.0,0.0,0.0,0.0,0.0,0.0,0.0,0.0,0.0,0.0,0.0,0.0,-1.4331,0.0,0.0,0.0,0.0,0.0,0.0,0.0,0.0,0.0,0.0,0.0,0.0,0.0,0.0,0.0,0.0,0.0,0.0,0.0,0.0,0.0,0.0,0.0,0.0,0.0,0.0,0.0,0.0,0.0,0.0,0.0,0.0,0.0,0.0,0.0,0.0,0.0,0.0,0.0,0.0,0.0,0.0,0.0,0.0,0.0,0.0,0.0,0.0,0.0,0.0,0.0,0.0,0.0,0.0,0.0,0.0,0.0,0.0,0.0,0.0,0.0,0.0,0.0,0.0,0.0,0.0,0.0,0.0,0.0,0.0,0.0,0.0,0.0,0.0,0.0,0.0,0.0,0.0,0.0,0.0,0.0,0.0,0.0,0.0,0.0,0.0,0.0,0.0,0.0,0.0,0.0,0.0,0.0,0.0,0.0,0.0,0.0,0.0,0.0,0.0,0.0,0.0,0.0,0.0,0.0,0.0,0.0,0.0,-1.2841,-1.3793,-1.4002,-1.4849,-1.5001,-1.4492,-1.3876,-1.4183,-1.5081,-1.426,0.0,0.0,0.0,0.0,0.0,0.0,0.0,0.0,0.0,0.0,0.0,0.0,0.0,0.0,0.0,0.0,0.0,0.0,0.0,0.0,0.0,0.0,0.0,0.0,0.0,0.0,0.0,0.0,0.0,0.0,0.0,0.0,0.0,0.0,0.0,0.0,0.0,0.0,-0.0,-0.0544,-0.0856,-0.0884,-0.1264,0.0,0.0,0.0,0.0,0.0,0.0,0.0,0.0,0.0,0.0,0.0,0.0,0.0,0.0,0.0,0.0,0.0,0.0,0.0,0.0,0.0,0.0,0.0,0.0,0.0,0.0,0.0,0.0,0.0,0.0,0.0,0.0,0.0,0.0,0.0,0.0,0.0,0.0,0.0,0.0,0.0,0.0,0.0,-0.2928,-0.2951,0.0,0.0,0.0,0.0,0.0,0.0,0.0,0.0,0.0,0.0,0.0,0.0,0.0,-0.9219,-0.9533,-1.0735,-1.1696,-1.2554,-1.3749,-1.4278,-1.4168,-1.4628,-1.4765,-1.4647,-1.425,0.0,-1.42,-1.4203,0.0,0.0,0.0,0.0,0.0,0.0,0.0,0.0,0.0,0.0,0.0,0.0,0.0,0.0,0.0,0.0,0.0,0.0,0.0,0.0,0.0,0.0,0.0,0.0,0.0,0.0,0.0,0.0,0.0,0.0,0.0,0.0,0.0,0.0,0.0,0.0,0.102,-0.0456,-0.1394,-0.1962,-0.2318,-0.2452,-0.2372,-0.2331,-0.2353,-0.2728,0.0,0.0,0.0,0.0,0.0,0.0,0.0,0.0,0.0,0.0,0.0,0.0,0.0,0.0,0.0,0.0,0.0,0.0,0.0,0.0,0.0,0.0,0.0,0.0,0.0,0.0,0.0,0.0,0.0,0.0,0.0,0.0,0.0,0.0,0.0,0.0,0.0,0.0,0.0,-0.3411,-0.4117,-0.4015,-0.3105,-0.2561,0.0,0.0,0.0,0.0,0.0,0.0,0.0,0.0,0.0,-0.7178,-0.9309,-1.0376,-1.0302,-1.172,-1.2423,-1.2581,-1.365,-1.413,-1.407,-1.424,-1.424,-1.4181,-1.413,-1.395,-1.3743,-1.3942,-1.3969,-1.387,0.0,0.0,0.0,0.0,-1.4819,-1.5243,0.0,0.0,0.0,0.0,0.0,0.0,0.0,0.0,0.0,0.0,0.0,0.0,0.0,0.0,0.0,0.5855,0.0,0.0,0.0,0.0,0.0,0.0,0.0,0.0,0.0,0.0,0.0,0.0911,-0.0615,-0.1753,-0.2525,-0.3065,-0.3328,-0.3241,-0.3108,-0.2791,-0.2464,-0.2691,-0.2521,0.0,0.0,0.0,0.0,0.0,0.0,0.0,0.0,0.0,0.0,0.0,0.0,0.0,0.0,0.0,0.0,0.0,0.0,0.0,0.0,0.0,0.0,0.0,0.0,0.0,0.0,0.0,0.0,0.0,0.0,0.0,0.0,0.0,0.0,0.0,0.0,0.0,0.0,-0.4481,-0.4748,-0.4636,-0.3915,-0.3658,0.0,0.0,0.0,0.0,0.0,0.0,-0.5823,-0.6928,-0.7973,-0.9065,-1.036,-1.1066,-1.1003,-1.2057,-1.2552,-1.2404,-1.3076,-1.3459,-1.358,-1.358,-1.3588,-1.3459,-1.3528,-1.3459,-1.3268,-1.358,-1.3761,-1.3914,-1.3852,-1.3923,-1.4109,-1.4883,-1.523,-1.5335,0.0,0.0,0.0,0.0,0.0,0.0,0.0,0.0,0.0,0.0,0.0,0.0,0.0,0.0,0.6803,0.589,0.5325,0.4956,0.0,0.0,0.0,0.0,0.0,0.0,0.0,0.0,0.0,0.005,-0.1039,-0.21,-0.3065,-0.3566,-0.3458,-0.2961,-0.3352,-0.3239,-0.2681,-0.297,-0.1958,-0.0056,0.0,0.0,0.0,0.0,0.0,0.0,0.0,0.0,0.0,0.0,0.0,0.0,0.0,0.0,0.0,0.0,0.0,0.0,0.0,0.0,0.0,0.0,0.0,0.0,0.0,0.0,0.0,0.0,0.0,0.0,0.0,0.0,0.0,0.0,0.0,0.0,0.0,0.0,0.0,-0.4662,-0.4134,0.0,0.0,0.0,0.0,-0.5647,-0.5742,-0.6533,-0.8342,-0.9046,-0.9918,-1.1219,-1.1095,-1.1465,-1.2371,-1.1871,-1.1835,-1.232,-1.2351,-1.2367,-1.2367,-1.2544,-1.2544,-1.2544,-1.2421,-1.2428,-1.2605,-1.3268,-1.3649,-1.3907,-1.3623,-1.3717,-1.4058,-1.4414,-1.4805,-1.5137,0.0,0.0,0.0,0.0,0.0,0.0,0.0,0.0,0.0,0.0,0.0,0.0,0.0,0.7133,0.7025,0.6499,0.6029,0.5913,0.6257,0.0,0.0,0.0,0.0,0.0,0.0,0.0,0.2201,-0.0052,-0.1078,-0.1767,-0.2293,-0.2516,-0.2347,-0.1732,-0.1843,-0.1507,-0.1004,-0.1453,-0.1119,-0.0168,0.0841,0.0898,0.0,0.0,0.0,0.0,0.0,0.0,0.0,0.0,0.0,0.0,0.0,0.0,0.0,0.0,0.0,0.0,0.0,0.0,0.0,0.0,0.0,0.0,0.0,0.0,0.0,0.0,0.0,0.0,0.0,0.0,0.0,0.0,0.0,0.0,0.0,0.0,0.0,-0.534,-0.4843,0.0,-0.5412,-0.5487,-0.5872,-0.6945,-0.6945,-0.7399,-0.8555,-0.9064,-0.9653,-1.0392,-1.0748,-1.0968,-1.11,-1.1163,-1.1142,-1.1117,-1.1512,-1.1677,-1.1677,-1.174,-1.174,-1.174,-1.1802,-1.1864,-1.205,-1.229,-1.2789,-1.3294,-1.3302,-1.3467,-1.3709,-1.4066,-1.4335,-1.4561,0.0,0.0,0.0,0.0,0.0,0.0,0.0,0.0,0.0,0.0,0.0,0.7308,0.7433,0.7709,0.7685,0.7264,0.6965,0.6987,0.7328,0.0,0.0,0.0,0.0,0.0,0.0,0.2941,0.1969,0.0378,-0.0553,-0.1119,-0.1341,-0.1398,-0.1174,-0.067,-0.0447,-0.0056,0.0454,0.0454,0.0398,0.0342,0.1154,0.1391,0.1215,0.0,0.0,0.0,0.0,0.0,0.0,0.0,0.0,0.0,0.0,0.0,0.0,0.0,0.0,0.0,0.0,0.0,0.0,0.0,0.0,0.0,0.0,0.0,0.0,0.0,0.0,0.0,0.0,0.0,0.0,0.0,0.0,0.0,0.0,-0.5176,-0.5357,-0.5433,-0.5397,-0.5572,-0.612,-0.6413,-0.6855,-0.7503,-0.7461,-0.7692,-0.8519,-0.8869,-0.9345,-0.9891,-1.0287,-1.0397,-1.0324,-1.0409,-1.0441,-1.0438,-1.0698,-1.0926,-1.1129,-1.0996,-1.0926,-1.0912,-1.1108,-1.1303,-1.149,-1.156,-1.1864,-1.2413,-1.2813,-1.3033,-1.3199,-1.3549,-1.4127,-1.474,0.0,0.0,0.0,0.0,0.0,0.0,0.0,0.0,0.0,0.0,0.7098,0.7807,0.8013,0.8618,0.8804,0.8212,0.81,0.8045,0.7962,0.7571,0.0,0.0,0.0,0.0,0.4421,0.2801,0.178,0.1341,0.0504,-0.0056,-0.0279,-0.0335,-0.0112,0.0279,0.0559,0.0967,0.1526,0.2767,0.2593,0.1651,0.2436,0.2591,0.2395,0.0,0.0,0.0,0.0,0.0,0.0,0.0,0.0,0.0,0.0,0.0,0.0,0.0,0.0,0.0,0.0,0.0,0.0,0.0,0.0,0.0,0.0,0.0,0.0,0.0,0.0,0.0,0.0,0.0,0.0,0.0,0.0,0.0,-0.4565,-0.5413,-0.5697,-0.4934,-0.5801,-0.6416,-0.6135,-0.6828,-0.7295,-0.7311,-0.7198,-0.75,-0.8434,-0.8669,-0.9155,-0.9914,-0.9824,-0.9907,-1.0238,-0.9716,-0.9779,-1.0238,-0.9964,-1.0168,-1.0848,-1.0434,-1.0218,-1.0205,-1.0421,-1.0618,-1.0807,-1.0996,-1.1045,-1.1156,-1.2104,-1.2512,-1.2647,-1.2926,-1.4098,-1.5479,0.0,0.0,0.0,0.0,0.0,0.0,0.0,0.0,0.0,0.0,0.7314,0.8136,0.8659,0.9552,0.9982,0.9737,0.9567,0.9399,0.9147,0.0,0.0,0.0,0.0,0.0,0.4644,0.3952,0.3035,0.1898,0.1621,0.1736,0.2071,0.1566,0.1564,0.2009,0.2178,0.2525,0.3065,0.3977,0.4234,0.3939,0.3371,0.3263,0.3381,0.0,0.0,0.0,0.0,0.0,0.0,0.0,0.0,0.0,0.0,0.0,0.0,0.0,0.0,0.0,0.0,0.0,0.0,0.0,0.0,0.0,0.0,0.0,0.0,0.0,0.0,0.0,0.0,0.0,0.0,0.0,-0.4592,-0.4915,-0.4558,-0.5153,-0.5624,-0.5528,-0.6039,-0.6515,-0.681,-0.7314,-0.7563,-0.7568,-0.7461,-0.7518,-0.7923,-0.8362,-0.8634,-0.8578,-0.9194,-0.939,-0.9005,-0.9204,-0.9396,-0.9594,-0.9756,-0.9976,-1.0149,-0.9693,-0.9712,-1.004,-0.9804,-0.9856,-1.0187,-1.0244,-1.0478,-1.0843,-1.17,-1.2531,-1.3194,-1.2861,-1.2751,-1.2759,0.0,0.0,0.0,0.0,0.0,0.0,0.0,0.0,0.0,0.0,0.775,0.8569,0.95,1.034,1.0874,1.0943,1.0902,1.073,1.0456,0.0,0.0,0.0,0.0,0.6586,0.5593,0.5,0.4113,0.3058,0.2899,0.3123,0.3788,0.3178,0.3231,0.3779,0.3729,0.3981,0.4439,0.4955,0.5311,0.551,0.4969,0.4659,0.4517,0.4522,0.4624,0.4804,0.4748,0.4968,0.5268,0.5487,0.0,0.0,0.0,0.0,0.0,0.0,0.0,0.0,0.0,0.0,0.0,0.0,0.0,0.0,0.0,0.0,0.0,0.0,0.0,0.0,0.0,0.0,0.0,0.0,-0.5167,-0.5406,-0.5041,-0.5587,-0.594,-0.5764,-0.6376,-0.6864,-0.7019,-0.7419,-0.7622,-0.7622,-0.7461,-0.7344,-0.7389,-0.7847,-0.7874,-0.7369,-0.8337,-0.8598,-0.808,-0.857,-0.8952,-0.9151,-0.9231,-0.9446,-0.9719,-0.9024,-0.877,-0.8969,-0.8952,-0.9145,-0.9484,-0.9664,-0.9849,0.0,0.0,0.0,0.0,0.0,-1.1609,-1.1481,0.0,0.0,0.0,0.0,0.0,0.0,0.0,0.0,0.0,0.0,0.0,0.9044,1.0293,1.1046,1.1579,1.1872,1.1945,1.1872,0.0,0.0,0.0,0.8967,0.8412,0.777,0.7009,0.6063,0.5307,0.471,0.4326,0.4539,0.5186,0.4765,0.4878,0.5529,0.5311,0.5456,0.5783,0.6037,0.6379,0.6749,0.7097,0.6667,0.5771,0.5638,0.5721,0.5895,0.5871,0.5876,0.5896,0.6304,0.0,0.0,0.0,0.0,0.0,0.0,0.0,0.0,0.0,0.0,0.0,0.0,0.0,0.0,0.0,0.0,0.0,0.0,0.0,0.0,0.0,0.0,0.0,0.0,-0.5502,-0.5759,-0.5749,-0.6291,-0.6476,-0.5825,-0.6671,-0.7236,-0.703,-0.7325,-0.7561,-0.7507,-0.7231,-0.7065,-0.7079,0.0,0.0,0.0,0.0,-0.7742,-0.7442,-0.7899,-0.8409,-0.884,-0.8624,-0.8905,-0.9485,-0.842,-0.7737,-0.7414,-0.8086,-0.8495,-0.87,-0.9087,-0.935,-0.9618,-1.0581,-1.0724,-1.0392,-1.0421,-1.0691,-1.1114,0.0,0.0,0.0,0.0,0.0,0.0,0.0,0.0,0.0,0.7675,0.8561,0.9512,1.0532,1.1594,1.2138,1.1847,1.2318,1.2246,0.0,0.0,1.0161,0.9691,0.9573,0.9067,0.8176,0.7559,0.7079,0.6811,0.6538,0.664,0.7068,0.6747,0.6806,0.7084,0.725,0.7385,0.7501,0.8416,0.8824,0.8808,0.9491,0.8628,0.6958,0.7003,0.7247,0.7505,0.7081,0.7067,0.7246,0.6818,0.6751,0.694,0.7072,0.0,0.0,0.0,0.0,0.0,0.0,0.0,0.0,0.0,0.0,0.0,0.0,0.0,0.0,0.0,0.0,0.0,0.0,0.0,0.0,-0.5691,-0.608,-0.6187,-0.6051,-0.6378,-0.6497,-0.6154,-0.6949,-0.7356,-0.695,-0.7529,-0.775,-0.7437,-0.7202,-0.7188,-0.7367,-0.7381,-0.7145,-0.6763,-0.735,-0.7461,-0.701,-0.7626,-0.8191,-0.8576,0.0,0.0,-0.9474,-0.818,-0.7246,-0.6637,-0.7172,-0.7637,-0.8042,-0.8441,-0.8981,-0.9526,-0.9454,-0.9209,-0.8925,-0.933,-0.9742,-1.0148,0.0,0.0,0.0,0.0,0.0,0.0,0.0,0.0,0.0,0.0,0.9102,0.9923,1.0847,1.1763,1.2258,1.2174,1.2354,0.0,0.0,1.1385,1.1081,1.1049,1.0958,1.0522,0.9649,0.9322,0.8971,0.8613,0.8292,0.8397,0.8776,0.8456,0.8515,0.894,0.879,0.8835,0.8999,0.9633,0.9907,0.998,1.0636,1.0378,0.9541,0.8805,0.8463,0.8285,0.7962,0.7832,0.7817,0.7466,0.7624,0.7922,0.7944,0.807,0.8155,0.0,0.0,0.0,0.0,0.0,0.0,0.0,0.0,0.0,0.0,0.0,0.0,0.0,0.0,-0.1442,-0.3164,0.0,-0.4211,-0.5406,-0.5647,-0.5743,-0.5773,-0.5989,-0.6156,-0.6121,-0.6583,-0.6901,-0.6821,-0.71,-0.7156,-0.6941,-0.6917,-0.692,-0.6744,-0.6925,-0.6744,-0.6036,-0.688,-0.7049,-0.6437,-0.7201,-0.7683,-0.7987,-0.8313,-0.8195,-0.7686,-0.7177,-0.672,-0.64,-0.6662,-0.6999,-0.7396,-0.7787,-0.8257,-0.8668,-0.8624,-0.8586,-0.8489,-0.857,-0.9041,-0.9716,0.0,0.0,0.0,0.0,0.0,0.0,0.0,0.0,0.0,0.0,0.9485,1.005,1.0957,1.1503,1.1919,0.0,0.0,0.0,0.0,1.2185,1.2027,1.2322,1.2292,1.1918,1.1195,1.1129,1.0872,1.0434,1.0105,1.0163,1.0517,1.0143,1.0246,1.0762,1.034,1.0289,1.0493,1.0761,1.1017,1.1251,1.1713,1.2086,1.2263,1.111,1.0103,0.9308,0.9116,0.8796,0.8474,0.8554,0.8818,0.9145,0.9145,0.9259,0.9272,0.9204,0.9126,0.0,0.0,0.0,0.0,0.0,0.0,0.0,0.0,0.3841,0.1811,0.0158,-0.0906,-0.2024,-0.3597,-0.3736,-0.3922,-0.494,-0.5052,-0.5071,-0.534,-0.5405,-0.5504,-0.5673,-0.5982,-0.6293,-0.6386,-0.6384,-0.6303,-0.629,-0.6483,-0.6391,-0.6062,-0.6382,-0.6194,-0.5369,-0.6328,-0.6599,-0.6046,-0.6659,-0.7093,-0.7265,-0.762,-0.7012,-0.5588,-0.5858,-0.6071,-0.6222,-0.6218,-0.6416,-0.6819,-0.7138,-0.7396,-0.7536,-0.7937,-0.8172,-0.8254,-0.812,-0.8527,-0.9268,0.0,0.0,0.0,0.0,0.0,0.0,0.0,0.0,0.0,0.0,0.0,0.0,0.0,0.0,0.0,0.0,0.0,0.0,1.2828,1.2686,1.2686,1.2888,1.3364,1.3249,1.2584,1.2858,1.2888,1.2657,1.2355,1.2307,1.2463,1.2209,1.211,1.2159,1.2258,1.2209,1.2178,1.2962,1.3316,1.3423,1.4115,1.4259,1.4053,1.4083,1.302,1.1454,1.126,1.0759,1.0262,1.0458,1.0395,1.0332,1.0521,1.0564,1.053,1.0342,1.0335,1.02,0.9778,0.8687,0.7333,0.5998,0.5284,0.437,0.0,0.1299,0.0283,-0.1498,-0.2527,-0.3451,-0.4409,-0.4385,-0.4409,-0.5097,-0.4978,-0.4831,-0.4877,-0.4667,-0.4514,-0.4489,-0.5343,-0.577,-0.5405,-0.5575,-0.5781,-0.5918,-0.5791,-0.5821,-0.6108,-0.598,-0.5888,-0.5712,-0.5851,-0.5977,-0.6111,-0.6152,-0.6318,-0.6548,-0.6894,-0.6145,-0.4458,-0.4524,-0.4869,-0.5491,-0.5481,-0.5885,-0.6436,-0.649,-0.6544,-0.6601,-0.7288,-0.7611,-0.7647,-0.8052,-0.8242,-0.8366,0.0,0.0,0.0,0.0,0.0,0.0,0.0,0.0,0.0,0.0,0.0,0.0,0.0,0.0,0.0,0.0,0.0,0.0,1.2973,1.3276,1.3788,1.4547,1.4922,1.5031,1.4848,1.4873,1.4688,1.4275,1.3971,1.3747,1.3653,1.3548,1.3501,1.3511,1.379,1.3913,1.3885,1.475,1.516,1.5269,1.5531,1.5795,1.5935,1.5741,1.505,1.4082,1.2899,1.2296,0.0,0.0,1.1927,1.1989,1.2058,1.192,1.1677,1.1643,1.1684,1.1601,1.1236,0.924,0.7176,0.6515,0.4885,0.31,0.1575,0.0471,-0.0708,-0.2275,-0.2846,-0.313,-0.3453,-0.3586,-0.3607,-0.3684,-0.3752,-0.3817,-0.3862,-0.3693,-0.3441,-0.3243,-0.3182,-0.3473,-0.4287,-0.4266,-0.4317,-0.4525,-0.4702,-0.4859,-0.4958,-0.5135,-0.5219,-0.5202,-0.535,-0.535,-0.5325,-0.5349,-0.5425,-0.562,-0.5561,-0.5223,-0.4613,-0.4411,-0.448,-0.4755,-0.4746,-0.4945,-0.5216,-0.5822,-0.6013,-0.5939,-0.7034,-0.7231,-0.6937,-0.733,-0.7657,-0.7987,0.0,0.0,0.0,0.0,0.0,0.0,0.0,0.0,0.0,0.0,0.0,0.0,0.0,0.0,0.0,0.0,0.0,0.0,0.0,1.4152,1.5059,1.6211,1.6664,1.6858,1.6834,1.6688,1.6358,1.5811,1.5496,1.5196,1.4914,1.4892,1.4915,1.5062,1.5342,1.5578,1.5747,1.6443,1.6814,1.6924,1.698,1.7217,1.749,1.7014,1.6754,1.6419,1.4622,1.3912,0.0,0.0,1.3665,1.3844,1.3862,1.36,1.3307,1.3365,1.3313,1.3007,1.2109,0.9967,0.7735,0.6936,0.4785,0.2607,0.1522,0.0306,-0.1041,-0.2418,-0.2917,-0.2913,-0.2408,-0.2103,-0.2001,-0.2305,-0.2345,-0.2442,-0.2748,-0.2436,-0.2045,-0.1739,-0.0834,-0.0844,-0.2413,-0.2632,-0.2824,-0.3328,-0.3605,-0.3796,-0.3903,-0.4257,-0.4443,-0.4423,-0.4641,-0.4713,-0.4555,-0.4546,-0.4707,-0.5035,-0.4575,-0.4309,-0.4243,-0.4212,-0.4159,-0.4225,-0.4284,-0.4281,-0.4212,-0.5087,-0.5355,-0.5282,-0.644,-0.6573,-0.6152,-0.6272,-0.6802,-0.7405,0.0,0.0,0.0,0.0,0.0,0.0,0.0,0.0,0.0,0.0,0.0,0.0,0.0,0.0,0.0,0.0,0.0,0.0,0.0,1.5341,1.6404,1.7689,1.8422,1.8605,1.8153,1.8153,1.7918,1.7451,1.7014,1.6735,1.6536,1.633,1.6485,1.6921,1.6946,1.7254,1.7857,1.8191,1.8323,1.8384,1.8594,1.8608,1.8417,1.8309,1.8244,1.8004,1.6486,0.0,0.0,0.0,1.5783,1.5944,1.5995,1.5965,0.0,1.5736,1.539,1.451,1.2254,1.0723,0.9205,0.6661,0.4861,0.3275,0.1793,0.064,-0.0504,-0.1783,-0.3071,-0.3378,-0.1579,-0.0,0.046,-0.1509,-0.0969,-0.0631,-0.1695,-0.095,-0.0158,0.0106,0.1303,0.1685,0.064,-0.0568,-0.1662,-0.2624,-0.2766,-0.2906,-0.3209,-0.342,-0.3551,-0.3549,-0.3889,-0.4025,-0.4023,-0.3983,-0.4254,-0.4778,-0.419,-0.354,-0.2772,-0.352,-0.3837,-0.3904,-0.4167,-0.4095,-0.3825,-0.4231,-0.4431,-0.4691,-0.5239,-0.5439,-0.5359,-0.5017,-0.5547,-0.6486,0.0,0.0,0.0,0.0,0.0,0.0,0.0,0.0,0.0,0.0,0.0,0.0,0.0,0.0,0.0,0.0,0.0,0.0,0.0,1.5557,1.7039,1.8646,1.9326,1.9606,1.955,1.9337,1.8999,1.8416,1.8193,1.7932,1.7599,1.8043,1.8227,1.8226,1.8579,1.8976,1.9447,1.9451,1.9652,2.0012,2.0105,2.008,2.0029,1.9786,1.967,1.9581,0.0,0.0,0.0,0.0,1.728,1.7401,1.7413,1.718,1.6837,1.6475,1.5184,1.3806,1.3049,1.0984,0.8734,0.7705,0.5727,0.3734,0.3019,0.1781,0.0585,-0.0429,-0.0869,-0.0865,-0.017,0.0854,0.1321,0.028,0.0822,0.1031,-0.0,0.0215,0.0481,0.0548,0.1413,0.2025,0.2044,0.1626,0.0736,-0.0772,-0.0667,-0.0805,-0.1583,-0.2106,-0.2484,-0.2616,-0.2885,-0.2994,-0.2942,-0.2914,-0.3029,-0.3223,-0.3017,-0.2779,-0.2581,-0.2809,-0.3092,-0.3431,-0.3563,-0.3627,-0.3825,-0.3825,-0.3959,-0.4084,-0.414,-0.4221,-0.4348,-0.4324,-0.4608,-0.515,0.0,0.0,0.0,0.0,0.0,0.0,0.0,0.0,0.0,0.0,0.0,0.0,0.0,0.0,0.0,0.0,0.0,0.0,0.0,0.0,1.7384,1.9113,1.9925,2.0369,2.0447,2.0154,1.9839,1.9485,1.9251,1.913,1.9132,1.9495,1.9776,2.0006,2.037,2.0785,2.1204,2.1065,2.1205,2.1465,2.139,2.1464,2.1542,2.1095,2.1113,0.0,0.0,0.0,0.0,1.8809,1.8715,1.8727,1.8405,1.7737,1.704,1.7163,1.5639,1.3908,1.3724,1.1602,0.919,0.8299,0.6453,0.4745,0.4108,0.3029,0.2023,0.1259,0.2167,0.3164,0.3089,0.3773,0.4068,0.3168,0.3116,0.2872,0.2062,0.1971,0.1958,0.1785,0.2356,0.2798,0.2732,0.2979,0.2667,0.1429,0.1094,0.0558,-0.0317,-0.0856,-0.1276,-0.1544,-0.1795,-0.1902,-0.1741,-0.1956,-0.2061,-0.2064,-0.2079,-0.2117,-0.2183,-0.2341,-0.2554,-0.2824,-0.2958,-0.3157,-0.3422,-0.3288,-0.3422,-0.3551,-0.3287,-0.3434,-0.3685,-0.3745,-0.3959,-0.4289,0.0,0.0,0.0,0.0,0.0,0.0,0.0,0.0,0.0,0.0,0.0,0.0,0.0,0.0,0.0,0.0,0.0,0.0,0.0,0.0,0.0,1.9142,2.0269,2.0861,2.0893,2.0561,2.0441,2.0494,2.02,2.0396,2.102,2.076,2.1193,2.226,2.2302,2.2584,2.3069,2.2892,2.2817,2.2725,2.2532,2.2737,2.3031,2.225,0.0,0.0,0.0,0.0,0.0,2.0409,2.0042,1.9876,1.898,1.7661,1.6675,1.7867,1.662,1.4726,1.4228,1.2617,1.0578,0.8515,0.7177,0.6142,0.5178,0.455,0.3977,0.3343,0.5887,0.8175,0.7936,0.8404,0.8311,0.6837,0.5746,0.4882,0.4353,0.4239,0.4122,0.368,0.4125,0.4011,0.2859,0.3462,0.39,0.3747,0.0,0.1326,0.06,0.0268,-0.0,-0.0202,-0.0588,-0.0708,-0.0514,-0.1092,-0.1355,-0.1357,-0.1507,-0.1549,-0.1612,-0.1993,-0.2154,-0.2221,-0.2487,-0.2686,-0.2686,-0.2686,-0.2889,-0.3159,-0.2817,-0.3019,-0.3429,-0.3222,-0.3489,-0.3959,0.0,0.0,0.0,0.0,0.0,0.0,0.0,0.0,0.0,0.0,0.0,0.0,0.0,0.0,0.0,0.0,0.0,0.0,0.0,0.0,0.0,0.0,0.0,0.0,0.0,0.0,0.0,0.0,2.0543,2.0836,2.1327,2.1983,2.263,2.324,2.3358,2.369,2.4153,2.3457,2.3353,2.3578,0.0,2.3334,2.3303,0.0,0.0,0.0,0.0,0.0,2.274,2.1372,2.0646,2.0105,1.8939,1.799,1.7283,1.7326,1.585,1.41,1.3694,1.2236,1.0678,0.985,0.8682,0.7897,0.8364,0.7917,0.7516,0.7797,0.8809,0.9592,0.9458,0.9939,0.9757,0.7976,0.7711,0.7169,0.5534,0.5164,0.4835,0.4381,0.4226,0.3802,0.3053,0.32,0.3185,0.2913,0.2554,0.2353,0.2326,0.1707,0.1344,0.1277,0.1046,0.0764,0.0436,-0.0123,-0.0603,-0.0885,-0.0834,-0.1054,-0.1612,-0.146,-0.1547,-0.1884,-0.2017,-0.2151,-0.2354,-0.249,-0.2624,-0.2686,-0.2696,-0.2706,-0.2746,-0.2621,-0.2902,-0.3504,0.0,0.0,0.0,0.0,0.0,0.0,0.0,0.0,0.0,0.0,0.0,0.0,0.0,0.0,0.0,0.0,0.0,0.0,0.0,0.0,0.0,0.0,0.0,0.0,0.0,0.0,0.0,0.0,0.0,0.0,2.1616,2.2584,2.3353,2.3951,2.4344,2.4671,2.4942,2.439,0.0,0.0,0.0,0.0,0.0,0.0,0.0,0.0,0.0,0.0,2.3198,2.1801,2.0756,1.9863,1.8727,1.7565,1.6727,1.6851,1.5506,1.3922,1.4047,1.2821,1.1329,1.0686,0.9688,0.8864,0.9212,0.943,0.9593,0.9991,1.1212,1.2243,1.234,1.1841,1.1127,1.0173,0.9248,0.8176,0.6843,0.6509,0.6234,0.5629,0.5097,0.4505,0.3732,0.4003,0.3922,0.3159,0.2821,0.2602,0.2699,0.2296,0.2138,0.2244,0.2052,0.1731,0.1123,0.06,0.018,-0.0177,-0.0252,-0.0515,-0.0886,-0.1044,-0.1255,-0.1519,0.0,-0.1748,-0.1951,-0.2085,-0.2087,-0.2016,-0.2249,-0.2321,-0.2347,-0.2309,-0.2652,-0.3103,0.0,0.0,0.0,0.0,0.0,0.0,0.0,0.0,0.0,0.0,0.8903,0.0,0.0,0.0,0.0,0.0,0.0,0.0,0.0,0.0,0.0,0.0,0.0,0.0,0.0,0.0,0.0,0.0,0.0,0.0,0.0,0.0,0.0,0.0,0.0,0.0,0.0,0.0,0.0,0.0,0.0,0.0,0.0,0.0,0.0,0.0,0.0,2.3304,2.3083,2.2091,2.0917,1.9698,1.8472,1.6961,1.5839,1.6462,1.5381,1.4157,1.4749,1.372,1.2202,1.1399,1.0415,0.9582,0.9405,1.0308,1.1241,1.1539,1.3656,1.5498,1.5881,1.4338,1.3046,1.3194,1.1229,0.9458,0.8752,0.86,0.8159,0.7191,0.646,0.5655,0.4714,0.5408,0.5354,0.4015,0.3309,0.2851,0.2495,0.2491,0.2621,0.2864,0.2664,0.2258,0.1623,0.1216,0.0882,0.0527,0.0182,-0.0,-0.0,-0.076,-0.1093,-0.1097,-0.1257,-0.1404,-0.1539,-0.1545,-0.1477,-0.1405,-0.1612,-0.1884,-0.2154,-0.2221,-0.2488,-0.29,0.0,0.0,0.0,0.0,0.0,0.0,0.0,0.0,0.0,0.0,0.8643,0.8935,0.0,0.0,0.0,0.0,0.0,0.0,0.0,0.0,0.0,0.0,0.0,0.0,0.0,0.0,0.0,0.0,0.0,0.0,0.0,0.0,0.0,0.0,0.0,0.0,0.0,0.0,0.0,0.0,0.0,0.0,0.0,0.0,0.0,0.0,2.3756,2.3368,2.2826,2.2956,2.2063,2.0499,1.8554,1.7432,1.6795,1.6143,1.5481,1.4898,1.4731,1.3801,1.2833,1.2378,1.1584,1.1309,1.2668,1.353,1.4468,1.6133,1.7612,1.8655,1.8794,1.8265,1.7652,1.7066,1.6177,1.4795,1.2721,1.2127,1.1057,0.8888,0.7894,0.6993,0.5968,0.6528,0.6206,0.4512,0.4748,0.4497,0.3461,0.2991,0.2958,0.3228,0.3027,0.2735,0.2354,0.1852,0.1393,0.0849,0.0842,0.0548,-0.0,-0.0675,-0.1009,-0.1098,-0.1104,0.0,-0.1173,-0.1199,-0.1195,-0.1173,-0.12,-0.1547,-0.1951,-0.2154,-0.2354,-0.2629,0.0,0.0,0.0,0.0,0.0,0.0,0.0,0.7655,0.7863,0.7946,0.8275,0.8513,0.8602,0.9039,1.0071,0.0,0.0,0.0,0.0,0.0,0.0,0.0,0.0,0.0,0.0,0.0,1.8717,1.8936,0.0,0.0,0.0,2.1272,2.2017,2.2862,0.0,0.0,0.0,0.0,0.0,0.0,0.0,0.0,0.0,0.0,0.0,0.0,0.0,2.3074,2.2933,2.3192,2.2712,2.1633,1.956,1.8846,1.8548,1.7458,1.6896,1.6504,1.6182,1.5019,1.3815,1.3446,1.2724,1.2371,1.3671,1.4978,1.6318,1.7679,1.9229,2.028,2.0196,1.9359,1.8555,1.8189,1.7296,1.5964,1.3879,1.3283,1.251,1.1015,1.0101,0.927,0.828,0.8868,0.8209,0.5601,0.5813,0.5373,0.3771,0.348,0.3399,0.3411,0.3177,0.2899,0.2633,0.2161,0.1721,0.138,0.111,0.0824,0.0472,-0.0304,-0.0803,-0.0989,-0.1035,-0.1047,-0.1101,-0.113,-0.1067,-0.1123,-0.1205,-0.1412,-0.1681,-0.2085,-0.2287,-0.2424,0.0,0.0,0.0,0.0,0.0,0.0,0.0,0.7614,0.7712,0.7836,0.7821,0.7968,0.8294,0.8716,0.9799,0.0,0.0,0.0,0.0,0.0,0.0,0.0,0.0,0.0,0.0,0.0,0.0,1.8228,1.8577,0.0,0.0,0.0,0.0,0.0,2.2556,2.293,0.0,0.0,0.0,0.0,0.0,2.1754,0.0,0.0,0.0,0.0,0.0,2.2457,2.2904,2.326,2.3319,2.2946,2.1388,2.0716,2.0299,1.9091,1.8394,1.7919,1.7622,1.6126,1.4562,1.43,1.3669,1.3333,1.4205,1.5879,1.7454,1.8282,1.9891,2.1112,2.0889,1.9867,1.9078,1.9095,1.8215,1.6888,1.4979,1.4558,1.3948,1.2667,1.2205,1.147,1.007,1.0789,1.0089,0.6934,0.6651,0.5795,0.3883,0.3798,0.3688,0.355,0.3291,0.3021,0.28,0.2352,0.1985,0.1803,0.1249,0.0967,0.0934,0.006,-0.054,-0.0947,-0.1024,-0.1109,-0.1091,-0.1128,-0.1072,-0.1134,-0.1342,-0.1412,-0.148,-0.2018,-0.2221,-0.2288,0.0,0.0,0.0,0.0,0.0,0.0,0.0,0.769,0.7572,0.7712,0.7447,0.7376,0.7667,0.849,0.9635,0.0,0.0,0.0,0.0,0.0,0.0,0.0,0.0,0.0,0.0,0.0,0.0,1.7323,1.8028,0.0,0.0,0.0,0.0,0.0,0.0,2.1761,2.1792,2.2207,0.0,0.0,0.0,0.0,0.0,0.0,0.0,0.0,0.0,2.1463,2.2263,2.3246,2.4043,2.4522,2.4102,2.289,2.1346,2.0194,1.9086,1.8188,1.7729,1.6177,1.4662,1.4445,1.4364,1.4576,1.5423,1.6627,1.7886,1.9116,2.0303,2.1102,2.0985,2.1316,2.1595,2.1752,2.1387,2.0302,1.7924,1.7766,1.6515,1.2851,1.3299,1.2842,1.0105,1.1096,1.0913,0.8495,0.7365,0.5833,0.3708,0.3697,0.3647,0.3604,0.3477,0.3299,0.3077,0.2631,0.2244,0.1798,0.1459,0.1124,0.0902,0.0452,-0.023,-0.1064,-0.1042,-0.1057,0.0,-0.1118,-0.1127,-0.1105,-0.1466,-0.1614,-0.1614,-0.2018,-0.2221,-0.2221,0.0,0.0,0.0,0.0,0.0,0.0,0.8308,0.8152,0.8105,0.826,0.794,0.7887,0.8369,0.8751,0.941,1.0543,0.0,0.0,0.0,0.0,0.0,0.0,0.0,0.0,0.0,0.0,1.6454,1.696,1.7282,0.0,0.0,0.0,0.0,0.0,0.0,1.9738,1.9634,0.0,0.0,0.0,0.0,0.0,0.0,0.0,0.0,0.0,0.0,0.0,2.1766,2.2665,2.3822,2.4938,2.5142,2.4839,2.4306,2.3363,2.1827,2.0385,2.0233,1.824,1.6078,1.5516,1.5072,1.5132,1.6489,1.7388,1.8326,1.9636,2.0717,2.1238,2.0471,2.0841,2.0822,1.9559,1.9252,1.8518,1.6597,1.6493,1.6056,1.4503,1.4677,1.4054,1.1773,1.1679,1.0565,0.757,0.6666,0.5642,0.4356,0.3958,0.3682,0.3471,0.3302,0.3132,0.297,0.2521,0.2183,0.1903,0.1545,0.1259,0.1068,0.0526,0.0059,-0.0473,-0.0808,-0.0377,0.0,-0.0592,-0.0927,-0.0776,-0.113,-0.1412,-0.1614,-0.1884,-0.2087,-0.2221,0.0,0.0,0.0,0.0,0.0,0.8765,0.8724,0.8529,0.8502,0.8776,0.8545,0.852,0.8875,0.917,0.9563,1.0069,1.1057,0.0,0.0,0.0,0.0,0.0,0.0,0.0,0.0,0.0,1.5901,1.6405,1.6565,1.7005,0.0,0.0,1.8027,1.8559,0.0,0.0,0.0,0.0,0.0,0.0,0.0,0.0,0.0,0.0,0.0,0.0,0.0,0.0,0.0,0.0,0.0,2.4938,2.549,2.5926,2.6129,2.5559,2.3865,2.2218,2.2141,2.0229,1.8067,1.73,1.6823,1.6847,1.8099,1.8659,1.9233,2.0218,2.0919,2.104,2.0157,2.021,1.9786,0.0,0.0,1.6762,1.5412,1.4946,1.4925,1.533,1.4769,1.3927,1.2876,1.1916,1.0288,0.7635,0.673,0.6027,0.5382,0.4401,0.3799,0.3524,0.3299,0.3132,0.297,0.2521,0.2183,0.1959,0.155,0.1263,0.1124,0.0706,0.0415,0.0233,-0.0435,0.0063,0.0,-0.0394,-0.0994,-0.0904,-0.113,-0.148,-0.1817,-0.1817,-0.2018,-0.2221,0.0,0.0,0.0,0.0,0.0,0.0,0.9177,0.8741,0.8537,0.8943,0.9157,0.9117,0.8743,0.9771,1.0295,0.976,1.0731,0.0,0.0,0.0,0.0,0.0,0.0,0.0,0.0,0.0,1.5345,1.5513,1.5908,1.617,1.6312,1.687,1.7107,1.7149,0.0,0.0,0.0,0.0,0.0,0.0,0.0,0.0,0.0,0.0,0.0,0.0,0.0,0.0,0.0,0.0,0.0,0.0,0.0,2.5817,2.6163,2.6024,2.4645,2.3115,2.2778,2.1695,2.0482,1.9834,1.9872,2.01,2.0327,2.0588,2.0795,2.0944,2.0758,2.0415,2.0167,1.9793,1.9086,1.7716,1.6898,0.0,1.5412,1.3992,1.3476,1.4773,1.3173,1.2199,1.2861,1.1691,1.046,0.9429,0.8246,0.0,0.6796,0.516,0.4079,0.3796,0.3524,0.3299,0.3074,0.2687,0.224,0.179,0.1458,0.1179,0.101,0.0955,0.0898,0.0845,0.024,0.0121,0.0,-0.0651,-0.1392,-0.1745,-0.1663,-0.1817,-0.2154,-0.1884,-0.1951,-0.2221,0.0,0.0,0.0,0.0,0.0,0.0,0.0,0.9199,0.9264,0.9576,0.9579,0.9685,0.9898,1.0254,1.0554,1.0664,1.1075,0.0,0.0,0.0,0.0,0.0,0.0,0.0,0.0,0.0,1.4949,1.5233,1.5424,1.5623,1.5708,1.574,1.5816,1.5792,1.5492,1.5025,0.0,0.0,0.0,0.0,0.0,0.0,0.0,0.0,0.0,0.0,0.0,0.0,0.0,0.0,0.0,0.0,0.0,0.0,0.0,2.6302,2.5425,2.4351,2.4673,2.3412,2.1869,2.1465,2.0741,2.0323,2.0946,2.0786,2.0556,2.0658,2.0476,2.002,1.9083,1.8702,1.8052,1.6515,1.5671,1.4783,1.3761,1.3846,1.4257,1.4829,1.3998,1.3121,1.2349,1.0513,0.9148,0.875,0.7351,0.6195,0.5538,0.4783,0.4242,0.3796,0.3411,0.3188,0.3074,0.2575,0.2209,0.2026,0.1566,0.1335,0.1219,0.1044,0.094,0.09,0.1164,0.0798,0.0122,-0.0197,-0.0458,-0.0755,-0.218,-0.2356,-0.1749,-0.1412,-0.1703,-0.2286,0.0,0.0,0.0,0.0,0.0,0.0,0.0,0.9527,0.9698,1.0004,1.0193,1.0324,1.0529,1.0804,1.1003,1.1179,1.132,0.0,0.0,0.0,0.0,0.0,0.0,0.0,0.0,1.4168,1.443,1.4765,1.4754,1.4766,1.4858,1.4481,1.4264,1.4253,1.3721,1.3202,0.0,0.0,0.0,0.0,0.0,0.0,1.0652,0.0,0.0,0.0,0.0,0.0,0.0,0.0,0.0,0.0,0.0,0.0,0.0,0.0,2.5712,2.5384,2.5773,2.4941,2.3842,2.3456,2.2611,2.1978,2.2392,2.1669,2.0757,2.022,1.9512,1.8658,1.7424,1.6544,1.5856,1.5271,1.4201,1.3401,1.3378,1.2722,1.2078,1.1648,1.315,1.323,1.0549,0.9977,0.9227,0.7835,0.6738,0.5692,0.4865,0.4542,0.4187,0.3796,0.3411,0.3188,0.3074,0.2575,0.2221,0.2116,0.1649,0.1356,0.1238,0.0895,0.0843,0.1033,0.112,0.0811,0.0,0.0066,-0.0197,-0.063,-0.1917,-0.2356,-0.2157,-0.1565,-0.1727,-0.2318,0.0,0.0,0.0,0.0,0.0,0.0,0.0,0.9695,0.9932,1.0244,1.0775,1.0992,1.0628,1.1217,1.1528,1.1244,1.1451,0.0,0.0,0.0,0.0,0.0,0.0,0.0,0.0,1.3543,1.3905,1.4129,1.3858,1.3752,1.3826,1.3024,1.2619,1.257,1.2015,1.163,0.0,0.0,0.0,0.0,0.0,0.0,0.0,0.0,0.0,0.0,0.0,0.0,0.0,0.0,0.0,0.0,0.0,0.0,0.0,0.0,0.0,0.0,0.0,2.6158,2.6033,2.5659,2.5059,2.4521,2.4307,2.2969,0.0,1.9713,1.8179,1.6757,1.5459,1.373,1.2916,1.4108,1.2677,1.1975,1.3575,1.0826,0.8171,0.6836,1.1252,1.2668,0.8223,0.9927,1.0051,0.6935,0.6312,0.5668,0.4688,0.4328,0.4015,0.3741,0.3466,0.3246,0.3077,0.2687,0.2336,0.2118,0.1645,0.1353,0.118,0.0668,0.0667,0.0,0.0377,0.0381,0.0,0.0263,-0.0463,-0.1098,-0.113,-0.1886,-0.2984,-0.2154,-0.2039,-0.2336,0.0,0.0,0.0,0.0,0.0,0.0,0.0,0.0,0.0,0.0,1.04,1.0437,1.0224,1.0622,1.0765,0.0,0.0,0.0,0.0,0.0,0.0,0.0,0.0,0.0,0.0,1.3279,1.3457,1.3457,1.316,1.2754,1.215,1.1332,1.073,1.0324,0.9636,0.9231,0.0,0.0,0.0,0.0,0.0,0.0,0.0,0.0,0.0,0.0,1.2088,1.3494,0.0,0.0,0.0,0.0,0.0,0.0,0.0,0.0,2.4724,2.5799,2.5765,0.0,2.6639,2.6925,2.5721,2.4318,0.0,2.2576,2.1044,1.9683,1.843,1.7149,1.5781,1.3555,1.2424,1.3981,1.2138,1.0099,0.8879,0.8905,0.9906,1.2251,1.3117,1.2785,1.0978,0.8943,0.7419,0.658,0.5631,0.4721,0.3917,0.3585,0.3374,0.3294,0.291,0.28,0.297,0.2519,0.2336,0.2472,0.1781,0.1266,0.0884,0.0831,0.0601,0.0306,0.0682,0.063,0.0192,0.0065,-0.0455,-0.1101,-0.1131,-0.1294,-0.1667,-0.2169,-0.2376,-0.246,0.0,0.0,0.0,0.0,0.0,0.0,0.0,0.0,0.0,0.0,1.0361,1.04,1.0257,1.0478,1.0649,0.0,0.0,0.0,0.0,0.0,0.0,0.0,0.0,0.0,1.2483,1.2609,1.2675,1.2667,1.1974,1.1447,1.1008,0.9795,0.909,0.8792,0.7979,0.757,0.0,0.0,0.0,0.0,0.7886,0.0,0.0,0.0,0.0,0.0,1.1078,1.2419,0.0,1.5621,1.7125,1.8472,0.0,0.0,0.0,0.0,2.3483,2.4392,2.4908,2.559,2.6218,2.6298,2.4991,2.3585,2.3054,2.1723,2.012,1.844,1.705,1.5697,1.4082,1.1893,1.057,1.1389,0.9275,0.671,0.4419,0.522,0.6998,0.9626,0.9848,0.9745,0.0,0.7818,0.6129,0.5065,0.4484,0.3896,0.3229,0.3009,0.2895,0.2896,0.2554,0.2465,0.2691,0.2242,0.2109,0.2294,0.1678,0.1159,0.0767,0.0607,0.0431,0.0185,0.0501,0.0577,0.0461,0.013,-0.0456,-0.1123,-0.1153,-0.1384,-0.1758,-0.2163,-0.2369,-0.2506,0.0,0.0,0.0,0.0,0.0,0.0,0.0,0.0,0.0,0.0,0.0,0.0,0.0,0.0,0.0,0.0,0.0,0.0,0.0,0.0,0.0,0.0,0.0,1.1957,1.1875,1.1816,1.1714,1.1585,1.0529,1.0019,0.9923,0.8306,0.7516,0.7395,0.6639,0.6269,0.0,0.0,0.0,0.0,0.8134,0.0,0.0,0.0,0.0,0.0,0.0,0.0,0.0,1.4573,1.6074,1.7487,1.8903,0.0,0.0,0.0,0.0,0.0,2.3781,2.4503,2.4943,2.4597,2.3444,2.2191,2.1492,2.0128,1.8464,1.6677,1.5145,1.3613,1.1974,0.9545,0.7882,0.8238,0.5499,0.2772,0.1232,0.1275,0.233,0.4624,0.5174,0.0,0.6656,0.6237,0.5125,0.3197,0.3183,0.3083,0.2569,0.2458,0.244,0.2468,0.2208,0.2128,0.2298,0.202,0.1822,0.175,0.1286,0.0879,0.059,0.0125,0.0063,0.0249,0.0,0.0,0.1009,0.0327,-0.046,-0.1082,-0.1249,-0.1757,-0.2485,-0.2235,-0.228,-0.2523,0.0,0.0,0.0,0.0,0.0,0.0,0.0,0.0,0.0,0.0,0.0,0.0,0.0,0.0,0.0,0.0,0.0,0.0,0.0,0.0,0.0,0.0,1.1041,1.0836,1.0416,1.0894,1.0681,0.9782,0.913,0.8475,0.781,0.6482,0.5667,0.5375,0.51,0.5038,0.5128,0.0,0.0,0.0,0.7131,0.0,0.0,0.0,0.0,0.0,0.0,0.0,0.0,1.4641,1.5562,1.6071,1.833,0.0,0.0,0.0,0.0,0.0,2.2322,2.2425,2.2441,2.2701,2.1421,1.9782,1.847,1.6709,1.5324,1.5323,1.3956,1.2563,1.1744,0.7449,0.4833,0.7335,0.2766,-0.0313,0.2074,-0.0298,-0.0149,0.5623,0.0,0.3777,0.5025,0.349,0.2366,0.226,0.2027,0.1898,0.1879,0.1697,0.1623,0.1724,0.1567,0.1458,0.1458,0.1853,0.18,0.1239,0.0508,0.0057,-0.0176,-0.0611,-0.0629,-0.0257,0.0,0.0328,0.0875,0.0261,-0.046,-0.1082,-0.1249,-0.1777,-0.2477,-0.2175,-0.2302,-0.2577,0.0,0.0,0.0,0.0,0.0,0.0,0.0,0.0,0.0,0.0,0.0,0.0,0.0,0.0,0.0,0.0,0.0,0.0,0.0,0.0,0.0,1.0202,0.9874,0.9856,1.0101,1.0034,0.9443,0.8242,0.7486,0.6788,0.618,0.5363,0.4793,0.4554,0.4732,0.4741,0.4532,0.4946,0.5715,0.6676,0.0,0.0,0.0,0.0,0.0,0.0,0.0,0.0,0.0,0.0,1.4907,1.5069,1.7109,0.0,0.0,0.0,0.0,0.0,2.0507,2.074,2.0764,2.0559,1.8967,1.6845,1.4627,1.2392,1.0654,1.0093,0.8706,0.7451,0.6893,0.4958,0.2936,0.1475,-0.2908,-0.5819,-0.4903,-0.55,-0.4226,0.0,0.0,-0.0083,0.2506,0.1126,0.0314,0.0827,0.0723,0.074,0.105,0.1007,0.1086,0.1308,0.1111,0.0954,0.0954,0.1178,0.1121,0.0728,0.0168,-0.0226,-0.0517,-0.0785,-0.0809,-0.0694,0.0,-0.0655,-0.0739,-0.0196,-0.0459,-0.1082,-0.1198,-0.1659,-0.22,-0.2439,-0.2644,-0.2902,0.0,0.0,0.0,0.0,0.0,0.0,0.0,0.0,0.0,0.0,0.0,0.0,0.0,0.0,0.0,0.0,0.0,0.0,0.0,0.0,0.9502,0.9316,0.8912,0.8937,0.9423,0.8973,0.8146,0.6878,0.6036,0.5332,0.4853,0.4556,0.4465,0.4603,0.51,0.5159,0.4865,0.5363,0.6113,0.707,0.0,0.0,0.0,0.0,0.0,0.0,0.0,0.0,0.0,0.0,0.0,0.0,0.0,0.0,0.0,1.6992,1.7578,1.8101,1.868,1.8809,1.8599,1.7926,1.6568,1.4774,1.2226,0.9121,0.6545,0.5584,0.4067,0.2685,0.1853,0.2022,0.0395,-0.5429,-0.7811,-0.9312,-1.0529,-0.9632,-0.7546,-0.4049,-0.4192,-0.3433,-0.0515,-0.1009,-0.1389,-0.1042,-0.0681,-0.0371,-0.0146,0.0201,0.0571,0.0915,0.0664,0.0561,0.0617,0.0449,0.028,0.0112,-0.0224,-0.0565,-0.0863,-0.0967,-0.1058,-0.1199,-0.1225,-0.1581,-0.2084,-0.0992,-0.0865,-0.1365,-0.1289,-0.1537,-0.1998,-0.2627,-0.2904,-0.3141,0.0,0.0,0.0,0.0,0.0,0.0,0.0,0.0,0.0,0.0,0.0,0.0,0.0,0.0,0.0,0.0,0.0,0.0,0.0,0.0,0.8909,0.8774,0.8547,0.8135,0.7524,0.748,0.6842,0.5651,0.5075,0.4467,0.3824,0.4072,0.4751,0.5712,0.6192,0.6493,0.6639,0.6936,0.7484,0.8164,0.8337,0.0,0.0,0.0,0.0,0.0,0.0,0.0,0.0,0.0,0.0,0.0,0.0,0.0,1.4567,1.6067,1.6621,1.6783,1.709,1.62,1.5011,1.4394,1.4611,1.462,1.3265,0.8408,0.429,0.4683,0.2923,0.0774,-0.0883,-0.1424,-0.4029,-1.15,-0.9477,-0.7501,-0.9175,0.0,-0.8491,-0.4767,-0.4813,-0.4839,-0.4001,-0.2984,-0.2685,-0.3413,-0.2087,-0.1469,-0.1996,-0.0899,-0.0054,0.0335,0.0056,0.0056,0.0393,-0.0,-0.0393,-0.0617,-0.0954,-0.1217,-0.1474,-0.1419,-0.1528,-0.1738,-0.1608,-0.1813,-0.2225,-0.2072,-0.2094,-0.2104,-0.1732,-0.1777,-0.2124,-0.2644,-0.2904,-0.3219,0.0,0.0,0.0,0.0,0.0,0.0,0.0,0.0,0.0,0.0,0.0,0.0,0.0,0.0,0.0,0.0,0.0,0.0,0.0,0.0,0.8543,0.8054,0.8054,0.7685,0.681,0.7122,0.6706,0.5425,0.4634,0.4314,0.4447,0.4918,0.5493,0.6142,0.6529,0.6365,0.5653,0.5344,0.5479,0.5911,0.6091,0.7026,0.0,0.0,0.0,0.0,0.0,0.0,0.0,0.0,1.2502,1.2132,1.3591,1.3879,1.3873,1.4922,1.5384,1.5731,1.6373,1.5686,1.5114,1.6474,1.3334,0.9582,0.8222,0.361,-0.0693,-0.1826,-0.3951,-0.5395,-0.4637,-0.6748,-0.9193,-1.0969,-1.0687,-1.0565,-1.1601,-1.0685,-0.9374,-0.7828,-0.686,-0.5898,-0.4837,-0.3887,-0.3249,-0.311,-0.2173,-0.1567,-0.154,-0.1065,-0.0649,-0.028,-0.0561,-0.0561,-0.0224,-0.063,-0.0752,-0.0521,-0.0868,-0.1126,-0.1361,-0.1699,-0.1733,-0.1639,-0.187,-0.2085,-0.2224,-0.2179,-0.221,-0.2184,-0.2424,-0.2501,-0.2558,-0.3049,-0.3294,-0.345,0.0,0.0,0.0,0.0,0.0,0.0,0.0,0.0,0.0,0.0,0.0,0.0,0.0,0.0,0.0,0.0,0.0,0.0,0.8415,0.8468,0.8178,0.7568,0.7736,0.7508,0.6781,0.7237,0.692,0.5745,0.5105,0.4888,0.5097,0.5681,0.6237,0.6773,0.7012,0.6667,0.5931,0.5218,0.4848,0.4785,0.4954,0.5642,0.0,0.0,0.0,0.0,0.0,0.0,0.0,0.0,1.1531,1.1314,1.2298,1.28,1.3102,1.3711,1.4294,1.4826,1.4943,1.4612,1.4198,1.4301,0.9778,0.4832,0.3156,-0.0499,-0.4122,-0.6096,-0.8723,-1.0211,-0.8604,-1.0686,-1.2527,-1.2063,-1.1841,-1.2094,-1.3,-1.1202,-0.9628,-0.9093,-0.7785,-0.6406,-0.5105,-0.4326,-0.3686,-0.3069,-0.246,-0.1928,-0.1618,-0.1353,-0.1095,-0.0784,-0.1122,-0.1122,-0.0617,-0.0928,-0.077,-0.0299,-0.0302,-0.0553,-0.1129,-0.147,-0.1555,-0.1569,-0.2002,-0.2154,-0.2088,-0.2312,-0.2426,-0.2499,-0.3006,-0.3081,-0.295,-0.3439,-0.3604,-0.3684,0.0,0.0,0.0,0.0,0.0,0.0,0.0,0.0,0.0,0.0,0.0,0.0,0.0,0.0,0.0,0.0,0.0,0.0,0.8209,0.807,0.7821,0.7412,0.7587,0.7628,0.7419,0.7753,0.7433,0.6506,0.6506,0.6174,0.5518,0.622,0.693,0.7704,0.7597,0.7757,0.7987,0.722,0.6349,0.5497,0.552,0.5632,0.5642,0.0,0.0,0.0,0.0,0.0,0.0,0.0,0.9984,1.0308,1.0922,1.1519,1.2157,1.2415,1.3344,1.3956,1.2457,1.2444,1.1631,0.6371,0.3386,0.1142,-0.1136,-0.3316,-0.5294,-0.6921,-1.0236,-1.2771,-1.2629,-1.2775,0.0,-1.5847,-1.2939,-1.1022,-1.2693,-1.1006,-0.9163,-0.7963,-0.7197,-0.6316,-0.5129,-0.4517,-0.4087,-0.381,-0.3129,-0.2694,-0.2674,-0.1961,-0.1403,-0.1234,-0.1572,-0.1459,-0.0729,-0.0696,-0.0479,-0.0124,0.0701,0.0452,-0.0711,-0.0711,-0.1049,-0.1614,-0.2018,-0.2087,-0.1956,-0.2499,-0.285,-0.3076,-0.3625,-0.3484,-0.3113,-0.3575,-0.3841,-0.3919,0.0,0.0,0.0,0.0,0.0,0.0,0.0,0.0,0.0,0.0,0.0,0.0,0.0,0.0,0.0,0.0,0.0,0.0,0.8561,0.8283,0.8036,0.7821,0.7863,0.7821,0.7628,0.8152,0.8144,0.7474,0.7049,0.6755,0.6556,0.6867,0.7,0.6966,0.6694,0.6133,0.5452,0.4703,0.3851,0.2999,0.3015,0.2662,0.2245,0.0,0.0,0.0,0.0,0.0,0.0,0.0,0.0,0.0,1.0328,1.0364,1.0499,1.1798,1.1791,1.1016,0.916,0.9897,0.9849,0.4233,0.0764,-0.2387,-0.652,-0.6895,-0.7373,-1.1081,-1.4135,-1.5142,-1.1986,-1.3485,0.0,-1.5837,-1.4369,-1.3097,-1.2994,-1.1367,-0.9867,-0.9141,-0.7771,-0.656,-0.5779,-0.4779,-0.4076,-0.3845,-0.3028,-0.2435,-0.2068,-0.185,-0.1572,-0.129,-0.1628,-0.1646,-0.1336,-0.12,-0.099,-0.0829,-0.0591,-0.0466,-0.0532,-0.0532,-0.0934,-0.1749,-0.1884,-0.2018,-0.2161,-0.2972,-0.3403,-0.3732,-0.4004,-0.4059,-0.4033,-0.4139,-0.4229,-0.4318,0.0,0.0,0.0,0.0,0.0,0.0,0.0,0.0,0.0,0.0,0.0,0.0,0.0,0.0,0.0,0.0,0.0,0.0,0.0,0.8332,0.8126,0.8021,0.807,0.807,0.8036,0.848,0.8521,0.816,0.7979,0.7648,0.716,0.7416,0.7192,0.6613,0.6165,0.5401,0.4409,0.353,0.269,0.1885,0.1806,0.1255,0.0463,0.0,0.0,0.0,0.0,0.0,0.0,0.0,0.0,0.0,0.9799,0.9977,1.0106,1.0108,0.953,0.8475,0.6767,0.6849,0.6347,0.2107,-0.0774,-0.4103,-1.0251,-0.9654,-0.9423,-1.5187,-1.6243,-1.537,-1.2824,-1.4585,0.0,-1.5891,-1.5246,-1.4367,-1.315,-1.1412,-0.998,-0.9293,-0.7959,-0.6765,-0.5926,-0.5019,-0.4291,-0.3744,-0.3074,-0.2406,-0.1846,-0.1625,-0.1459,-0.129,-0.1515,-0.1655,-0.1591,-0.1399,-0.1255,-0.1034,-0.0864,-0.0741,-0.074,-0.0673,-0.1009,-0.1615,-0.1907,-0.2203,-0.251,-0.3056,-0.355,-0.4008,-0.4171,-0.4311,-0.4384,-0.4616,-0.4646,-0.4772,0.0,0.0,0.0,0.0,0.0,0.0,0.0,0.0,0.0,0.0,0.0,0.0,0.0,0.0,0.0,0.0,0.0,0.0,0.0,0.0,0.8167,0.8021,0.816,0.8291,0.848,0.8635,0.8594,0.8439,0.8879,0.8569,0.7504,0.778,0.7424,0.655,0.5959,0.5327,0.4584,0.3515,0.262,0.1831,0.1756,0.1091,0.0064,-0.0,0.0,0.0,0.0,0.0,0.0,0.0,0.0,0.0,0.9302,0.9938,1.0264,0.8197,0.7243,0.6655,0.5355,0.3452,0.1409,-0.0306,-0.1951,-0.5005,-1.192,-1.1206,-1.1228,-1.8655,-1.7149,-1.4529,-1.4726,-1.5916,-1.6585,-1.5743,-1.5497,-1.4763,-1.3102,-1.113,-0.9525,-0.8648,-0.768,-0.6728,-0.5675,-0.5131,-0.446,-0.3638,-0.3132,-0.2571,-0.1847,-0.1401,-0.1234,-0.1178,-0.1351,-0.1433,-0.148,-0.1405,-0.1259,-0.0908,-0.0531,-0.0605,-0.1076,-0.101,-0.1146,-0.1352,-0.2012,-0.2562,-0.2992,-0.3069,-0.3404,-0.4015,-0.4196,-0.4311,-0.4462,-0.4849,-0.5083,-0.5347,0.0,0.0,0.0,0.0,0.0,0.0,0.0,0.0,0.0,0.0,0.0,0.0,0.0,0.0,0.0,0.0,0.0,0.0,0.0,0.0,0.8258,0.8324,0.8332,0.8406,0.8521,0.8521,0.839,0.8103,0.8323,0.8367,0.8252,0.7657,0.7263,0.7031,0.6143,0.5489,0.4912,0.4056,0.3178,0.223,0.1897,0.143,0.0809,0.0188,0.0189,0.0,0.0,0.0,0.0,0.0,0.0,0.0,0.8671,0.8449,0.844,0.9331,0.8783,0.7462,0.5478,0.0472,-0.409,-0.3935,-0.6533,-0.8794,-0.7516,-0.8699,-1.1814,-1.8072,-1.8123,-1.6871,-1.622,-1.6362,-1.6113,-1.4607,-1.3943,-1.3208,-1.222,-1.0084,-0.8497,-0.8105,-0.66,-0.5575,-0.5586,-0.4772,-0.3965,-0.3469,-0.2912,-0.2298,-0.1682,-0.1515,-0.1347,-0.1178,-0.0978,-0.0829,-0.0734,-0.1135,-0.1038,0.0,-0.0804,-0.1008,-0.1076,-0.0471,-0.068,-0.1599,-0.2234,-0.2915,-0.3433,-0.3517,-0.3929,-0.4468,-0.4578,-0.4701,-0.4859,-0.4935,-0.541,-0.5925,0.0,0.0,0.0,0.0,0.0,0.0,0.0,0.0,0.0,0.0,0.0,0.0,0.0,0.0,0.0,0.0,0.0,0.0,0.0,0.0,0.8085,0.8167,0.8324,0.8406,0.8365,0.8439,0.8357,0.8021,0.8055,0.8092,0.8024,0.7465,0.6976,0.6515,0.594,0.5311,0.4743,0.4358,0.3707,0.2923,0.243,0.1985,0.1509,0.0675,0.0803,0.148,0.1848,0.0,0.0,0.0,0.0,0.0,0.0,0.0,0.8326,0.9257,0.8996,0.8352,0.8006,0.32,-0.1764,-0.2123,-0.4071,-0.5051,-0.1789,-0.7067,-1.3222,-1.5098,-1.4984,-1.4882,-1.5964,-1.5203,-1.4373,-1.4227,-1.2539,-1.114,-1.0876,-0.9188,-0.7878,-0.7482,-0.612,-0.519,-0.5148,-0.4405,-0.3747,-0.3363,-0.28,-0.2242,-0.1741,-0.1515,-0.1234,-0.0842,-0.0637,-0.0658,-0.0803,-0.0636,-0.0589,-0.0672,-0.0941,-0.1076,-0.1076,-0.0818,-0.1114,-0.1859,-0.2459,-0.2952,-0.3404,-0.3751,-0.4153,-0.4538,-0.4675,-0.4854,-0.501,-0.5249,-0.5486,-0.5755,0.0,0.0,0.0,0.0,0.0,0.0,0.0,0.0,0.0,0.0,0.0,0.0,0.0,0.0,0.0,0.0,0.0,0.0,0.0,0.0,0.0,0.7829,0.8111,0.8193,0.8044,0.8193,0.8054,0.7641,0.7781,0.7558,0.6952,0.7145,0.6747,0.5891,0.5636,0.5179,0.4613,0.4489,0.4161,0.3767,0.3092,0.2615,0.2222,0.1562,0.1638,0.2123,0.2184,0.3583,0.5397,0.4752,0.0,0.0,0.0,0.0,0.8383,0.8495,0.8507,0.8751,1.0115,0.6588,0.2066,-0.0,-0.1266,-0.0986,0.2763,-0.547,-1.3384,-1.1544,-1.1092,-1.1711,-1.3999,-1.2477,-1.1487,-1.3379,-1.1012,-0.902,-0.9321,-0.8411,-0.7398,-0.6678,-0.5715,-0.5012,-0.462,-0.4094,-0.3613,-0.3198,-0.2635,-0.2074,-0.1572,-0.1467,-0.1075,-0.0339,-0.0117,-0.0243,-0.0622,-0.0257,-0.0263,-0.0807,-0.1008,-0.1076,-0.1077,-0.1314,-0.1636,-0.2119,-0.2607,-0.2981,-0.3297,-0.3921,-0.4231,-0.4462,-0.4698,-0.4854,-0.5007,-0.5323,-0.5477,-0.558,0.0,0.0,0.0,0.0,0.0,0.0,0.0,0.0,0.0,0.0,0.0,0.0,0.0,0.0,0.0,0.0,0.0,0.0,0.0,0.0,0.0,0.7454,0.7398,0.7398,0.7503,0.7321,0.6888,0.6246,0.6963,0.0,0.0,0.0,0.0,0.6406,0.5826,0.5577,0.5553,0.4443,0.4212,0.459,0.3819,0.3258,0.293,0.283,0.2437,0.1815,0.1758,0.334,0.5285,0.3969,0.5012,0.0,0.0,0.0,0.6651,0.7165,0.7464,0.7587,0.7639,0.4268,-0.0253,-0.4409,-0.6918,-0.6249,0.1755,-0.2536,-0.8532,-0.97,-1.0727,-1.092,-0.9245,-0.7295,-0.7025,-1.0407,-0.8837,-0.7323,-0.7674,-0.7676,-0.7048,-0.5452,-0.482,-0.4432,-0.4098,-0.3809,-0.3371,-0.2798,-0.2244,-0.1458,-0.0561,-0.1269,-0.1171,-0.0,0.0868,0.128,0.1221,-0.0198,-0.0537,0.0269,-0.0672,-0.1076,-0.1077,-0.1314,-0.1779,-0.2482,-0.2706,-0.3158,-0.3763,-0.4151,-0.4465,-0.4698,-0.4859,-0.4937,-0.5015,-0.4857,-0.5323,-0.5894,0.0,0.0,0.0,0.0,0.0,0.0,0.0,0.0,0.0,0.0,0.0,0.0,0.0,0.0,0.0,0.0,0.0,0.0,0.0,0.0,0.0,0.6732,0.6761,0.6797,0.6768,0.6761,0.6628,0.6452,0.6965,0.0,0.0,0.6735,0.6066,0.0,0.0,0.4542,0.4554,0.4171,0.4317,0.4707,0.4087,0.3417,0.2726,0.2666,0.2237,0.1734,0.1118,0.2312,0.3934,0.2914,0.3652,0.5158,0.5894,0.0,0.0,0.0,0.6162,0.6471,0.632,0.4812,0.2099,-0.2845,-0.5199,-0.5533,-0.2565,-0.1464,-0.1861,-0.4516,-0.5697,-0.5855,-0.4521,-0.5262,-0.6417,-0.7234,-0.6175,-0.5499,-0.6339,-0.6158,-0.5606,-0.4689,-0.4084,-0.3639,-0.3439,-0.304,-0.2763,-0.2691,-0.2133,-0.1131,0.0403,0.0468,0.0354,0.0118,0.0877,0.109,0.0693,-0.0066,-0.0472,-0.0404,-0.0876,-0.1078,-0.1078,-0.1363,-0.1739,-0.2216,-0.2795,-0.324,-0.354,-0.4053,-0.4387,-0.4543,-0.4779,-0.4935,-0.501,-0.501,-0.5433,-0.5868,0.0,0.0,0.0,0.0,0.0,0.0,0.0,0.0,0.0,0.0,0.0,0.0,0.0,0.0,0.0,0.0,0.0,0.0,0.0,0.0,0.0,0.6099,0.6231,0.6231,0.6044,0.6161,0.6283,0.641,0.0,0.0,0.6752,0.6974,0.5635,0.0,0.349,0.3771,0.0,0.0,0.3914,0.4426,0.3737,0.3047,0.2397,0.1798,0.155,0.1396,0.0223,0.0836,0.2125,0.152,0.1961,0.306,0.4458,0.4549,0.0,0.0,0.0,0.537,0.579,0.6067,0.5514,0.2423,0.0048,-0.2141,-0.4602,-0.1593,0.1172,-0.0744,-0.146,-0.1595,-0.1214,-0.3869,-0.6063,-0.5777,-0.4861,-0.4345,-0.4762,-0.432,-0.3935,-0.3873,-0.2998,-0.2516,-0.2767,-0.1945,-0.15,-0.1789,-0.1346,-0.0397,0.1278,0.1892,0.1669,0.0536,0.0886,0.084,0.0316,0.0066,-0.027,-0.0809,-0.0809,-0.0944,-0.1079,-0.1346,-0.1632,-0.2019,-0.286,-0.3236,-0.3338,-0.396,-0.4233,-0.4384,-0.4623,-0.4776,-0.4849,-0.5087,-0.5318,-0.5547,0.0,0.0,0.0,0.0,0.0,0.0,0.0,0.0,0.0,0.0,0.0,0.0,0.0,0.0,0.0,0.8013,0.0,0.0,0.0,0.0,0.0,0.5841,0.5839,0.0,0.5376,0.5371,0.5361,0.0,0.0,0.0,0.5638,0.7127,0.6492,0.4093,0.3778,0.4016,0.4618,0.0,0.0,0.3826,0.2276,0.1898,0.2116,0.0367,0.0161,0.0556,-0.1108,-0.0996,-0.0056,-0.0346,-0.0,0.0776,0.2136,0.2398,0.2221,0.0,0.0,0.0,0.6142,0.7431,0.8856,1.1481,0.8241,0.3268,-0.136,-0.2941,-0.2844,-0.0801,-0.0436,-0.0472,-0.0376,-0.2248,-0.4663,-0.7332,-0.618,-0.4357,-0.2635,-0.2361,-0.241,-0.2565,-0.1167,-0.0696,-0.2112,-0.0455,0.0729,0.0723,0.0728,0.1178,0.2077,0.2203,0.1967,0.1536,0.1238,0.1074,0.1074,0.0337,-0.0,-0.0067,-0.0067,-0.0404,-0.1079,-0.1144,-0.1413,-0.1961,-0.2855,-0.3259,-0.3338,-0.4112,-0.4309,-0.4157,-0.4781,-0.4779,-0.4462,-0.4621,-0.4851,-0.5004,0.0,0.0,0.0,0.0,0.0,0.0,0.0,0.0,0.0,0.0,0.0,0.0,0.0,0.769,0.7356,0.6774,0.6929,0.0,0.0,0.0,0.0,0.5496,0.54,0.5193,0.4845,0.5024,0.0,0.0,0.0,0.7155,0.7437,0.8319,0.8351,0.7558,0.5355,0.4136,0.3676,0.2386,0.0,0.0,0.0,0.1394,0.0,0.0,0.0,0.0,0.0,0.0,-0.2697,-0.2834,-0.3112,-0.3025,-0.0784,-0.0226,-0.0,0.1603,0.2815,0.3951,0.5379,0.6092,0.7362,1.1388,0.7759,0.3949,0.6609,0.2503,-0.1268,0.1021,0.0847,0.0195,-0.0,-0.1204,-0.2409,-0.3157,-0.2573,-0.1873,-0.1293,-0.0979,-0.0712,-0.049,0.0365,0.0807,0.065,0.1492,0.2075,0.2058,0.2071,0.2453,0.3325,0.2796,0.2484,0.2342,0.1977,0.1548,0.1077,0.0809,0.0674,0.0674,0.0202,-0.0404,-0.1079,-0.1077,-0.1344,-0.1754,-0.242,-0.293,-0.3261,-0.3778,-0.4077,-0.4157,-0.4314,-0.4543,-0.4771,-0.4698,-0.5087,-0.555,0.0,0.0,0.0,0.0,0.0,0.0,0.0,0.0,0.0,0.0,0.0,0.0,0.0,0.0,0.7048,0.6526,0.6384,0.635,0.6354,0.6432,0.6134,0.5415,0.5181,0.4972,0.4772,0.0,0.0,0.0,0.0,0.0,0.0,0.9406,0.9828,0.9905,0.7543,0.5874,0.0,0.0,0.0,0.3428,0.0,0.0,-0.0436,0.0,0.0,0.0,0.0,0.0,0.0,-0.5408,-0.573,-0.5656,-0.3403,-0.2183,-0.1331,0.0345,0.1625,0.0,0.3436,0.3807,0.4817,0.839,0.6571,0.4968,0.8992,0.638,0.3096,0.2958,0.2233,0.1436,0.0717,0.0229,-0.0,0.0223,0.067,0.0804,0.0445,0.0712,0.1164,0.1635,0.1816,0.2175,0.2902,0.2982,0.3069,0.3287,0.3677,0.0,0.4174,0.3894,0.3418,0.254,0.233,0.1817,0.1076,0.1077,0.1078,0.1078,0.0606,-0.0,-0.0742,-0.074,-0.1014,-0.1436,-0.1787,-0.233,-0.3072,-0.3613,-0.3765,-0.3767,-0.4155,-0.4387,-0.4618,-0.4857,-0.5246,-0.5634,0.0,0.0,0.0,0.0,0.0,0.0,0.0,0.0,0.0,0.0,0.0,0.0,0.0,0.0,0.0,0.7402,0.6777,0.6458,0.6583,0.6579,0.6255,0.5609,0.0,0.0,0.0,0.0,0.0,0.0,0.0,0.0,0.0,0.0,1.0805,1.0805,1.022,0.9319,0.8076,0.0,0.5371,0.4617,0.0,-0.0046,-0.119,0.0,0.0,0.0,-0.73,-0.7857,0.0,-0.8066,0.0,0.0,0.0,0.0,0.0,0.0,0.0,0.0,0.0,0.0,0.0,0.2958,0.5211,0.6619,0.5008,0.7976,0.9673,0.4825,0.3726,0.3213,0.1861,0.2071,0.2426,0.2243,0.2965,0.3322,0.264,0.2734,0.305,0.3551,0.3272,0.3417,0.4473,0.402,0.3921,0.4522,0.5677,0.5843,0.4649,0.5439,0.4761,0.2336,0.2214,0.1884,0.1143,0.1143,0.1143,0.1143,0.1143,0.074,-0.0,-0.0,-0.041,-0.1051,-0.1079,-0.1673,-0.2628,-0.3457,-0.353,-0.3219,-0.4153,-0.4231,-0.3921,-0.5021,-0.5249,-0.5176,0.0,0.0,0.0,0.0,0.0,0.0,0.9191,0.0,0.0,0.0,0.0,0.0,0.0,0.0,0.6948,0.7032,0.6411,0.6126,0.6315,0.6013,0.5582,0.505,0.4701,0.4435,0.4318,0.0,0.0,0.0,0.0,0.0,0.0,0.0,0.0,0.0,1.1402,1.1095,1.0204,0.7134,0.0,0.3623,0.1988,-0.0046,0.0,0.0,0.0,0.0,0.0,-0.779,-0.8006,0.0,-0.9182,-0.8508,0.0,0.0,0.0,0.0,0.0,0.0,-0.213,0.0,0.0,0.0,0.0,0.0,0.3454,0.5436,0.72,0.674,0.4232,0.2036,0.1854,0.174,0.1828,0.226,0.2765,0.3138,0.3265,0.2887,0.2993,0.4008,0.4829,0.5408,0.5679,0.5588,0.5575,0.0,0.6176,0.6294,0.5871,0.5915,0.5212,0.3774,0.2722,0.2083,0.1884,0.1345,0.1345,0.1884,0.1344,0.1008,0.0807,0.0472,-0.0068,-0.0683,-0.0841,-0.1062,-0.1352,-0.2595,-0.3061,-0.2982,-0.3528,-0.3995,-0.4309,-0.4701,-0.5326,-0.5951,0.0,0.0,0.0,0.0,0.0,0.8162,0.8431,0.8177,0.8088,0.0,0.0,0.0,0.0,0.0,0.0,0.6646,0.6233,0.5873,0.5677,0.5624,0.5271,0.4399,0.4452,0.4383,0.4239,0.0,0.0,0.0,0.0,0.0,0.0,0.0,0.0,0.0,0.0,0.0,0.0,0.0,0.0,0.0,0.2495,0.0,0.0,-0.3678,-0.5063,0.0,0.0,0.0,-0.8966,-0.9904,-1.0165,0.0,0.0,0.0,0.0,0.0,0.0,0.0,0.0,0.0,0.0,0.0,0.0,0.0,0.1252,0.2975,0.4669,0.0,0.4492,0.282,0.256,0.2647,0.2708,0.2605,0.3416,0.3932,0.3486,0.356,0.3832,0.4338,0.5675,0.6592,0.6592,0.6567,0.6465,0.6237,0.6497,0.6653,0.6542,0.6083,0.5516,0.4793,0.3365,0.2894,0.3499,0.2466,0.2214,0.2624,0.2016,0.1613,0.1277,0.074,0.0203,-0.0343,-0.0766,-0.0987,-0.1073,-0.2344,-0.2706,-0.2553,-0.3357,-0.3917,-0.4382,-0.4854,-0.5556,-0.6355,0.0,0.0,0.8547,0.837,0.7795,0.7509,0.8013,0.7724,0.7641,0.0,0.0,0.0,0.0,0.0,0.0,0.0,0.5873,0.5413,0.459,0.5038,0.4812,0.3566,0.4069,0.4319,0.42,0.2813,0.0,0.0,0.0,0.0,0.0,0.0,0.0,0.0,0.0,0.0,0.0,0.0,0.0,0.5072,0.2888,0.0432,0.0,0.0,-0.596,-0.7448,-0.8199,-0.9146,-1.0052,-1.0194,-1.061,0.0,0.0,0.0,0.0,0.0,-0.5471,0.0,0.0,0.0,0.0,0.0,-0.5185,0.0,-0.1244,0.0641,0.2312,0.0,0.4195,0.4066,0.3408,0.3985,0.4191,0.3028,0.4328,0.4969,0.3435,0.4347,0.5036,0.4747,0.6027,0.6995,0.7189,0.7164,0.6939,0.6426,0.6834,0.707,0.6957,0.6328,0.5783,0.5404,0.4151,0.4157,0.5477,0.4132,0.3449,0.3462,0.3006,0.2341,0.154,0.1007,0.0409,-0.0209,-0.0837,-0.1273,-0.1594,-0.2533,-0.2565,-0.2121,-0.3339,-0.3995,-0.4382,-0.5165,-0.5789,-0.645,0.0,0.0,0.8381,0.7457,0.7141,0.707,0.7349,0.7196,0.7286,0.0,0.0,0.0,0.0,0.0,0.0,0.0,0.4002,0.3078,0.2439,0.2493,0.2272,0.167,0.227,0.2336,0.1696,0.1792,0.2307,0.0,0.0,0.0,0.0,0.0,0.0,0.0,0.0,0.0,0.0,0.0,0.0,0.3536,0.2221,-0.0089,-0.2856,-0.4188,-0.575,-0.7314,-0.7928,-0.8575,-0.9116,-0.9362,-1.0046,-1.0398,0.0,0.0,0.0,-0.6446,0.0,0.0,0.0,0.0,0.0,0.0,-0.5618,0.0,-0.3255,-0.1133,0.0819,0.2236,0.1578,0.1094,0.2223,0.3627,0.4241,0.3086,0.3773,0.4199,0.3375,0.416,0.5083,0.5798,0.5932,0.6426,0.7641,0.7532,0.743,0.7419,0.8051,0.8259,0.7892,0.7675,0.6881,0.5351,0.5531,0.5832,0.6189,0.5377,0.4954,0.4967,0.3727,0.2402,0.117,0.1264,0.0674,-0.0474,-0.0881,-0.1429,-0.2128,-0.3092,-0.2893,-0.2121,-0.3496,-0.4233,-0.4621,-0.5473,-0.6096,-0.657,0.0,0.8102,0.7916,0.7225,0.7011,0.6943,0.693,0.6859,0.0,0.0,0.0,0.0,0.0,0.0,0.0,0.0,0.0,0.0,0.0,0.0862,0.0577,0.0447,0.0279,0.0277,0.049,0.0421,0.0918,0.1886,0.0,0.0,0.0,0.0,0.0,0.0,0.0,0.0,0.0,0.0,0.1898,-0.0093,0.0961,0.0,-0.2492,-0.3399,-0.4819,-0.6418,-0.6765,-0.756,-0.8474,-0.9024,-0.8971,0.0,-0.7801,-0.7573,-0.7312,0.0,-0.5931,-0.6276,0.0,0.0,0.0,-0.5466,0.0,0.0,0.0,-0.2082,-0.0055,0.049,0.0321,0.0739,0.2961,0.3029,0.2931,0.3357,0.3873,0.4131,0.3872,0.4679,0.5462,0.6134,0.6756,0.7304,0.785,0.8218,0.8385,0.8396,0.8757,0.8972,0.8943,0.864,0.792,0.6844,0.6823,0.6607,0.6319,0.5646,0.535,0.5373,0.3748,0.2199,0.0882,0.1151,0.0579,-0.058,-0.1177,-0.1842,-0.2515,-0.3538,-0.3661,-0.3196,-0.4397,-0.5165,-0.5715,-0.6251,-0.671,-0.7111,0.7809,0.7781,0.7558,0.7244,0.7178,0.7063,0.6768,0.6725,0.0,0.0,0.0,0.0,0.0,0.0,0.0,0.0,0.0,0.0,0.0,-0.0585,-0.0886,-0.0791,-0.1611,-0.1613,-0.062,-0.0984,-0.0641,0.0579,0.0,0.0,0.0,0.0,0.0,0.0,0.0,0.0,0.0,0.0,0.0,-0.3697,0.0,-0.1165,-0.3103,-0.3723,-0.4824,-0.607,-0.6062,-0.6894,-0.8108,-0.8828,-0.8294,-0.7356,-0.7402,-0.7001,0.0,0.0,0.0,0.0,0.0,0.0,0.0,0.0,0.0,-0.5458,0.0,0.0,0.0,-0.1441,-0.0759,0.0585,0.305,0.2027,0.1419,0.3184,0.0,0.0,0.0,0.5121,0.0,0.6076,0.7354,0.8359,0.8697,0.9247,0.952,0.9494,0.9618,0.9883,1.0208,0.9642,0.9097,0.8543,0.7949,0.7213,0.6402,0.5647,0.5299,0.5206,0.352,0.1946,0.0488,0.0736,0.0246,-0.0863,-0.1842,-0.251,-0.2974,-0.4194,-0.461,-0.4557,-0.5351,-0.6173,-0.6972,-0.7026,-0.7326,-0.7654,0.7281,0.7722,0.7678,0.7109,0.7444,0.7538,0.681,0.6755,0.0,0.0,0.0,0.0,0.0,0.0,0.0,0.0,0.0,0.0,-0.235,0.0,-0.2567,-0.2859,-0.3022,-0.3017,-0.2859,-0.2264,-0.1753,-0.1379,0.0,0.0,0.0,0.0,0.0,0.0,0.0089,0.0,0.0,0.0,-0.3791,0.0,-0.437,-0.5314,0.0,-0.7536,-0.7861,-0.8076,-0.7582,-0.7628,-0.7953,0.0,-0.924,-0.9735,0.0,-0.6624,-0.6321,-0.551,0.0,0.0,0.0,0.0,0.0,0.0,-0.6023,0.0,0.0,0.0,-0.4776,-0.3553,0.0,-0.189,-0.0333,0.0,0.0,0.0,0.2835,0.3685,0.3229,0.4731,0.5854,0.5747,0.6695,0.8491,1.1353,1.093,1.0557,1.0753,1.163,1.1994,1.1695,1.1256,1.0516,0.9288,0.8819,0.8078,0.7033,0.5853,0.5072,0.4587,0.3316,0.1768,0.0059,-0.0061,-0.0615,-0.1603,-0.3177,-0.3855,-0.3995,-0.52,-0.5589,-0.5474,-0.5682,-0.6637,-0.791,-0.7799,-0.7868,-0.8025,0.6282,0.6805,0.0,0.6238,0.6802,0.7027,0.6204,0.4952,0.0,0.0,0.0,0.0,0.0,0.0,0.0,0.0,0.0,-0.3691,0.0,0.0,0.0,-0.392,-0.4118,-0.4219,-0.4213,-0.3329,-0.2797,-0.2699,-0.2056,0.0,0.0,0.0,0.0,0.0,-0.3104,0.0,-0.7028,0.0,-0.7829,0.0,0.0,0.0,0.0,-0.757,-0.6597,-0.6606,-0.7195,-0.7331,-0.7236,0.0,-0.8337,0.0,0.0,0.0,0.0,-0.4898,0.0,0.0,0.0,0.0,0.0,0.0,0.0,0.0,-0.541,0.0,-0.549,0.0,0.0,0.0,0.0,0.0,0.0,0.0,0.1123,0.1883,0.0,0.0,0.5479,0.5607,0.0,0.0,1.2073,1.1141,1.1182,1.3097,1.3101,1.3095,1.3429,1.2486,1.1145,0.9617,0.9055,0.8237,0.7096,0.5931,0.4846,0.3974,0.278,0.0855,-0.1543,-0.1272,-0.1744,-0.2799,-0.3906,-0.4549,-0.4951,-0.6106,-0.6221,-0.5895,-0.6769,-0.7352,-0.7851,-0.8375,-0.876,-0.8865,0.4799,0.0,0.0,0.0,0.6039,0.6179,0.4687,0.2546,0.0,0.0,0.0,0.0,-0.3037,-0.3592,0.0,0.0,-0.4135,-0.4172,0.0,0.0,-0.4473,0.0,-0.4984,-0.5182,-0.5326,-0.4455,-0.403,-0.4086,-0.3482,0.0,0.0,0.0,0.0,0.0,0.0,-0.7107,-0.958,0.0,-1.0266,-1.2377,-1.083,-1.0334,-1.0178,-0.7414,-0.6034,-0.5681,-0.6493,-0.6484,-0.6149,-0.6264,-0.6838,0.0,-0.6388,0.0,-0.4601,0.0,0.0,0.0,-0.5004,0.0,0.0,0.0,0.0,0.0,0.0,0.0,0.0,0.0,0.0,0.0,0.0,0.0,-0.23,0.0,0.0,0.0469,0.0,0.3693,0.4868,0.5549,0.0,0.0,0.0,1.1771,1.2253,1.4987,1.4748,1.4593,1.4746,1.3214,1.1729,1.0448,0.9092,0.8117,0.7558,0.5732,0.4229,0.3074,0.173,-0.0446,-0.3195,-0.307,-0.3342,-0.4015,-0.472,-0.528,-0.5747,-0.6958,-0.7199,-0.6953,-0.782,-0.8258,-0.8486,-0.9467,-0.9876,-0.9916,0.2619,0.3511,0.0,0.0,0.5443,0.5096,0.2018,0.0,0.0,0.0,0.0,0.0,0.0,0.0,0.0,0.0,0.0,-0.4181,-0.3016,0.0,-0.4659,0.0,0.0,-0.5901,-0.6433,-0.59,-0.5687,-0.5735,-0.4921,0.0,0.0,0.0,0.0,0.0,-0.5779,-0.7026,-0.8202,-0.9024,-0.9747,-1.0264,-0.9662,-0.8343,-0.6811,0.0,-0.7822,-0.6698,-0.581,0.0,0.0,-0.4919,-0.4983,0.0,0.0,0.0,0.0,0.0,0.0,0.0,0.0,0.0,0.0,-0.5466,0.0,0.0,0.0,0.0,-0.7779,0.0,0.0,0.0,-0.4157,-0.3602,0.0,0.0,0.0,0.0,0.0,0.2761,0.4059,0.5449,0.7489,0.0,0.0,1.353,1.4146,0.0,1.6918,1.6869,1.5251,1.3338,1.2228,1.2102,0.9059,0.789,0.8754,0.5348,0.3058,0.1839,0.0056,-0.2063,-0.4497,-0.555,-0.5635,-0.4889,-0.5858,-0.6254,-0.6397,-0.77,-0.8709,-0.932,-0.8695,-0.9288,-1.0604,-1.1326,-1.137,-1.0995,0.0,0.0,0.0,0.0,0.0,0.0,0.0,-0.2379,0.0,0.0,-0.5741,0.0,0.0,-0.4641,-0.4363,0.0,0.0,-0.4028,-0.3671,-0.4181,0.0,0.0,0.0,-0.6256,0.0,-0.6332,-0.5985,-0.5918,-0.5455,0.0,0.0,0.0,0.0,0.0,0.0,-0.6758,0.0,0.0,0.0,0.0,0.0,-0.7688,-0.6344,0.0,-0.629,-0.5396,-0.521,-0.4709,0.0,-0.4502,-0.4478,-0.4351,-0.4445,-0.4369,-0.4254,-0.4369,-0.4522,0.0,0.0,0.0,-0.5567,-0.5681,0.0,0.0,0.0,0.0,0.0,0.0,0.0,0.0,0.0,0.0,0.0,0.0,0.0,0.0,0.0,0.25,0.3827,0.5013,0.7949,1.091,0.0,0.0,0.0,0.0,1.7396,0.0,1.5825,1.4825,1.3629,1.2192,0.8734,0.6123,0.447,0.3079,0.1389,-0.0642,-0.4367,-0.6352,-0.6765,-0.7133,-0.7106,-0.6789,-0.7638,-0.8165,-0.8522,-0.9588,-0.9969,-0.9895,-1.0697,-1.1961,-1.3203,-1.2953,-1.297,-1.2977,0.0101,0.0,0.0,0.0,0.0,0.0,0.0,0.0,0.0,0.0,-0.6772,0.0,-0.46,0.0,-0.3456,0.0,-0.3109,-0.3227,-0.3282,-0.3735,0.0,-0.5251,-0.5665,-0.6221,0.0,0.0,0.0,0.0,0.0,-0.5224,0.0,0.0,0.0,0.0,0.0,-0.5829,-0.6913,-0.812,-0.8881,0.0,0.0,-0.658,0.0,0.0,-0.487,-0.4554,0.0,-0.4304,-0.3705,-0.4007,-0.3979,-0.3838,-0.4085,-0.4036,-0.3907,-0.4128,-0.4353,-0.4577,-0.4794,-0.5179,0.0,-0.5513,-0.5814,0.0,-0.6588,0.0,-0.6604,0.0,0.0,0.0,0.0,0.0,0.0,0.0,0.0,0.0,0.0,0.2181,0.3449,0.4897,0.7373,0.9963,1.2547,1.3227,1.4078,1.5622,1.6396,1.6491,0.0,1.4585,1.3145,1.1393,0.7751,0.4333,0.1321,0.0639,-0.068,-0.2735,-0.6421,-0.8172,-0.8235,-0.8935,-0.895,-0.8488,-0.9166,-0.9825,-1.0401,-1.0755,-1.0941,-1.1164,-1.1783,-1.303,-1.4391,-1.4057,-1.3984,-1.3953,-0.086,-0.0735,0.0,0.0,-0.0971,0.0,0.0,0.0,-0.7918,0.0,-0.7829,-0.684,-0.3991,-0.3373,-0.279,-0.1807,-0.1871,-0.1991,-0.2006,-0.2683,0.0,0.0,-0.507,-0.5735,-0.6584,0.0,0.0,0.0,0.0,0.0,0.0,0.0,0.0,0.0,-0.4234,0.0,-0.4617,-0.6817,-0.7572,-0.7199,-0.6154,-0.5149,-0.4228,-0.3829,-0.3871,-0.416,-0.424,-0.384,-0.3266,-0.3275,-0.3343,-0.3439,-0.3451,-0.3587,-0.3788,-0.4079,-0.4138,-0.4193,-0.4408,-0.4574,-0.4743,-0.4846,0.0,0.0,0.0,0.0,-0.6924,0.0,0.0,0.0,0.0,0.0,0.0,0.0,0.0,0.0,0.0,0.0,0.2947,0.4967,0.5684,0.7332,1.0817,1.0492,1.1234,1.4035,1.4153,1.4435,0.0,1.2949,1.1198,1.0226,0.639,0.2918,-0.0055,-0.1594,-0.2985,-0.4278,-0.6161,-0.7734,-0.9004,-1.0791,-1.0968,-0.9931,-1.0285,-1.1048,-1.1886,-1.1232,-1.1768,-1.2965,-1.2123,-1.2832,-1.4312,-1.4567,-1.4497,-1.4129,-0.1889,-0.234,-0.274,0.0,-0.3995,-0.5314,0.0,0.0,0.0,0.0,-0.6935,-0.5994,-0.3843,-0.3063,-0.2495,-0.1977,-0.1904,0.0,0.0,0.0,0.0,-0.3447,-0.407,-0.4702,-0.544,-0.5976,-0.601,-0.5564,0.0,0.0,-0.4702,0.0,0.0,0.0,0.0,-0.3853,-0.4356,-0.6407,-0.7301,-0.7288,-0.6594,-0.5417,-0.418,0.0,-0.4024,-0.3609,-0.3578,-0.3233,-0.2821,-0.3242,-0.2984,-0.2621,-0.3029,-0.3101,-0.3143,-0.35,-0.3688,-0.3796,-0.4076,-0.4353,-0.4574,-0.4574,-0.4912,-0.5235,0.0,0.0,0.0,0.0,0.0,0.0,0.0,0.0,0.0,0.0,0.0,0.0,0.0,0.0,0.0942,0.2793,0.313,0.4676,0.8422,0.609,0.649,1.1639,1.1411,1.1874,1.3893,0.0,1.4547,1.4077,0.9227,0.5871,0.4224,-0.0509,-0.3176,-0.3821,-0.6755,-0.9278,-1.1222,-1.0685,-1.0699,-1.1215,-1.126,-1.1349,-1.1491,-1.2709,-1.328,-1.348,-1.4525,-1.53,-1.5748,-1.5545,-1.5451,-1.5314,-0.2387,-0.3398,0.0,-0.4536,0.0,0.0,-0.634,-0.7591,0.0,-0.726,-0.6789,0.0,-0.4074,-0.293,-0.2151,-0.1706,-0.1417,0.0,-0.1687,0.0,0.0,-0.2798,-0.3398,-0.3942,-0.4529,-0.5092,0.0,-0.503,0.0,0.0,-0.3995,0.0,0.0,0.0,0.0,-0.3499,-0.4401,-0.6272,-0.7418,-0.7946,-0.7009,-0.5834,0.0,-0.4661,-0.4355,-0.3873,-0.3697,-0.3344,-0.2909,-0.2938,-0.2528,-0.2009,-0.215,-0.2489,-0.2832,-0.2941,-0.3097,-0.3241,-0.3522,-0.3744,-0.3962,-0.4128,-0.4455,-0.4755,-0.484,-0.5392,-0.6026,0.0,0.0,0.0,0.0,0.0,0.0,0.0,0.0,0.0,0.0,0.0,-0.0774,-0.0,0.0463,0.1585,0.3618,0.2982,0.4235,0.8495,0.9256,1.0466,1.2503,0.0,1.3338,1.3076,0.7922,0.4425,0.2929,-0.2329,-0.522,-0.5784,-0.8084,-1.0208,-1.2091,-1.1998,-1.2889,-1.4428,-1.3072,-1.2599,-1.2905,-1.3325,-1.3688,-1.4124,-1.5965,-1.6726,-1.67,-1.6228,-1.584,-1.5551,-0.277,-0.4065,0.0,0.0,0.0,0.0,0.0,-0.7795,0.0,-0.729,0.0,-0.5622,-0.4125,-0.277,-0.1725,-0.1147,0.0,-0.0859,-0.1391,-0.1512,-0.1796,-0.2411,-0.293,-0.3392,-0.3858,-0.4145,-0.4342,0.0,0.0,0.0,0.0,0.0,0.0,0.0,0.0,0.0,0.0,-0.676,-0.796,-0.8751,-0.7567,-0.6416,-0.5351,-0.5014,-0.4757,-0.4456,-0.4136,-0.3741,-0.3262,-0.2682,-0.2151,-0.1698,-0.1378,-0.195,-0.2698,-0.2497,-0.2617,-0.28,-0.3077,-0.3186,-0.3297,-0.3685,-0.3996,-0.4259,-0.4429,-0.4831,-0.5366,-0.6186,-0.6441,-0.6496,0.0,0.0,0.0,0.0,0.0,0.0,0.0,0.0,-0.2313,-0.2739,-0.1942,0.0,-0.1557,0.0789,0.3187,0.5358,0.7307,0.9231,1.1165,0.0,1.0147,1.029,0.5197,0.1436,-0.0685,0.0,-0.7937,-0.956,-1.022,-1.1357,-1.3027,-1.4327,-1.606,-1.7934,-1.5331,-1.4616,-1.5233,-1.3978,-1.4114,-1.5215,-1.6891,-1.747,-1.7185,-1.6551,-1.5965,-1.5488,-0.3542,0.0,0.0,0.0,0.0,-0.6248,-0.5972,-0.5952,-0.5909,-0.5682,-0.4414,-0.3296,-0.2752,-0.1898,-0.1104,-0.0527,-0.0896,0.0,0.0,0.0,0.0,-0.2133,-0.231,-0.2589,-0.3074,-0.3771,-0.4073,0.0,0.0,0.0,0.0,0.0,0.0,0.0,0.0,0.0,-0.8209,-0.9158,0.0,-0.9028,-0.8901,-0.7603,-0.5701,-0.5567,-0.5101,-0.4456,-0.3965,-0.366,-0.349,-0.3001,-0.2386,-0.1869,-0.1792,-0.2113,-0.256,-0.2691,-0.2889,-0.3077,-0.3299,-0.3522,-0.3685,-0.3796,-0.3984,-0.4228,-0.4228,-0.4848,-0.554,-0.5893,-0.652,-0.7024,-0.72,0.0,0.0,0.0,0.0,0.0,0.0,0.0,0.0,-0.3305,-0.2765,-0.2443,-0.2463,-0.1249,0.0955,0.4285,0.4626,0.6216,0.9731,0.0,0.9753,0.0,0.6815,0.0,0.0,0.0,-0.9124,-1.5232,-1.4184,-1.5108,-1.7798,-1.7572,-1.767,-1.8077,-1.7553,-1.7147,-1.6883,-1.6618,-1.7042,-1.7785,-1.787,-1.7657,-1.7166,-1.6682,-1.6333,-1.5955,-0.3685,0.0,0.0,0.0,0.0,0.0,0.0,-0.4554,-0.4463,-0.5047,-0.4207,-0.3212,-0.2388,-0.129,-0.0512,-0.038,-0.0444,-0.0559,-0.0776,-0.079,-0.1018,-0.1475,-0.1833,-0.2073,-0.2348,-0.306,-0.3487,-0.3659,0.0,0.0,0.0,0.0,0.0,-0.3154,0.0,-0.5878,0.0,0.0,0.0,-0.9678,-0.9354,-0.7874,-0.591,-0.5787,-0.5231,-0.4456,-0.4052,-0.37,-0.3353,-0.2729,-0.2239,-0.1891,-0.2113,-0.2278,-0.2415,-0.2456,-0.2651,-0.2846,-0.306,-0.3188,-0.3244,-0.3408,-0.3688,-0.3916,-0.391,-0.4458,-0.5076,-0.5414,-0.6015,-0.6743,-0.7512,-0.7326,0.0,0.0,0.0,0.0,0.0,0.0,-0.4629,-0.4525,-0.3843,-0.3365,-0.3358,-0.2346,-0.0733,0.1631,0.0,0.3505,0.0,0.0,1.0246,0.0,0.0,0.0,0.0,0.0,0.0,-1.584,-1.5869,-1.6694,-1.8235,-1.875,-1.8976,-1.8955,-1.8667,-1.8244,-1.7743,-1.8469,-1.8667,-1.8472,-1.8158,-1.7706,-1.7314,-1.6821,-1.6482,-1.6246,-0.3627,-0.421,0.0,0.0,-0.4793,-0.4606,-0.4087,-0.3388,-0.3197,-0.4157,-0.3625,-0.2792,-0.1814,-0.0561,0.0188,0.0048,0.0196,-0.0,-0.0706,-0.0403,-0.0461,-0.0904,-0.1368,-0.167,-0.179,-0.2295,-0.2855,0.0,0.0,0.0,0.0,0.0,0.0,0.0,0.0,0.0,0.0,0.0,-0.9381,-1.0157,-0.9506,-0.7997,-0.6081,-0.5959,-0.5318,-0.4495,-0.4184,-0.3744,-0.3262,-0.2502,-0.2103,-0.1971,-0.229,-0.2399,-0.239,-0.2317,-0.2466,-0.2728,-0.2909,-0.3005,-0.3135,-0.3244,-0.3577,-0.3858,-0.3793,-0.4184,-0.468,-0.5069,-0.5621,-0.6414,-0.774,-0.7644,0.0,0.0,0.0,0.0,0.0,0.0,-0.5835,-0.5909,-0.5114,-0.453,-0.4204,0.0,0.0,0.0,0.0,0.0,0.3909,0.0,0.0,0.0,0.0,-0.0585,-0.6303,0.0,-1.4021,-1.5563,-1.6752,-1.7507,-1.785,-1.9124,-1.9731,-1.9745,-1.9239,-1.88,-1.8617,-1.9647,-1.9458,-1.85,-1.8158,-1.7745,-1.7323,-1.6821,-1.65,-1.6254,0.0,0.0,0.0,0.0,0.0,-0.3939,-0.3741,-0.2468,-0.1606,-0.188,-0.067,0.0179,-0.0,0.0538,0.1048,0.1472,0.0812,0.0389,0.0352,0.0353,-0.0051,-0.0957,-0.1069,-0.1303,-0.1789,-0.1682,-0.2052,0.0,0.0,-0.3522,0.0,0.0,0.0,0.0,0.0,0.0,0.0,-1.0105,-1.023,-0.9947,-0.9843,-0.8474,-0.6435,-0.6221,-0.5486,-0.453,-0.41,-0.3751,-0.3445,-0.2637,-0.2368,-0.2326,-0.2199,-0.2445,-0.281,-0.2678,-0.2971,-0.3298,-0.3199,-0.3764,-0.4242,-0.3965,-0.4349,-0.4736,-0.446,-0.4625,-0.4952,-0.5226,-0.5845,-0.6764,-0.8089,-0.8303,-0.8281,0.0,0.0,0.0,0.0,0.0,-0.7363,-0.7263,-0.69,-0.623,-0.5262,-0.56,0.0,0.0,-0.0065,0.0,0.0,0.0,0.0,0.8155,0.0,-0.6671,-1.1039,-1.2604,-1.4707,-1.7376,-1.7554,-1.8083,-1.8886,-1.9247,-1.9572,-1.9745,-1.9245,-1.9377,-1.9954,-2.005,-1.9483,-1.8485,-1.815,-1.759,-1.6978,-1.6908,-1.6438,-1.5882,0.0,0.0,0.0,0.0,0.0,0.0,0.0,-0.1351,-0.0579,-0.0045,0.0668,0.1115,0.116,0.1873,0.2156,0.1559,0.1378,0.1168,0.0875,0.0858,0.0629,0.0257,-0.0,-0.0307,-0.0651,-0.114,-0.1657,0.0,0.0,0.0,0.0,0.0,0.0,0.0,0.0,-0.7304,-0.875,-0.9452,-0.9707,-0.9657,-0.942,-0.806,-0.605,-0.5927,-0.5323,-0.4495,-0.414,-0.3832,-0.3527,-0.2907,-0.2504,-0.2235,-0.2281,-0.2312,-0.2401,-0.255,-0.2723,-0.2866,-0.2992,-0.3433,-0.3977,-0.4236,-0.4363,-0.4408,-0.4128,-0.4184,-0.4405,-0.4846,-0.5668,-0.6729,-0.8224,-0.8498,-0.8723,0.0,0.0,0.0,0.0,0.0,0.0,-0.8263,0.0,-0.8009,-0.6744,-0.796,0.0,0.0,0.0,0.0,0.0,0.0,0.0,0.2495,0.0,-1.3442,-1.4189,-1.5542,-1.6707,-1.7656,-1.7764,-1.7963,-1.8309,-1.8543,-1.8289,-1.7756,-1.7498,-1.82,-1.9504,-1.9523,-1.9003,-1.8208,-1.8035,-1.755,-1.6885,-1.6874,-1.6464,-1.5763,-0.1492,0.0,-0.2183,0.0,-0.2018,-0.1981,-0.0672,-0.0,0.0579,0.1297,0.1784,0.2051,0.201,0.281,0.2946,0.1835,0.1971,0.1905,0.1355,0.132,0.1248,0.1039,0.0781,0.0,0.0053,-0.0484,-0.093,-0.1399,-0.2463,0.0,0.0,0.0,0.0,0.0,-0.6184,-0.7149,-0.8233,-0.894,-0.9162,-0.9051,-0.882,-0.7574,-0.5841,-0.5631,-0.5198,-0.4583,-0.4224,-0.3913,-0.3565,-0.2996,-0.2504,-0.2188,-0.2326,-0.2239,-0.2117,-0.2364,-0.2497,-0.2606,-0.2829,-0.3269,-0.3806,-0.4226,-0.4532,-0.4577,-0.4132,-0.4294,-0.468,-0.5179,-0.5937,-0.6973,-0.8356,-0.867,-0.8961,-0.9589,0.0,0.0,0.0,-0.9361,0.0,-0.9416,-0.9803,-0.9613,-0.8495,-0.9336,0.0,0.0,0.0,0.0,0.0,0.0,0.0,0.0,0.0,0.0,-1.633,-1.7353,-1.7912,-1.7941,-1.8321,-1.8367,-1.832,-1.8658,-1.8199,-1.7027,-1.7153,-1.7935,-1.9089,-1.8858,-1.8435,-1.7861,-1.7842,-1.7423,-1.6921,-1.6893,-1.6448,-1.5832,0.032,-0.036,-0.0793,0.0047,0.0183,0.0356,0.0975,0.1603,0.2008,0.2099,0.2943,0.3296,0.2549,0.3167,0.33,0.2549,0.2595,0.2417,0.1839,0.1794,0.1506,0.0,0.0,0.0872,-0.0053,0.033,0.0224,-0.0393,0.0,0.0,-0.3589,0.0,-0.497,-0.6682,-0.622,-0.6886,-0.8421,-0.9099,-0.8847,-0.8004,-0.8085,-0.727,-0.5933,-0.5501,-0.5193,-0.4918,-0.4308,-0.3917,-0.3565,-0.2771,-0.2415,-0.2326,-0.238,-0.233,-0.2279,-0.2281,-0.2488,-0.2735,-0.2849,-0.3468,-0.4068,-0.4045,-0.4908,-0.5576,-0.4853,-0.5348,-0.6109,-0.6593,-0.702,-0.7583,-0.8466,-0.8843,-0.9004,-0.901,0.0,0.0,0.0,-0.9765,0.0,-1.0856,-1.1015,-1.0969,-1.0615,-0.932,0.0,0.0,0.0,0.0,0.0,0.0,0.0,-1.6256,-1.5936,0.0,-1.7258,-1.7372,-1.781,-1.8614,-1.9396,-1.9645,-1.9479,-2.0246,-1.9855,-1.8611,-1.8912,-1.9084,-1.9018,-1.8298,-1.785,-1.7571,-1.7512,-1.7295,-1.6921,-1.6893,-1.6465,-1.5865,0.0941,0.0681,0.0529,0.0806,0.1236,0.156,0.1693,0.2499,0.3081,0.2984,0.3476,0.3788,0.3744,0.3921,0.3832,0.0,0.3173,0.2988,0.0,0.2273,0.205,0.1851,0.1687,0.1432,0.1077,0.0851,0.0438,-0.0112,0.0,0.0,0.0,-0.3966,-0.4692,-0.5746,-0.6009,-0.6686,-0.7664,-0.8243,-0.8076,-0.7325,-0.7659,-0.6912,-0.5626,-0.5496,-0.5236,-0.4937,-0.4403,-0.4005,-0.3612,-0.2996,-0.264,-0.2415,-0.2373,-0.215,-0.1982,-0.2133,-0.2175,-0.2286,-0.2653,-0.3254,-0.3939,-0.4573,-0.4959,-0.5222,-0.5289,-0.5677,-0.6046,-0.6122,-0.6676,-0.741,-0.8165,-0.8799,-0.9397,-0.989,-1.0284,0.0,-1.034,0.0,-0.9606,-0.9955,-0.9776,-0.9927,-1.0533,-1.1024,0.0,0.0,0.0,0.0,0.0,0.0,0.0,0.0,-1.6805,0.0,-1.8242,-1.8325,-1.866,-1.9303,-1.9617,-1.9939,-2.0201,-2.0299,-2.0335,-2.0288,-1.926,-1.9035,-1.9399,-1.8633,-1.8103,-1.7872,-1.7617,-1.731,-1.6863,-1.6876,-1.705,-1.719,0.2005,0.1895,0.1886,0.2181,0.2449,0.2721,0.2896,0.348,0.3884,0.3785,0.4005,0.4228,0.4451,0.4535,0.0,0.366,0.3571,0.3388,0.2971,0.272,0.2533,0.2461,0.2172,0.1927,0.1676,0.1332,0.0,0.0659,-0.0833,-0.2178,-0.3292,-0.379,-0.4401,-0.512,-0.5609,-0.6258,-0.6907,-0.7439,-0.7201,-0.6455,-0.6888,-0.6309,-0.5188,-0.528,-0.5154,-0.4849,-0.4451,-0.4008,-0.3565,-0.2996,-0.2684,-0.246,-0.2237,-0.2061,-0.1893,-0.2127,-0.2149,-0.2195,-0.2643,-0.3187,-0.3818,-0.4599,-0.5023,-0.5441,-0.5946,-0.6164,-0.6204,-0.6323,-0.716,-0.7979,-0.8346,-0.9011,-0.9608,-1.0027,-1.0331,-1.0504,-1.0508,0.0,-0.9089,0.0,0.0,0.0,0.0,-1.1496,-1.1556,0.0,0.0,0.0,0.0,0.0,0.0,-1.6717,-1.7254,0.0,-1.8335,-1.8738,-1.9093,-1.946,-1.9995,-2.0463,-2.0795,-2.0699,-2.0649,-2.0649,-1.95,-1.903,-1.8859,-1.8415,-1.8056,-1.7724,-1.7449,-1.7139,-1.6899,-1.6629,-1.6951,-1.7363,0.3348,0.3178,0.3184,0.0,0.3796,0.0,0.4456,0.4499,0.4451,0.4495,0.4618,0.4748,0.4888,0.5009,0.4792,0.4096,0.0,0.0,0.0,0.3123,0.2948,0.2773,0.2655,0.2375,0.1898,0.1779,0.1748,0.1759,-0.0768,-0.2232,-0.2625,-0.335,-0.4018,-0.4632,-0.5062,-0.555,-0.6154,-0.6583,-0.6276,-0.5483,-0.5965,-0.5516,-0.4618,-0.4893,-0.4893,-0.4714,-0.4408,-0.4008,-0.352,-0.2951,-0.264,-0.246,-0.2152,-0.2062,-0.2062,-0.2245,-0.2286,-0.2393,-0.2788,-0.3283,-0.3799,-0.4157,-0.516,-0.6218,-0.6766,-0.6756,-0.6681,-0.7036,-0.8196,-0.9088,-0.8974,-0.9406,-0.974,-0.9614,-1.003,-1.0294,-1.0215,-0.9188,-0.8554,0.0,0.0,0.0,0.0,-1.0937,-1.0808,0.0,0.0,0.0,0.0,0.0,-1.2282,-1.7152,-1.7445,-1.7601,-1.7812,-1.8762,-1.9255,-1.9368,-2.0433,-2.1086,-2.126,-2.1304,-2.0745,-1.9839,-1.9781,-1.9013,-1.7835,-1.7909,-1.7705,-1.7269,-1.6963,-1.686,-1.674,-1.602,-1.6113,-1.6563,0.0,0.0,0.4155,0.4349,0.4361,0.4443,0.467,0.4845,0.5058,0.5356,0.5567,0.5739,0.5905,0.5825,0.569,0.5518,0.4753,0.4232,0.4052,0.366,0.3398,0.322,0.3069,0.2895,0.2654,0.2319,0.1848,0.1172,0.0322,-0.0654,-0.162,-0.2176,-0.2954,-0.3904,-0.4288,-0.4728,-0.5226,-0.555,-0.5339,-0.4804,-0.5541,-0.5246,-0.4403,-0.4884,-0.4845,-0.4543,-0.4236,-0.3928,-0.353,-0.3217,-0.2993,-0.286,-0.2732,-0.2553,-0.2344,-0.2187,-0.2161,-0.2325,-0.2786,-0.3202,-0.3752,-0.4713,-0.5845,-0.6766,-0.6977,-0.7133,-0.7224,-0.7399,-0.8415,-0.9499,-1.0239,-0.9925,-0.9569,-0.9718,-0.9575,-0.9368,-0.9049,-0.8462,-0.8224,0.0,-0.8416,-0.8844,-1.0308,-1.0854,-1.1825,0.0,0.0,0.0,0.0,-1.4577,-1.5908,-1.7579,-1.7856,-1.8333,-1.8915,-1.9437,-1.9993,-2.0558,-2.0689,-2.0714,-2.0785,-2.0504,-2.003,-1.9413,-1.9145,-1.87,-1.8123,-1.7628,-1.7263,-1.6963,-1.658,-1.6298,-1.6042,-1.5869,-1.5474,-1.5219,0.5065,0.5066,0.5091,0.5176,0.5174,0.5226,0.5534,0.5663,0.5873,0.6161,0.6337,0.6507,0.6592,0.6422,0.6337,0.6386,0.5356,0.4709,0.4622,0.4188,0.3928,0.3836,0.3601,0.3367,0.3227,0.2785,0.2242,0.1521,0.1029,0.0419,-0.0373,-0.1244,-0.2072,-0.2782,-0.3545,-0.4125,-0.4401,-0.4787,-0.4645,-0.427,-0.5124,-0.5,-0.4394,-0.5112,-0.5056,-0.4631,-0.4456,-0.4104,-0.3707,-0.348,-0.3255,-0.3037,-0.2865,-0.2684,-0.2471,-0.2255,-0.2234,-0.2352,-0.279,-0.3099,-0.3609,-0.475,-0.5691,-0.6458,-0.6705,-0.6962,-0.7184,-0.7459,-0.8474,-0.9636,-1.0542,-1.0304,-0.9932,-0.9666,-0.9079,-0.8538,-0.8046,-0.7577,-0.7513,-0.8109,-0.8503,-0.9202,-1.0476,-1.1906,-1.3147,-1.3968,-1.4363,0.0,-1.4469,-1.5331,-1.6392,-1.7666,-1.8412,-1.8877,-1.8955,-1.9205,-1.9531,-1.9924,-1.9896,-1.9832,-1.9726,-1.9553,-1.9253,-1.8777,-1.8327,-1.794,-1.7627,-1.7047,-1.663,-1.6377,-1.614,-1.5752,-1.5237,-1.5243,-1.5,-1.4727,0.5818,0.5831,0.591,0.6081,0.6044,0.6093,0.652,0.6647,0.6725,0.6923,0.7098,0.7196,0.7189,0.6979,0.6901,0.6999,0.5964,0.527,0.514,0.4753,0.4495,0.4408,0.4144,0.3921,0.3741,0.3217,0.2743,0.2194,0.167,0.1249,0.0854,-0.0415,-0.1214,-0.17,-0.2882,-0.3473,-0.3655,-0.413,-0.4094,-0.3858,-0.4675,-0.4738,-0.4407,-0.5281,-0.5266,-0.4757,-0.4714,-0.4364,-0.388,-0.3609,-0.3388,-0.3126,-0.2818,-0.264,-0.2504,-0.2413,-0.2413,-0.246,-0.2732,-0.3041,-0.3494,-0.4515,-0.53,-0.5936,-0.632,-0.6659,-0.6952,-0.7326,-0.8452,-0.9642,-1.0364,-1.0573,-1.0308,-0.951,-0.8646,-0.7878,-0.7375,0.0,-0.6977,-0.7784,-0.8858,-0.9974,-1.1136,-1.3046,-1.4063,-1.3656,-1.4096,-1.4351,-1.4365,-1.4457,-1.5283,-1.7012,-1.8455,-1.8995,-1.852,-1.8637,-1.8648,-1.8613,-1.8763,-1.8691,-1.852,-1.8594,-1.8395,-1.7978,-1.7442,-1.7107,-1.6778,-1.6421,-1.6087,-1.5814,-1.5777,-1.5317,-1.4577,-1.4607,-1.4638,-1.4839,0.6359,0.641,0.655,0.6592,0.6647,0.6823,0.7063,0.7231,0.744,0.7697,0.7912,0.8044,0.816,0.7787,0.7545,0.7587,0.6774,0.6093,0.5701,0.5231,0.4975,0.4898,0.4626,0.4447,0.4368,0.3663,0.3106,0.2716,0.2487,0.1998,0.1205,0.0656,-0.0206,-0.1325,-0.2122,-0.2654,-0.2987,-0.3262,-0.35,-0.3665,-0.4091,-0.426,-0.4361,-0.4895,-0.4877,-0.4499,-0.4284,-0.406,-0.3836,-0.3391,-0.3167,-0.299,-0.2773,-0.2684,-0.2684,-0.2857,-0.2862,-0.2732,-0.246,-0.3218,-0.4157,-0.4417,-0.53,-0.6185,-0.6423,-0.6761,-0.6996,-0.6877,-0.8234,-0.9665,-1.0392,-1.0277,-0.994,-0.934,-0.86,-0.8003,-0.7667,0.0,-0.7901,-0.8552,-0.9687,-1.0692,-1.1455,-1.2429,-1.3403,-1.4249,-1.3899,-1.3657,-1.3649,-1.4162,-1.4409,-1.4153,-1.6172,-1.7575,-1.8257,-1.8061,-1.8061,-1.8268,-1.8148,-1.792,-1.7615,-1.7591,-1.7451,-1.7107,-1.6621,-1.6508,-1.6553,-1.6043,-1.5848,-1.5803,-1.5783,-1.5307,-1.4564,-1.4574,-1.4904,-1.5287,0.7456,0.7461,0.7516,0.7614,0.7614,0.769,0.7972,0.8013,0.8152,0.8414,0.8537,0.8659,0.87,0.8447,0.8201,0.816,0.744,0.6894,0.6592,0.5873,0.5448,0.5376,0.5111,0.4801,0.4456,0.4008,0.3602,0.3215,0.3035,0.2645,0.2129,0.1592,0.0934,0.02,-0.0953,-0.1673,-0.2058,-0.2835,-0.3334,-0.3672,-0.4245,-0.4435,-0.4468,-0.4965,-0.4897,-0.4539,-0.4408,-0.4188,-0.3836,-0.3568,-0.3303,-0.3126,-0.3084,-0.304,-0.2996,-0.317,-0.3081,-0.2951,-0.2904,-0.344,-0.4051,-0.4403,-0.5121,-0.582,-0.6134,-0.6452,-0.6651,-0.6838,-0.7888,-0.884,-0.9184,-0.9627,-0.969,-0.901,-0.8639,0.0,0.0,-0.8045,-0.8482,-0.8883,-1.0326,-1.1526,-1.2094,-1.2655,-1.3348,-1.415,-1.4132,-1.3735,-1.3025,-1.331,-1.3339,-1.3059,-1.548,-1.6908,-1.7165,-1.7143,-1.6961,-1.6713,-1.6767,-1.6615,-1.6309,-1.6596,-1.6629,-1.6482,-1.614,-1.6017,-1.5964,-1.5556,-1.535,-1.5367,-1.5,-1.4733,-1.4718,-1.5415,-1.5623,-1.5423,0.8417,0.8372,0.8349,0.8496,0.8439,0.8472,0.8765,0.8756,0.8805,0.9024,0.9105,0.9145,0.9145,0.8967,0.8765,0.8594,0.7979,0.7482,0.7266,0.6513,0.6013,0.5852,0.5545,0.5111,0.4539,0.4268,0.4005,0.3785,0.3435,0.3173,0.2957,0.2309,0.1834,0.1472,-0.0048,-0.0836,-0.119,-0.2505,-0.3186,-0.3529,-0.4249,-0.4506,-0.4529,-0.4938,-0.4839,-0.4487,-0.4395,-0.4136,-0.3836,-0.37,-0.348,-0.3262,-0.3353,-0.335,-0.3303,-0.3398,-0.3303,-0.3211,-0.3394,-0.3656,-0.3961,-0.4487,-0.5019,-0.5501,-0.5933,-0.6184,-0.6441,-0.6887,-0.7579,-0.8082,-0.8066,-0.8824,-0.9234,-0.8507,0.0,0.0,0.0,-0.828,-0.8847,-0.9234,-1.0755,-1.195,-1.2265,-1.2827,-1.3243,-1.3362,-1.3914,-1.3777,-1.268,-1.246,-1.2305,-1.2242,-1.4533,-1.5696,-1.5714,-1.5804,-1.5591,-1.5145,-1.5404,-1.5369,-1.5129,-1.5544,-1.572,-1.573,-1.5542,-1.5371,-1.53,-1.4984,-1.484,-1.4681,-1.4201,-1.422,-1.4713,-1.5955,-1.5968,-1.5404,0.8733,0.87,0.8773,0.8773,0.8854,0.8975,0.9136,0.9328,0.9439,0.9439,0.9585,0.9643,0.9643,0.9346,0.9047,0.878,0.8234,0.7746,0.7482,0.707,0.666,0.6373,0.5895,0.5453,0.4966,0.4535,0.4272,0.4228,0.366,0.3306,0.317,0.2556,0.2016,0.1515,0.0183,-0.0461,-0.0572,-0.1972,-0.275,-0.3105,-0.3598,-0.4039,-0.4384,-0.438,-0.428,-0.4089,-0.3781,-0.3697,-0.37,-0.3483,-0.3398,-0.3398,-0.3398,-0.348,-0.3565,-0.3439,-0.3527,-0.3653,-0.3609,-0.3917,-0.4316,-0.453,-0.5145,-0.5761,-0.6099,-0.6435,-0.6689,-0.68,-0.7499,-0.8024,-0.7785,-0.8179,-0.8338,-0.7866,0.0,0.0,-0.8277,-0.8586,-0.9008,-0.9688,-1.0818,-1.147,-1.1422,-1.2492,-1.2753,-1.1562,-1.2814,-1.3319,-1.2635,-1.1988,-1.1534,-1.1249,-1.2081,-1.3,-1.4064,-1.3838,-1.3943,-1.4452,-1.4479,-1.4379,-1.4225,-1.4605,-1.4676,-1.4527,-1.4506,-1.4585,-1.4673,-1.4632,-1.4385,-1.3962,-1.3628,-1.3933,-1.4587,-1.5219,-1.5458,-1.5418,0.9616,0.9567,0.9576,0.9607,0.9536,0.9536,0.9664,0.9695,0.9734,0.9813,0.9892,0.9941,0.9911,0.9813,0.9567,0.9151,0.8707,0.8259,0.7848,0.7489,0.6992,0.6416,0.6239,0.5895,0.5453,0.4971,0.453,0.418,0.3741,0.3303,0.2907,0.2729,0.2481,0.2104,0.1168,0.054,0.0183,-0.1482,-0.2591,-0.3214,-0.3568,-0.3785,-0.3965,-0.3884,-0.3792,-0.3656,-0.3656,-0.3612,-0.3527,-0.3568,-0.3575,-0.3534,-0.3663,-0.3748,-0.3792,-0.3704,-0.388,-0.4096,-0.4316,-0.453,-0.4879,-0.5443,-0.5755,-0.5976,-0.6435,-0.6562,-0.6647,-0.6859,-0.7249,-0.7466,-0.7301,-0.7397,-0.7425,-0.7095,0.0,-0.8276,-0.8592,-0.9292,-0.9739,-0.9695,-1.0446,-1.0971,-1.0808,-1.1317,-1.1694,-1.1785,-1.1065,-1.0638,-1.0725,-1.0892,-1.1115,-1.1377,-1.1502,-1.1869,-1.2617,-1.2653,-1.2891,-1.324,-1.3534,-1.3766,-1.3925,-1.4226,-1.4367,-1.4387,-1.4371,-1.4361,-1.4289,-1.4175,-1.3943,-1.3622,-1.3535,-1.394,-1.4535,-1.4729,-1.5042,-1.5401,1.0312,1.0235,1.0244,1.0235,1.0118,1.0049,1.0098,1.0049,1.0088,1.0127,1.0205,1.0235,1.0205,1.0127,0.9922,0.9487,0.9039,0.8626,0.8185,0.7773,0.728,0.6581,0.6496,0.6233,0.5809,0.5145,0.4618,0.4264,0.3741,0.3303,0.2909,0.2912,0.2776,0.246,0.1741,0.1205,0.0714,-0.1026,-0.2144,-0.2726,-0.3258,-0.3435,-0.3439,-0.3486,-0.3398,-0.3306,-0.3524,-0.3527,-0.3442,-0.37,-0.3748,-0.3755,-0.4016,-0.4012,-0.388,-0.3836,-0.4052,-0.4364,-0.4714,-0.4971,-0.5313,-0.6007,-0.6184,-0.627,-0.6598,-0.6605,-0.6562,-0.6859,-0.6999,-0.7005,-0.6891,-0.6805,-0.6716,-0.6654,-0.7484,-0.8237,-0.8572,-0.9399,-0.9775,-0.9234,-0.9805,-1.0193,-0.9917,-1.0293,-1.0694,-1.0973,-0.9273,-0.8496,-0.9024,-0.9812,-1.0428,-1.0711,-1.0725,-1.0891,-1.1247,-1.1524,-1.1826,-1.2174,-1.2547,-1.2963,-1.3294,-1.3444,-1.3654,-1.3841,-1.3947,-1.384,-1.3695,-1.3652,-1.3506,-1.3353,-1.3381,-1.3762,-1.4259,-1.4431,-1.4889,-1.5438,1.0715,1.0715,1.0687,1.0621,1.0621,1.0544,1.0361,1.0467,1.0544,1.0418,1.0505,1.0582,1.0582,1.0312,1.001,0.9823,0.9177,0.8732,0.8521,0.7995,0.7461,0.6914,0.6653,0.6355,0.6024,0.4975,0.4451,0.4618,0.3653,0.3262,0.3398,0.3046,0.2776,0.246,0.1746,0.1299,0.0985,-0.0626,-0.1299,-0.1389,-0.2464,-0.2912,-0.2912,-0.3129,-0.3126,-0.3034,-0.3306,-0.3398,-0.3442,-0.3792,-0.388,-0.3972,-0.4368,-0.4236,-0.388,-0.3744,-0.4008,-0.4364,-0.4714,-0.5145,-0.562,-0.6093,-0.6349,-0.652,-0.6683,-0.6605,-0.6532,-0.6666,-0.6715,-0.6672,-0.66,-0.6367,-0.631,-0.6711,-0.7111,-0.7576,-0.8104,-0.8655,-0.8784,-0.8237,-0.8808,-0.9101,-0.8614,-0.9596,-0.9829,-0.8701,-0.7683,-0.7329,-0.7853,-0.8933,-0.9253,-0.8838,-0.9562,-0.9996,-1.0015,-1.0401,-1.0892,-1.1483,-1.149,-1.1721,-1.2173,-1.2164,-1.2419,-1.2671,-1.2839,-1.29,-1.29,-1.306,-1.2987,-1.2928,-1.3161,-1.3467,-1.3859,-1.4349,-1.4846,-1.5384,1.1437,1.1266,1.1169,1.1282,1.1057,1.0905,1.0981,1.0878,1.084,1.0954,1.0878,1.0802,1.0802,1.0659,1.0438,0.998,0.9536,0.8967,0.8118,0.7739,0.7412,0.7125,0.6914,0.6617,0.6282,0.5448,0.4831,0.4478,0.3781,0.3303,0.2909,0.2909,0.2687,0.2368,0.2146,0.1835,0.1433,-0.0089,-0.0938,-0.1298,-0.2237,-0.2732,-0.2912,-0.2865,-0.2948,-0.317,-0.3442,-0.3534,-0.3578,-0.384,-0.388,-0.3928,-0.406,-0.4012,-0.3924,-0.3972,-0.4144,-0.4364,-0.4714,-0.5145,-0.5663,-0.6264,-0.6488,-0.6579,-0.6563,-0.6581,-0.649,-0.6275,-0.6196,-0.6153,-0.5987,-0.5847,-0.5723,-0.5826,-0.618,-0.68,-0.7669,-0.7891,-0.7493,-0.631,-0.6817,-0.7223,-0.707,-0.7488,-0.7687,-0.7546,-0.7079,-0.7056,-0.7522,-0.8178,-0.8765,-0.9248,-0.9529,-0.9438,-0.8952,-0.9761,-1.0268,-1.0471,-1.1219,-1.1608,-1.1815,-1.2415,-1.2586,-1.2449,-1.2631,-1.2753,-1.2673,-1.29,-1.2826,-1.2707,-1.3154,-1.3383,-1.3523,-1.3897,-1.4571,-1.5405,1.1991,1.1785,1.1653,1.1774,1.1542,1.1383,1.1431,1.1356,1.1319,1.1356,1.1292,1.1217,1.1057,1.0926,1.0659,1.0205,0.9646,0.8918,0.7987,0.7697,0.7496,0.7293,0.7125,0.6829,0.6447,0.5701,0.5043,0.4478,0.3913,0.3391,0.2907,0.2909,0.2732,0.237,0.2284,0.2061,0.1658,0.0268,-0.0447,-0.0805,-0.1835,-0.2417,-0.264,-0.264,-0.2815,-0.317,-0.3353,-0.3486,-0.3534,-0.3707,-0.3792,-0.3836,-0.3796,-0.3751,-0.3751,-0.3843,-0.4016,-0.4232,-0.4587,-0.4932,-0.5361,-0.5964,-0.6247,-0.6366,-0.6306,-0.6264,-0.6152,-0.5923,-0.5798,-0.5669,-0.5463,-0.5231,-0.5091,-0.5211,-0.5534,-0.5962,-0.6623,-0.686,-0.6471,-0.5233,-0.5615,-0.5942,-0.5911,-0.6217,-0.6415,-0.6504,-0.646,-0.6524,-0.6839,-0.7276,-0.7822,-0.8482,-0.8868,-0.8768,-0.8091,-0.872,-0.9308,-0.9779,-1.0477,-1.083,-1.102,-1.1888,-1.2196,-1.2058,-1.2258,-1.2385,-1.2466,-1.2613,-1.2606,-1.2566,-1.2981,-1.3175,-1.322,-1.3709,-1.4331,-1.486,1.2449,1.2294,1.2186,1.2186,1.2066,1.1898,1.1715,1.1836,1.1872,1.1678,1.1693,1.1597,1.1328,1.1041,1.0712,1.0359,0.9509,0.8732,0.8062,0.7829,0.7628,0.7419,0.7251,0.6999,0.6568,0.5782,0.513,0.47,0.4049,0.3565,0.3258,0.3043,0.2776,0.2504,0.233,0.2109,0.1748,0.0537,0.0045,-0.0045,-0.1299,-0.1969,-0.2281,-0.2415,-0.2682,-0.3034,-0.3126,-0.3262,-0.3398,-0.349,-0.3571,-0.3612,-0.3578,-0.3445,-0.3398,-0.3534,-0.3707,-0.3968,-0.4368,-0.4631,-0.4888,-0.5318,-0.5658,-0.5867,-0.5933,-0.5826,-0.5658,-0.5636,-0.5404,-0.514,-0.4985,-0.4578,-0.4434,-0.4879,-0.4992,-0.5107,-0.5317,-0.5684,-0.5572,-0.467,-0.4885,-0.5105,-0.5069,-0.553,-0.5681,-0.5508,-0.5764,-0.5891,-0.5891,-0.6295,-0.6615,-0.6823,-0.7819,-0.8038,-0.7404,-0.7548,-0.8215,-0.9414,-0.9466,-0.9651,-0.9971,-1.084,-1.1357,-1.1638,-1.1665,-1.1861,-1.2177,-1.2257,-1.2338,-1.2398,-1.2804,-1.2956,-1.3041,-1.3785,-1.4062,-1.4112,1.2803,1.2756,1.2756,1.2838,1.265,1.2461,1.2544,1.2318,1.2174,1.2282,1.1556,1.1038,1.1122,1.0755,1.0298,0.9802,0.9295,0.8749,0.8118,0.7836,0.7594,0.7349,0.7258,0.7083,0.6829,0.6173,0.5733,0.548,0.4478,0.3913,0.3734,0.3347,0.2951,0.264,0.2734,0.2553,0.2103,0.0895,0.0403,0.0268,-0.1074,-0.1792,-0.2105,-0.2281,-0.2635,-0.299,-0.3034,-0.3126,-0.3214,-0.317,-0.3084,-0.3087,-0.3046,-0.3046,-0.3087,-0.348,-0.3609,-0.3744,-0.4232,-0.4456,-0.4587,-0.4675,-0.4797,-0.5005,-0.5491,-0.5588,-0.5435,-0.5052,-0.4753,-0.4491,-0.4451,-0.4008,-0.3836,-0.4451,-0.4212,-0.4143,-0.4768,-0.4621,-0.4239,-0.3691,-0.3694,-0.3841,-0.416,-0.4634,-0.4819,-0.4527,-0.4985,-0.5289,-0.5289,-0.5684,-0.5801,-0.5661,-0.6673,-0.7003,-0.6633,-0.7718,-0.8463,-0.8753,-0.9227,-0.9551,-0.9644,-0.9834,-1.0389,-1.1253,-1.1261,-1.1292,-1.1446,-1.207,-1.252,-1.2768,-1.306,-1.3167,-1.3228,-1.3858,-1.4082,-1.4166,1.3242,1.3207,1.3207,1.3301,1.3069,1.2883,1.2955,1.2768,1.2615,1.265,1.185,1.1263,1.1263,1.0617,0.9939,0.9256,0.8963,0.8562,0.8023,0.7855,0.7704,0.751,0.7384,0.7125,0.6823,0.6392,0.5916,0.5399,0.4836,0.4312,0.3744,0.3391,0.3129,0.304,0.2957,0.2732,0.2415,0.1385,0.076,0.0358,-0.0851,-0.1657,-0.2059,-0.215,-0.246,-0.286,-0.2771,-0.2904,-0.3043,-0.2996,-0.2907,-0.2821,-0.2821,-0.2776,-0.2818,-0.3258,-0.3435,-0.3612,-0.414,-0.4364,-0.4412,-0.4499,-0.4364,-0.4403,-0.4966,-0.5051,-0.4964,-0.4644,-0.4272,-0.3965,-0.3741,-0.3255,-0.3037,-0.3609,-0.3388,-0.3391,-0.41,-0.3965,-0.3653,-0.3205,-0.3161,-0.3218,-0.3407,-0.3801,-0.4052,-0.4066,-0.4372,-0.4577,-0.4688,-0.4986,-0.5068,-0.5027,-0.5638,-0.6125,-0.6383,-0.7505,-0.8208,-0.8501,-0.8835,-0.9012,-0.9019,-0.9336,-1.0108,-1.1128,-1.1531,-1.1639,-1.1706,-1.2164,-1.2567,-1.2946,-1.3263,-1.3307,-1.3408,-1.4045,-1.4223,-1.4294,1.3715,1.3648,1.3615,1.3581,1.3399,1.3229,1.3163,1.3141,1.3025,1.2803,1.2109,1.1527,1.1283,1.0443,0.964,0.8998,0.8729,0.8413,0.8051,0.7966,0.7855,0.7628,0.7503,0.716,0.6725,0.6532,0.6019,0.5231,0.5145,0.4622,0.3755,0.3483,0.335,0.3442,0.3135,0.2909,0.2729,0.1786,0.1071,0.0403,-0.0671,-0.1432,-0.1876,-0.1971,-0.2152,-0.2417,-0.246,-0.2595,-0.2776,-0.2776,-0.2732,-0.2598,-0.2598,-0.2551,-0.2593,-0.3037,-0.3303,-0.3527,-0.4052,-0.4184,-0.4184,-0.4276,-0.4012,-0.3832,-0.4268,-0.4399,-0.4355,-0.4184,-0.3832,-0.3435,-0.3078,-0.2544,-0.2324,-0.281,-0.2679,-0.2684,-0.3353,-0.3445,-0.3309,-0.2946,-0.2901,-0.2906,-0.2798,-0.3085,-0.3391,-0.3672,-0.3803,-0.3944,-0.4082,-0.4298,-0.4465,-0.4592,-0.4939,-0.5456,-0.6141,-0.7021,-0.7807,-0.8522,-0.8501,-0.8527,-0.8523,-0.9262,-1.0119,-1.1159,-1.1803,-1.2142,-1.2291,-1.2264,-1.2518,-1.2846,-1.329,-1.3595,-1.3741,-1.44,-1.4455,-1.449,1.4124,1.4092,1.4059,1.3934,1.3735,1.3514,1.3391,1.3198,1.3002,1.2745,1.1676,1.0868,1.0644,1.0004,0.9562,0.9574,0.8994,0.8575,0.8511,0.8228,0.7863,0.7363,0.737,0.7167,0.6708,0.6568,0.6221,0.5707,0.5313,0.4884,0.4443,0.4008,0.3707,0.3578,0.3534,0.3353,0.3037,0.1873,0.125,0.0851,-0.0671,-0.1119,-0.0984,-0.1703,-0.1657,-0.1253,-0.2057,-0.2368,-0.237,-0.237,-0.2328,-0.2288,-0.2288,-0.2375,-0.2549,-0.2901,-0.33,-0.3609,-0.3653,-0.3697,-0.3653,-0.3435,-0.3258,-0.3167,-0.3344,-0.348,-0.3571,-0.3527,-0.3265,-0.2998,-0.299,-0.2188,-0.1834,-0.2765,-0.214,-0.1875,-0.2684,-0.2729,-0.264,-0.2593,-0.2549,-0.2544,-0.2463,-0.2675,-0.2827,-0.2936,-0.3146,-0.3415,-0.3691,-0.3913,-0.4144,-0.4278,-0.4886,-0.515,-0.5083,-0.6685,-0.7811,-0.8473,-0.8522,-0.8472,-0.8523,-0.9416,-1.0266,-1.1134,-1.1206,-1.1632,-1.2291,-1.2325,-1.2303,-1.2444,-1.3193,-1.3892,-1.4538,-1.4838,-1.5082,-1.5213,1.4401,1.4447,1.4415,1.4208,1.396,1.3695,1.356,1.299,1.2568,1.2479,1.1272,1.0342,1.019,0.9572,0.9281,0.9609,0.9217,0.8814,0.8519,0.8551,0.8286,0.7594,0.7568,0.7293,0.6753,0.6487,0.6142,0.5761,0.5453,0.5014,0.4447,0.4232,0.41,0.4108,0.3796,0.3568,0.3344,0.214,0.1295,0.0671,-0.0492,-0.0895,-0.0851,-0.1344,-0.1299,-0.1119,-0.1791,-0.2061,-0.2105,-0.2061,-0.2018,-0.1973,-0.1973,-0.2194,-0.2549,-0.2857,-0.3167,-0.3391,-0.348,-0.3391,-0.3208,-0.3078,-0.2812,-0.2635,-0.2679,-0.2593,-0.264,-0.3037,-0.2904,-0.2595,-0.2279,-0.188,-0.1746,-0.2192,-0.1967,-0.1923,-0.2506,-0.2372,-0.2193,-0.2152,-0.2115,-0.2072,-0.2157,-0.2313,-0.2451,-0.2695,-0.2846,-0.3085,-0.3469,-0.3747,-0.3965,-0.4079,-0.4814,-0.5079,-0.4927,-0.6472,-0.7671,-0.8479,-0.8511,-0.8684,-0.9102,-1.0107,-1.0753,-1.1126,-1.1347,-1.1787,-1.2291,-1.2318,-1.247,-1.27,-1.329,-1.4054,-1.4929,-1.5013,-1.534,-1.5665]},{"header":{"parameterUnit":"m.s-1","parameterCategory":1,"la1":30.6,"la2":28.766,"lo1":-90.7593,"lo2":-88.6598,"dy":0.0162,"dx":0.0183,"nx":116,"ny":114,"refTime":"2023-05-16T12:00:00:Z","depth":0,"parameterNumber":3,"parameterNumberName":"V-component_of_WINDS"},"data":[0.0,0.0,0.0,0.0,0.0,0.0,0.0,0.0,0.0,0.0,0.0,0.0,0.0,0.0,0.0,0.0,0.0,0.0,0.0,0.0,0.0,0.0,0.0,0.0,0.0,0.0,0.0,0.0,0.0,0.0,0.0,0.0,0.0,0.0,0.0,0.0,0.0,0.0,0.0,0.0,0.0,0.0,0.0,0.0,0.0,0.0,0.0,0.0,0.0,0.0,0.0,0.0,0.0,0.0,0.0,0.0,0.0,0.0,0.0,0.0,0.0,0.0,0.0,0.0,0.0,0.0,0.0,0.0,0.0,0.0,0.0,0.0,0.0,0.0,0.0,0.0,0.0,0.0,0.0,0.0,0.0,0.0,0.0,0.0,0.0,0.0,0.0,0.0,0.0,0.0,0.0,0.0,0.0,0.0,0.0,0.0,0.0,0.0,0.0,0.0,0.0,0.0,0.0,0.0,0.0,0.0,0.0,0.0,0.0,0.0,0.0,0.0,0.0,0.0,0.0,0.0,0.0,0.0,0.0,0.0,0.0,0.0,0.0,0.0,0.0,0.0,0.0,0.0,0.0,0.0,0.0,0.0,0.0,0.0,0.0,0.0,0.0,0.0,0.0,0.0,0.0,0.0,0.0,0.0,0.0,0.0,0.0,0.0,0.0,0.0,0.0,0.0,0.0,0.0,0.0,0.0,0.0,0.0,0.0,0.0,0.0,0.0,0.0,0.0,0.0,0.0,0.0,0.0,0.0,0.0,0.0,0.0,0.0,0.0,0.0,0.0,0.0,0.0,0.0,0.0,0.0,0.0,0.0,0.0,0.0,0.0,0.0,0.0,0.0,0.0,0.0,0.0,0.0,0.0,0.0,0.0,0.0,0.0,0.0,0.0,0.0,0.0,0.0,0.0,0.0,0.0,0.0,0.0,0.0,0.0,0.0,0.0,0.0,0.0,0.0,0.0,0.0,0.0,0.0,0.0,0.0,0.0,0.0,0.0,0.0,0.0,0.0,0.0,0.0,0.0,0.0,0.0,0.0,0.0,0.0,0.0,0.0,0.0,0.0,0.0,0.0,0.0,0.0,0.0,0.0,0.0,0.0,0.0,0.0,0.0,0.0,0.0,0.0,0.0,0.0,0.0,0.0,0.0,0.0,0.0,0.0,0.0,0.0,0.0,0.0,0.0,0.0,0.0,0.0,0.0,0.0,0.0,0.0,0.0,0.0,0.0,0.0,0.0,0.0,0.0,0.0,0.0,0.0,0.0,0.0,0.0,0.0,0.0,0.0,0.0,0.0,0.0,0.0,0.0,0.0,0.0,0.0,0.0,0.0,0.0,0.0,0.0,0.0,0.0,0.0,0.0,0.0,0.0,0.0,0.0,0.0,0.0,0.0,0.0,0.0,0.0,0.0,0.0,0.0,0.0,0.0,0.0,0.0,0.0,0.0,0.0,0.0,0.0,0.0,0.0,0.0,0.0,0.0,0.0,0.0,0.0,0.0,0.0,0.0,0.0,0.0,0.0,0.0,0.0,0.0,0.0,0.0,0.0,0.0,0.0,0.0,0.0,0.0,0.0,0.0,0.0,0.0,0.0,0.0,0.0,0.0,0.0,0.0,0.0,0.0,0.0,0.0,0.0,0.0,0.0,0.0,0.0,0.0,0.0,0.0,0.0,0.0,0.0,0.0,0.0,0.0,0.0,0.0,0.0,0.0,0.0,0.0,0.0,0.0,0.0,0.0,0.0,0.0,0.0,0.0,0.0,0.0,0.0,0.0,0.0,0.0,0.0,0.0,0.0,0.0,0.0,0.0,0.0,0.0,0.0,0.0,0.0,0.0,0.0,0.0,0.0,0.0,0.0,0.0,0.0,0.0,0.0,0.0,0.0,0.0,0.0,0.0,0.0,0.0,0.0,0.0,0.0,0.0,0.0,0.0,0.0,0.0,0.0,0.0,0.0,0.0,0.0,0.0,0.0,0.0,0.0,0.0,0.0,0.0,0.0,0.0,0.0,0.0,0.0,0.0,0.0,0.0,0.0,0.0,0.0,0.0,0.0,0.0,0.0,0.0,0.0,0.0,0.0,0.0,0.0,0.0,0.0,0.0,0.0,0.0,0.0,0.0,0.0,0.0,0.0,0.0,0.0,0.0,0.0,0.0,0.0,0.0,0.0,0.0,0.0,0.0,0.0,0.0,0.0,0.0,0.0,0.0,0.0,0.0,0.0,0.0,0.0,0.0,0.0,0.0,0.0,0.0,0.0,0.0,0.0,0.0,0.0,0.0,0.0,0.0,0.0,0.0,0.0,0.0,0.0,0.0,0.0,0.0,0.0,0.0,0.0,0.0,0.0,0.0,0.0,0.0,0.0,0.0,0.0,0.0,0.0,0.0,0.0,0.0,0.0,0.0,0.0,0.0,0.0,0.0,0.0,0.0,0.0,0.0,0.0,0.0,0.0,0.0,0.0,0.0,0.0,0.0,0.0,0.0,0.0,0.0,0.0,0.0,0.0,0.0,0.0,0.0,0.0,0.0,0.0,0.0,0.0,0.0,0.0,0.0,0.0,0.0,0.0,0.0,0.0,0.0,0.0,0.0,0.0,0.0,0.0,0.0,0.0,0.0,0.0,0.0,0.0,0.0,0.0,0.0,0.0,0.0,0.0,0.0,0.0,0.0,0.0,0.0,0.0,0.0,0.0,0.0,0.0,0.0,0.0,0.0,0.0,0.0,0.0,0.0,0.0,0.0,0.0,0.0,0.0,0.0,0.0,0.0,0.0,0.0,0.0,0.0,0.0,0.0,0.0,0.0,0.0,0.0,0.0,0.0,0.0,0.0,0.0,0.0,0.0,0.0,0.0,0.0,0.0,0.0,0.0,0.0,0.0,0.0,0.0,0.0,0.0,0.0,0.0,0.0,0.0,0.0,0.0,0.0,0.0,0.0,0.0,0.0,0.0,0.0,0.0,0.0,0.0,0.0,0.0,0.0,0.0,0.0,0.0,0.0,0.0,0.0,0.0,0.0,0.0,0.0,0.0,0.0,0.0,0.0,0.0,0.0,0.0,0.0,0.0,0.0,0.0,0.0,0.0,0.0,0.0,0.0,0.0,0.0,0.0,0.0,0.0,0.0,0.0,0.0,0.0,0.0,0.0,0.0,0.0,0.0,0.0,0.0,0.0,0.0,0.0,0.0,0.0,0.0,0.0,0.0,0.0,0.0,0.0,0.0,0.0,0.0,0.0,0.0,0.0,0.0,0.0,0.0,0.0,0.0,0.0,0.0,0.0,0.0,0.0,0.0,0.0,0.0,0.0,0.0,0.0,0.0,0.0,0.0,0.0,0.0,0.0,0.0,0.0,0.0,0.0,0.0,0.0,0.0,0.0,0.0,0.0,0.0,0.0,0.0,0.0,0.0,0.0,0.0,0.0,0.0,0.0,0.0,0.0,0.0,0.0,0.0,0.0,0.0,0.0,0.0,0.0,0.0,0.0,0.0,0.0,0.0,0.0,0.0,0.0,0.0,0.0,0.0,0.0,0.0,0.0,0.0,0.0,0.0,0.0,0.0,0.0,0.0,0.0,0.0,0.0,0.0,0.0,0.0,0.0,0.0,0.0,0.0,0.0,0.0,0.0,0.0,0.0,0.0,0.0,0.0,0.0,0.0,0.0,0.0,0.0,0.0,0.0,0.0,0.0,0.0,0.0,0.0,0.0,0.0,0.0,0.0,0.0,0.0,0.0,0.0,0.0,0.0,0.0,0.0,0.0,0.0,0.0,0.0,0.0,0.0,0.0,0.0,0.0,0.0,0.0,0.0,0.0,0.0,0.0,0.0,0.0,0.0,0.0,0.0,0.0,0.0,0.0,0.0,0.0,0.0,0.0,0.0,0.0,0.0,0.0,0.0,0.0,0.0,0.0,0.0,0.0,0.0,0.0,0.0,0.0,0.0,0.0,0.0,0.0,0.0,0.0,0.0,0.0,0.0,0.0,0.0,0.0,0.0,0.0,0.0,0.0,0.0,0.0,0.0,0.0,0.0,0.0,0.0,0.0,0.0,0.0,0.0,0.0,0.0,0.0,0.0,0.0,0.0,0.0,0.0,0.0,0.0,0.0,0.0,0.0,0.0,0.0,0.0,0.0,0.0,0.0,0.0,0.0,0.0,0.0,0.0,0.0,0.0,0.0,0.0,0.0,0.0,0.0,0.0,0.0,0.0,0.0,0.0,0.0,0.0,0.0,0.0,0.0,0.0,0.0,0.0,0.0,0.0,0.0,0.0,0.0,0.0,0.0,0.0,0.0,0.0,0.0,0.0,0.0,0.0,0.0,0.0,0.0,0.0,0.0,0.0,0.0,0.0,0.0,0.0,0.0,0.0,0.0,0.0,0.0,0.0,0.0,0.0,0.0,0.0,0.0,0.0,0.0,0.0,0.0,0.0,0.0,0.0,0.0,0.0,0.0,0.0,0.0,0.0,0.0,0.0,0.0,0.0,0.0,0.0,0.0,0.0,0.0,0.0,0.0,0.0,0.0,0.0,0.0,0.0,0.0,0.0,0.0,0.0,0.0,0.0,0.0,0.0,0.0,0.0,0.0,0.0,0.0,0.0,0.0,0.0,0.0,0.0,0.0,0.0,0.0,0.0,0.0,0.0,0.0,0.0,0.0,0.0,0.0,0.0,0.0,0.0,0.0,0.0,0.0,0.0,0.0,0.0,0.0,0.0,0.0,0.0,0.0,0.0,0.0,0.0,0.0,0.0,0.0,0.0,0.0,0.0,0.0,0.0,0.0,0.0,0.0,0.0,0.0,0.0,0.0,0.0,0.0,0.0,0.0,0.0,0.0,0.0,0.0,0.0,0.0,0.0,0.0,0.0,0.0,0.0,0.0,0.0,0.0,0.0,0.0,0.0,0.0,0.0,0.0,0.0,0.0,0.0,0.0,0.0,0.0,0.0,0.0,0.0,0.0,0.0,0.0,0.0,0.0,0.0,0.0,0.0,0.0,0.0,0.0,0.0,0.0,0.0,0.0,0.0,0.0,0.0,0.0,0.0,0.0,0.0,0.0,0.0,0.0,0.0,0.0,0.0,0.0,0.0,0.0,0.0,0.0,0.0,0.0,0.0,0.0,0.0,0.0,0.0,0.0,0.0,0.0,0.0,0.0,0.0,0.0,0.0,0.0,0.0,0.0,0.0,0.0,0.0,0.0,0.0,0.0,0.0,0.0,0.0,0.0,0.0,0.0,0.0,0.0,0.0,0.0,0.0,0.0,0.0,0.0,0.0,0.0,0.0,0.0,0.0,0.0,0.0,0.0,0.0,0.0,0.0,0.0,0.0,0.0,0.0,0.0,0.0,0.0,0.0,0.0,0.0,0.0,0.0,0.0,0.0,0.0,0.0,0.0,0.0,0.0,0.0,0.0,0.0,0.0,0.0,0.0,0.0,0.0,0.0,0.0,0.0,0.0,0.0,0.0,0.0,0.0,0.0,0.0,0.0,0.0,0.0,0.0,0.0,0.0,0.0,0.0,0.0,0.0,0.0,0.0,0.0,0.0,0.0,0.0,0.0,0.0,0.0,0.0,0.0,0.0,0.0,0.0,0.0,0.0,0.0,0.0,0.0,0.0,0.0,0.0,0.0,0.0,0.0,0.0,0.0,0.0,0.0,0.0,0.0,0.0,0.0,0.0,0.0,0.0,0.0,0.0,0.0,0.0,0.0,0.0,0.0,0.0,0.0,0.0,0.0,0.0,0.0,0.0,0.0,0.0,0.0,0.0,0.0,0.0,0.0,0.0,0.0,0.0,0.0,0.0,0.0,0.0,0.0,0.0,0.0,0.0,0.0,0.0,0.0,0.0,0.0,0.0,0.0,0.0,0.0,0.0,0.0,0.0,0.0,0.0,0.0,0.0,0.0,0.0,0.0,0.0,0.0,0.0,0.0,0.0,0.0,0.0,0.0,0.0,0.0,0.0,0.0,0.0,0.0,0.0,0.0,0.0,0.0,0.0,0.0,0.0,0.0,0.0,0.0,0.0,0.0,0.0,0.0,0.0,0.0,0.0,0.0,0.0,0.0,0.0,0.0,0.0,0.0,0.0,0.0,0.0,0.0,0.0,0.0,0.0,0.0,0.0,0.0,0.0,-2.3714,0.0,0.0,0.0,0.0,0.0,0.0,0.0,0.0,0.0,0.0,0.0,0.0,0.0,0.0,0.0,0.0,0.0,0.0,0.0,0.0,0.0,0.0,0.0,0.0,0.0,0.0,0.0,0.0,0.0,0.0,0.0,0.0,0.0,0.0,0.0,0.0,0.0,0.0,0.0,0.0,0.0,0.0,0.0,0.0,0.0,0.0,0.0,0.0,0.0,0.0,0.0,0.0,0.0,0.0,0.0,0.0,0.0,0.0,0.0,0.0,0.0,0.0,0.0,0.0,0.0,0.0,0.0,0.0,0.0,0.0,0.0,0.0,0.0,0.0,0.0,0.0,0.0,0.0,0.0,0.0,0.0,0.0,0.0,0.0,0.0,0.0,0.0,0.0,0.0,0.0,0.0,0.0,0.0,0.0,0.0,0.0,0.0,0.0,0.0,0.0,0.0,0.0,0.0,0.0,0.0,0.0,0.0,0.0,0.0,0.0,0.0,0.0,0.0,0.0,0.0,0.0,-2.4698,0.0,0.0,0.0,0.0,0.0,0.0,0.0,0.0,0.0,0.0,0.0,0.0,0.0,0.0,0.0,0.0,0.0,0.0,0.0,0.0,0.0,0.0,0.0,0.0,0.0,0.0,0.0,0.0,0.0,0.0,0.0,0.0,0.0,0.0,0.0,0.0,0.0,0.0,0.0,0.0,0.0,0.0,0.0,0.0,0.0,0.0,0.0,0.0,0.0,0.0,0.0,0.0,0.0,0.0,0.0,0.0,0.0,0.0,0.0,0.0,0.0,0.0,0.0,0.0,0.0,0.0,0.0,0.0,0.0,0.0,0.0,0.0,0.0,0.0,0.0,0.0,0.0,0.0,0.0,0.0,0.0,0.0,0.0,0.0,0.0,0.0,0.0,0.0,0.0,0.0,0.0,0.0,0.0,0.0,0.0,0.0,0.0,0.0,0.0,0.0,0.0,0.0,0.0,0.0,0.0,0.0,0.0,0.0,-2.5897,-2.6355,-2.6333,-2.665,-2.6923,-2.7112,-2.5824,-2.5456,-2.573,-2.5077,0.0,0.0,0.0,0.0,0.0,0.0,0.0,0.0,0.0,0.0,0.0,0.0,0.0,0.0,0.0,0.0,0.0,0.0,0.0,0.0,0.0,0.0,0.0,0.0,0.0,0.0,0.0,0.0,0.0,0.0,0.0,0.0,0.0,0.0,0.0,0.0,0.0,0.0,-2.2734,-2.2669,-2.307,-2.3831,-2.3149,0.0,0.0,0.0,0.0,0.0,0.0,0.0,0.0,0.0,0.0,0.0,0.0,0.0,0.0,0.0,0.0,0.0,0.0,0.0,0.0,0.0,0.0,0.0,0.0,0.0,0.0,0.0,0.0,0.0,0.0,0.0,0.0,0.0,0.0,0.0,0.0,0.0,0.0,0.0,0.0,0.0,0.0,0.0,-2.1875,-2.2798,0.0,0.0,0.0,0.0,0.0,0.0,0.0,0.0,0.0,0.0,0.0,0.0,0.0,-2.4494,-2.4835,-2.5445,-2.5964,-2.6319,-2.6839,-2.7137,-2.7217,-2.7083,-2.7053,-2.7117,-2.7085,0.0,-2.7134,-2.6158,0.0,0.0,0.0,0.0,0.0,0.0,0.0,0.0,0.0,0.0,0.0,0.0,0.0,0.0,0.0,0.0,0.0,0.0,0.0,0.0,0.0,0.0,0.0,0.0,0.0,0.0,0.0,0.0,0.0,0.0,0.0,0.0,0.0,0.0,0.0,0.0,-2.2242,-2.3199,-2.3631,-2.361,-2.4068,-2.4899,-2.4083,-2.4204,-2.5007,-2.542,0.0,0.0,0.0,0.0,0.0,0.0,0.0,0.0,0.0,0.0,0.0,0.0,0.0,0.0,0.0,0.0,0.0,0.0,0.0,0.0,0.0,0.0,0.0,0.0,0.0,0.0,0.0,0.0,0.0,0.0,0.0,0.0,0.0,0.0,0.0,0.0,0.0,0.0,0.0,-2.1845,-2.3053,-2.3368,-2.3585,-2.3867,0.0,0.0,0.0,0.0,0.0,0.0,0.0,0.0,0.0,-2.4233,-2.4899,-2.4897,-2.4123,-2.6017,-2.664,-2.5938,-2.6934,-2.7434,-2.7465,-2.7355,-2.7355,-2.7386,-2.7434,-2.7526,-2.7565,-2.707,-2.7122,-2.737,0.0,0.0,0.0,0.0,-2.3374,-2.3473,0.0,0.0,0.0,0.0,0.0,0.0,0.0,0.0,0.0,0.0,0.0,0.0,0.0,0.0,0.0,-2.059,0.0,0.0,0.0,0.0,0.0,0.0,0.0,0.0,0.0,0.0,0.0,-2.1954,-2.3468,-2.4312,-2.4538,-2.4516,-2.4856,-2.5478,-2.4865,-2.4981,-2.5585,-2.5601,-2.5599,0.0,0.0,0.0,0.0,0.0,0.0,0.0,0.0,0.0,0.0,0.0,0.0,0.0,0.0,0.0,0.0,0.0,0.0,0.0,0.0,0.0,0.0,0.0,0.0,0.0,0.0,0.0,0.0,0.0,0.0,0.0,0.0,0.0,0.0,0.0,0.0,0.0,0.0,-2.2786,-2.3868,-2.385,-2.4039,-2.4474,0.0,0.0,0.0,0.0,0.0,0.0,-2.4975,-2.4772,-2.4723,-2.4905,-2.5642,-2.5602,-2.4712,-2.6765,-2.7226,-2.6153,-2.7261,-2.7748,-2.7689,-2.7689,-2.7707,-2.7748,-2.7736,-2.7748,-2.7818,-2.7689,-2.76,-2.7457,-2.6896,-2.6463,-2.6121,-2.5393,-2.5347,-2.5648,0.0,0.0,0.0,0.0,0.0,0.0,0.0,0.0,0.0,0.0,0.0,0.0,0.0,0.0,-1.9346,-1.9725,-2.0592,-2.0845,0.0,0.0,0.0,0.0,0.0,0.0,0.0,0.0,0.0,-2.293,-2.3786,-2.4618,-2.5421,-2.5376,-2.541,-2.5493,-2.5464,-2.5459,-2.5504,-2.557,-2.5589,-2.5605,0.0,0.0,0.0,0.0,0.0,0.0,0.0,0.0,0.0,0.0,0.0,0.0,0.0,0.0,0.0,0.0,0.0,0.0,0.0,0.0,0.0,0.0,0.0,0.0,0.0,0.0,0.0,0.0,0.0,0.0,0.0,0.0,0.0,0.0,0.0,0.0,0.0,0.0,0.0,-2.3985,-2.4061,0.0,0.0,0.0,0.0,-2.4955,-2.4151,-2.4172,-2.5486,-2.5369,-2.5838,-2.7085,-2.6459,-2.6684,-2.7951,-2.7466,-2.7546,-2.8166,-2.8237,-2.8273,-2.8273,-2.8174,-2.8174,-2.8174,-2.8228,-2.8246,-2.8146,-2.7818,-2.7677,-2.7592,-2.7624,-2.7512,-2.7296,-2.7109,-2.6987,-2.6892,0.0,0.0,0.0,0.0,0.0,0.0,0.0,0.0,0.0,0.0,0.0,0.0,0.0,-1.9206,-1.9433,-2.015,-2.0193,-2.0451,-2.1124,0.0,0.0,0.0,0.0,0.0,0.0,0.0,-2.3393,-2.3848,-2.4683,-2.527,-2.5561,-2.554,-2.5537,-2.5566,-2.5559,-2.5561,-2.5566,-2.5584,-2.562,-2.5663,-2.5689,-2.5707,0.0,0.0,0.0,0.0,0.0,0.0,0.0,0.0,0.0,0.0,0.0,0.0,0.0,0.0,0.0,0.0,0.0,0.0,0.0,0.0,0.0,0.0,0.0,0.0,0.0,0.0,0.0,0.0,0.0,0.0,0.0,0.0,0.0,0.0,0.0,0.0,0.0,-2.2901,-2.3031,0.0,-2.4927,-2.425,-2.3999,-2.4625,-2.4422,-2.4391,-2.4672,-2.5072,-2.5479,-2.5882,-2.6602,-2.6977,-2.6965,-2.7804,-2.8106,-2.7864,-2.8316,-2.8543,-2.8543,-2.8518,-2.8518,-2.8518,-2.8492,-2.8466,-2.8388,-2.8264,-2.8063,-2.7871,-2.7888,-2.7766,-2.7647,-2.8058,-2.7834,-2.7385,0.0,0.0,0.0,0.0,0.0,0.0,0.0,0.0,0.0,0.0,0.0,-1.9162,-1.9113,-1.8961,-1.914,-1.9824,-1.9807,-2.0007,-2.0694,0.0,0.0,0.0,0.0,0.0,0.0,-2.3528,-2.4335,-2.4743,-2.5345,-2.562,-2.559,-2.5606,-2.5598,-2.5597,-2.5602,-2.5762,-2.6031,-2.6031,-2.6052,-2.6131,-2.644,-2.6546,-2.6496,0.0,0.0,0.0,0.0,0.0,0.0,0.0,0.0,0.0,0.0,0.0,0.0,0.0,0.0,0.0,0.0,0.0,0.0,0.0,0.0,0.0,0.0,0.0,0.0,0.0,0.0,0.0,0.0,0.0,0.0,0.0,0.0,0.0,0.0,-2.1354,-2.2315,-2.1995,-2.2265,-2.2987,-2.432,-2.4143,-2.4103,-2.4543,-2.4596,-2.4771,-2.5097,-2.5576,-2.6029,-2.6454,-2.7515,-2.7807,-2.725,-2.8407,-2.8686,-2.8105,-2.8612,-2.8839,-2.8804,-2.8834,-2.8839,-2.8803,-2.8749,-2.8694,-2.8619,-2.8612,-2.8466,-2.821,-2.8116,-2.795,-2.7829,-2.8247,-2.8028,-2.7577,0.0,0.0,0.0,0.0,0.0,0.0,0.0,0.0,0.0,0.0,-1.924,-1.8964,-1.8877,-1.8587,-1.8457,-1.8664,-1.9434,-1.9542,-1.8644,-2.0523,0.0,0.0,0.0,0.0,-2.3852,-2.4115,-2.4682,-2.559,-2.5659,-2.5664,-2.5604,-2.5603,-2.5605,-2.5604,-2.5599,-2.6056,-2.6871,-2.6889,-2.6926,-2.7,-2.7843,-2.8201,-2.8082,0.0,0.0,0.0,0.0,0.0,0.0,0.0,0.0,0.0,0.0,0.0,0.0,0.0,0.0,0.0,0.0,0.0,0.0,0.0,0.0,0.0,0.0,0.0,0.0,0.0,0.0,0.0,0.0,0.0,0.0,0.0,0.0,0.0,-2.0174,-2.1315,-2.2029,-2.1371,-2.184,-2.2562,-2.351,-2.4212,-2.4626,-2.4682,-2.4695,-2.5319,-2.6749,-2.6879,-2.7562,-2.8997,-2.9151,-2.9185,-2.9112,-2.9249,-2.9228,-2.9112,-2.9144,-2.9115,-2.9015,-2.9062,-2.9056,-2.902,-2.9026,-2.8975,-2.8905,-2.8834,-2.8773,-2.8688,-2.8344,-2.8102,-2.7913,-2.772,-2.767,-2.764,0.0,0.0,0.0,0.0,0.0,0.0,0.0,0.0,0.0,0.0,-1.918,-1.8825,-1.8569,-1.8059,-1.7825,-1.8027,-1.8184,-1.8249,-1.8246,0.0,0.0,0.0,0.0,0.0,-2.3889,-2.4606,-2.5169,-2.5535,-2.5593,-2.5625,-2.56,-2.5597,-2.5577,-2.5526,-2.5532,-2.5638,-2.5893,-2.7013,-2.7508,-2.7591,-2.7961,-2.8092,-2.8039,0.0,0.0,0.0,0.0,0.0,0.0,0.0,0.0,0.0,0.0,0.0,0.0,0.0,0.0,0.0,0.0,0.0,0.0,0.0,0.0,0.0,0.0,0.0,0.0,0.0,0.0,0.0,0.0,0.0,0.0,0.0,-2.2824,-2.2637,-2.1215,-2.1259,-2.1362,-2.1185,-2.1776,-2.2534,-2.3364,-2.411,-2.4545,-2.4564,-2.4596,-2.4783,-2.5128,-2.6321,-2.7177,-2.7625,-2.8721,-2.9334,-2.9455,-2.9414,-2.9353,-2.931,-2.8741,-2.8769,-2.9267,-2.8762,-2.8817,-2.9366,-2.9302,-2.9243,-2.9171,-2.913,-2.8984,-2.8808,-2.8598,-2.8478,-2.8457,-2.8887,-2.8979,-2.8826,0.0,0.0,0.0,0.0,0.0,0.0,0.0,0.0,0.0,0.0,-1.8945,-1.8589,-1.8153,-1.7642,-1.7318,-1.7344,-1.7278,-1.7339,-1.7574,0.0,0.0,0.0,0.0,-2.3549,-2.4226,-2.4854,-2.5253,-2.5363,-2.5441,-2.5434,-2.5343,-2.5427,-2.5401,-2.5286,-2.5332,-2.5492,-2.5832,-2.6732,-2.7321,-2.7699,-2.8179,-2.8607,-2.8927,-2.855,-2.8395,-2.8326,-2.7999,-2.7822,-2.7746,-2.7585,0.0,0.0,0.0,0.0,0.0,0.0,0.0,0.0,0.0,0.0,0.0,0.0,0.0,0.0,0.0,0.0,0.0,0.0,0.0,0.0,0.0,0.0,0.0,0.0,-2.238,-2.2303,-2.1407,-2.1412,-2.1418,-2.1142,-2.17,-2.2451,-2.3322,-2.4078,-2.4547,-2.4547,-2.4596,-2.4794,-2.5148,-2.6071,-2.6797,-2.7264,-2.8371,-2.9027,-2.9135,-2.9401,-2.9512,-2.9471,-2.9057,-2.907,-2.9474,-2.9061,-2.9139,-2.9568,-2.9512,-2.9453,-2.9407,-2.9307,-2.9225,0.0,0.0,0.0,0.0,0.0,-2.9098,-2.896,0.0,0.0,0.0,0.0,0.0,0.0,0.0,0.0,0.0,0.0,0.0,-1.834,-1.7738,-1.7256,-1.6926,-1.6722,-1.667,-1.6722,0.0,0.0,0.0,-2.2055,-2.2648,-2.3392,-2.4445,-2.4777,-2.4969,-2.5109,-2.5178,-2.5101,-2.4935,-2.5098,-2.5097,-2.4941,-2.4989,-2.5397,-2.6085,-2.6148,-2.6569,-2.7323,-2.8203,-2.917,-3.0037,-2.9346,-2.9091,-2.8977,-2.8224,-2.7944,-2.8039,-2.8731,0.0,0.0,0.0,0.0,0.0,0.0,0.0,0.0,0.0,0.0,0.0,0.0,0.0,0.0,0.0,0.0,0.0,0.0,0.0,0.0,0.0,0.0,0.0,0.0,-2.1273,-2.1124,-2.1086,-2.1582,-2.169,-2.1004,-2.1652,-2.2436,-2.3176,-2.4148,-2.4729,-2.4746,-2.4807,-2.5261,-2.6189,0.0,0.0,0.0,0.0,-2.8397,-2.8518,-2.9225,-2.957,-2.9607,-2.9589,-2.9587,-2.9632,-2.9607,-2.9652,-2.9734,-2.966,-2.9626,-2.9608,-2.9491,-2.9429,-2.9384,-2.9072,-2.8874,-2.8746,-2.8631,-2.8594,-2.8579,0.0,0.0,0.0,0.0,0.0,0.0,0.0,0.0,0.0,-1.8996,-1.8571,-1.808,-1.7528,-1.6869,-1.6554,-1.6763,-1.6421,-1.6474,0.0,0.0,-1.9416,-1.9981,-2.15,-2.2584,-2.3087,-2.3973,-2.4485,-2.4561,-2.4615,-2.4568,-2.4448,-2.4538,-2.4542,-2.4504,-2.4476,-2.4538,-2.4727,-2.5153,-2.5447,-2.5762,-2.7179,-2.8222,-2.8981,-2.9452,-2.9614,-2.955,-2.9494,-2.9437,-2.9333,-2.8954,-2.8669,-2.8362,-2.7846,0.0,0.0,0.0,0.0,0.0,0.0,0.0,0.0,0.0,0.0,0.0,0.0,0.0,0.0,0.0,0.0,0.0,0.0,0.0,0.0,-2.3038,-2.2494,-2.1755,-2.1103,-2.1026,-2.0765,-1.9972,-2.1708,-2.2808,-2.2383,-2.4248,-2.5549,-2.5724,-2.575,-2.6139,-2.7022,-2.639,-2.6434,-2.738,-2.7431,-2.7846,-2.8647,-2.8711,-2.9043,-2.9664,0.0,0.0,-2.982,-2.9249,-2.9333,-2.9937,-2.9874,-2.9799,-2.9753,-2.9682,-2.9605,-2.9537,-2.9314,-2.9208,-2.9193,-2.9148,-2.9116,-2.906,0.0,0.0,0.0,0.0,0.0,0.0,0.0,0.0,0.0,0.0,-1.8356,-1.7902,-1.7358,-1.6799,-1.649,-1.6528,-1.6394,0.0,0.0,-1.822,-1.8906,-1.9331,-2.0828,-2.1814,-2.2192,-2.3218,-2.3836,-2.3989,-2.4081,-2.4045,-2.395,-2.4045,-2.4045,-2.3911,-2.3987,-2.3949,-2.3909,-2.4145,-2.452,-2.5016,-2.5677,-2.6686,-2.7906,-2.9026,-2.9514,-2.9625,-2.9713,-2.9748,-2.9691,-2.9399,-2.9217,-2.9057,-2.8645,-2.8143,-2.7752,0.0,0.0,0.0,0.0,0.0,0.0,0.0,0.0,0.0,0.0,0.0,0.0,0.0,0.0,-2.2767,-2.4444,0.0,-2.1665,-2.2303,-2.1639,-2.0885,-2.0471,-2.0714,-2.095,-2.1001,-2.2046,-2.2929,-2.3401,-2.4967,-2.5803,-2.5458,-2.6273,-2.6756,-2.6801,-2.6775,-2.6801,-2.6949,-2.7593,-2.8013,-2.816,-2.8881,-2.9444,-2.9808,-2.9475,-2.9549,-2.9988,-2.9611,-2.9698,-3.0109,-3.0052,-3.0015,-2.994,-2.9841,-2.9775,-2.9739,-2.9589,-2.9458,-2.9364,-2.9401,-2.9342,-2.9249,0.0,0.0,0.0,0.0,0.0,0.0,0.0,0.0,0.0,0.0,-1.8028,-1.7584,-1.7034,-1.6504,-1.6182,0.0,0.0,0.0,0.0,-1.7647,-1.8085,-1.8616,-1.9864,-2.0746,-2.1167,-2.2321,-2.3053,-2.3298,-2.3378,-2.3374,-2.3346,-2.3468,-2.3424,-2.3212,-2.3361,-2.3383,-2.3293,-2.3342,-2.3762,-2.4406,-2.4557,-2.5482,-2.6908,-2.8203,-2.8931,-2.9299,-2.9359,-2.9457,-2.9551,-2.9589,-2.9532,-2.9453,-2.9453,-2.8925,-2.8326,-2.8327,-2.788,0.0,0.0,0.0,0.0,0.0,0.0,0.0,0.0,-2.4248,-2.4366,-2.416,-2.3049,-2.2566,-2.4069,-2.2326,-2.0905,-2.1611,-2.0842,-2.0153,-2.0104,-2.0713,-2.1474,-2.2338,-2.252,-2.3083,-2.4473,-2.5603,-2.6005,-2.5465,-2.6745,-2.7409,-2.7064,-2.7371,-2.7374,-2.6991,-2.7965,-2.8303,-2.7847,-2.9131,-2.9832,-2.9972,-3.0004,-3.0072,-3.0151,-3.0139,-3.0177,-3.0245,-3.0226,-3.0185,-3.0136,-3.0022,-2.994,-2.9945,-2.9882,-2.9717,-2.9512,-2.9529,-2.9495,-2.9394,0.0,0.0,0.0,0.0,0.0,0.0,0.0,0.0,0.0,0.0,0.0,0.0,0.0,0.0,0.0,0.0,0.0,0.0,-1.62,-1.6237,-1.6237,-1.6202,-1.7735,-1.8834,-1.9285,-2.0983,-2.199,-2.2258,-2.2405,-2.2432,-2.2368,-2.2485,-2.2538,-2.2512,-2.2459,-2.2485,-2.2546,-2.3028,-2.3299,-2.3485,-2.4822,-2.5593,-2.6018,-2.6909,-2.7763,-2.8529,-2.8585,-2.8777,-2.8979,-2.8929,-2.8952,-2.8975,-2.8906,-2.8828,-2.8737,-2.8805,-2.8787,-2.8607,-2.7803,-2.7345,-2.7132,-2.7338,-2.7505,-2.721,0.0,-2.5866,-2.5897,-2.4485,-2.4047,-2.4169,-2.5005,-2.366,-2.2681,-2.3476,-2.2223,-2.1135,-2.1124,-2.1271,-2.1703,-2.2566,-2.3141,-2.3582,-2.3888,-2.5411,-2.6626,-2.7256,-2.7542,-2.8294,-2.9691,-2.844,-2.8001,-2.8715,-2.8128,-2.8122,-2.8752,-2.8943,-2.9407,-3.0157,-3.016,-3.0202,-3.0279,-3.0269,-3.0314,-3.0367,-3.0309,-3.0273,-3.028,-3.0209,-3.0138,-3.0085,-3.0067,-2.9967,-2.9836,-2.979,-2.9718,-2.9663,0.0,0.0,0.0,0.0,0.0,0.0,0.0,0.0,0.0,0.0,0.0,0.0,0.0,0.0,0.0,0.0,0.0,0.0,-1.5807,-1.5476,-1.5313,-1.5329,-1.65,-1.7522,-1.8336,-1.9827,-2.0783,-2.1163,-2.1411,-2.1579,-2.1639,-2.1681,-2.1711,-2.1728,-2.2175,-2.2374,-2.2438,-2.2931,-2.3457,-2.3967,-2.4031,-2.4674,-2.5625,-2.5562,-2.62,-2.7195,-2.7819,-2.8112,0.0,0.0,-2.827,-2.8244,-2.8236,-2.7913,-2.7677,-2.8283,-2.8034,-2.7666,-2.7985,-2.7616,-2.7255,-2.7942,-2.8431,-2.8307,-2.6711,-2.6968,-2.7041,-2.5367,-2.4975,-2.5039,-2.5372,-2.3991,-2.3099,-2.3937,-2.3036,-2.2213,-2.2186,-2.1779,-2.2038,-2.3449,-2.3378,-2.3593,-2.463,-2.5842,-2.6506,-2.6333,-2.7729,-2.8653,-2.8854,-2.9121,-2.9225,-2.9129,-2.9221,-2.9221,-2.9087,-2.9579,-3.0002,-3.0323,-3.0374,-3.0394,-3.0414,-3.0424,-3.0434,-3.0451,-3.0393,-3.0362,-3.0356,-3.0305,-3.0228,-3.0203,-3.0167,-3.0121,-3.0049,-2.9956,-2.9874,-2.9808,0.0,0.0,0.0,0.0,0.0,0.0,0.0,0.0,0.0,0.0,0.0,0.0,0.0,0.0,0.0,0.0,0.0,0.0,0.0,-1.511,-1.4798,-1.4919,-1.5608,-1.6423,-1.7357,-1.8615,-1.9495,-1.9967,-2.0286,-2.0536,-2.0717,-2.0782,-2.0909,-2.1116,-2.1708,-2.2043,-2.2282,-2.2841,-2.3465,-2.4058,-2.3586,-2.4137,-2.5211,-2.4756,-2.5074,-2.5898,-2.6931,-2.7304,0.0,0.0,-2.7407,-2.7317,-2.7352,-2.6981,-2.6691,-2.7403,-2.7145,-2.6817,-2.7682,-2.757,-2.7426,-2.8343,-2.8983,-2.9063,-2.7869,-2.8084,-2.8047,-2.6315,-2.6107,-2.6068,-2.559,-2.4657,-2.4077,-2.4501,-2.3811,-2.3231,-2.3217,-2.2702,-2.2799,-2.4117,-2.3872,-2.4165,-2.5648,-2.6137,-2.6314,-2.6156,-2.7854,-2.8833,-2.8681,-2.9815,-3.0182,-2.9593,-3.0153,-3.0181,-2.9593,-2.997,-3.0142,-3.0089,-3.0163,-3.0182,-3.0192,-3.0452,-3.0558,-3.0549,-3.0482,-3.0462,-3.0452,-3.0398,-3.0371,-3.0344,-3.03,-3.0271,-3.024,-3.0155,-3.006,-2.9978,0.0,0.0,0.0,0.0,0.0,0.0,0.0,0.0,0.0,0.0,0.0,0.0,0.0,0.0,0.0,0.0,0.0,0.0,0.0,-1.5208,-1.4706,-1.4712,-1.5051,-1.5474,-1.6061,-1.7302,-1.8154,-1.8551,-1.8979,-1.9251,-1.9447,-1.9722,-2.0177,-2.0803,-2.0834,-2.1212,-2.1855,-2.2665,-2.3035,-2.3111,-2.4014,-2.4471,-2.4664,-2.4744,-2.4768,-2.4894,-2.5878,0.0,0.0,0.0,-2.6267,-2.6147,-2.623,-2.618,0.0,-2.6319,-2.6522,-2.6725,-2.689,-2.7222,-2.771,-2.857,-2.9049,-2.931,-2.932,-2.9348,-2.8882,-2.7207,-2.7485,-2.7508,-2.5811,-2.6094,-2.6344,-2.558,-2.4668,-2.4113,-2.4238,-2.4181,-2.414,-2.4199,-2.4868,-2.5707,-2.6652,-2.6029,-2.6236,-2.7885,-2.8087,-2.8858,-3.0535,-3.061,-3.0576,-3.0556,-3.0574,-3.0576,-3.0557,-2.9754,-2.9342,-2.934,-2.9351,-2.9358,-2.946,-3.0304,-3.0699,-3.069,-3.0616,-3.0586,-3.0602,-3.0588,-3.0559,-3.0481,-3.0491,-3.0456,-3.039,-3.0389,-3.0297,-3.019,0.0,0.0,0.0,0.0,0.0,0.0,0.0,0.0,0.0,0.0,0.0,0.0,0.0,0.0,0.0,0.0,0.0,0.0,0.0,-1.4958,-1.4424,-1.4898,-1.4563,-1.4841,-1.5831,-1.6515,-1.7107,-1.7706,-1.7879,-1.8168,-1.8545,-1.8931,-1.9376,-1.9803,-2.0275,-2.0891,-2.1598,-2.1986,-2.2408,-2.2819,-2.3128,-2.3304,-2.3348,-2.358,-2.3651,-2.3649,0.0,0.0,0.0,0.0,-2.5379,-2.5319,-2.5335,-2.4997,-2.4498,-2.4084,-2.4183,-2.4526,-2.5201,-2.5721,-2.6488,-2.8022,-2.8791,-2.9353,-2.9985,-3.0201,-2.9799,-2.8102,-2.8444,-2.8327,-2.5995,-2.608,-2.6295,-2.5662,-2.5104,-2.4861,-2.5117,-2.4647,-2.4507,-2.5111,-2.4882,-2.5035,-2.5974,-2.5671,-2.5947,-2.7216,-2.7804,-2.8387,-2.9,-3.0122,-3.07,-3.067,-3.0665,-3.04,-2.9875,-2.9583,-2.9434,-2.9433,-2.9966,-3.0244,-3.0261,-3.0574,-3.0704,-3.0707,-3.0673,-3.0645,-3.0602,-3.0602,-3.0585,-3.0509,-2.993,-3.0037,-3.0453,-2.9825,-2.994,-3.0367,0.0,0.0,0.0,0.0,0.0,0.0,0.0,0.0,0.0,0.0,0.0,0.0,0.0,0.0,0.0,0.0,0.0,0.0,0.0,0.0,-1.4651,-1.5,-1.4543,-1.4663,-1.5478,-1.5888,-1.6281,-1.6642,-1.6883,-1.7225,-1.7686,-1.81,-1.8685,-1.9405,-1.9843,-2.0425,-2.1112,-2.125,-2.1579,-2.2035,-2.2053,-2.2226,-2.2503,-2.2523,-2.264,0.0,0.0,0.0,0.0,-2.4292,-2.4389,-2.4405,-2.4648,-2.4413,-2.4,-2.3623,-2.3517,-2.3611,-2.4258,-2.4739,-2.5421,-2.6934,-2.7676,-2.8356,-2.9698,-3.0082,-2.9873,-2.884,-2.9158,-2.889,-2.6598,-2.6431,-2.6427,-2.5802,-2.5376,-2.5208,-2.5483,-2.504,-2.4884,-2.5524,-2.5046,-2.5039,-2.599,-2.5648,-2.5918,-2.7267,-2.785,-2.8432,-2.91,-3.0183,-3.0774,-3.0742,-3.0435,-3.0018,-2.9519,-2.8879,-2.8578,-2.8617,-2.9732,-3.0278,-3.0273,-3.0594,-3.0734,-3.073,-3.0717,-3.0678,-3.063,-3.0644,-3.063,-3.0576,-3.0016,-3.0137,-3.056,-2.9962,-3.0072,-3.052,0.0,0.0,0.0,0.0,0.0,0.0,0.0,0.0,0.0,0.0,0.0,0.0,0.0,0.0,0.0,0.0,0.0,0.0,0.0,0.0,0.0,-1.509,-1.4998,-1.4949,-1.4903,-1.5424,-1.5614,-1.5513,-1.5925,-1.6369,-1.6871,-1.719,-1.8101,-1.9436,-1.9387,-1.9718,-2.032,-2.0432,-2.0544,-2.0733,-2.0828,-2.1295,-2.1951,-2.158,0.0,0.0,0.0,0.0,0.0,-2.3068,-2.3363,-2.3478,-2.4184,-2.442,-2.4491,-2.4705,-2.441,-2.403,-2.4034,-2.4237,-2.4621,-2.5449,-2.5879,-2.6605,-2.8637,-2.9139,-2.9223,-2.9341,-2.9596,-2.923,-2.745,-2.7065,-2.6767,-2.597,-2.5393,-2.5116,-2.5332,-2.5331,-2.5311,-2.5379,-2.533,-2.5685,-2.6644,-2.5863,-2.6097,-2.7992,0.0,-2.8915,-3.056,-3.0741,-3.0801,-3.08,-2.9955,-2.9484,-2.9429,-2.7791,-2.6978,-2.7017,-2.875,-2.9549,-2.9526,-3.0403,-3.0804,-3.0799,-3.0739,-3.0703,-3.0703,-3.0703,-3.0704,-3.0697,-3.0652,-3.0652,-3.0688,-3.0651,-3.0622,-3.0585,0.0,0.0,0.0,0.0,0.0,0.0,0.0,0.0,0.0,0.0,0.0,0.0,0.0,0.0,0.0,0.0,0.0,0.0,0.0,0.0,0.0,0.0,0.0,0.0,0.0,0.0,0.0,0.0,-1.548,-1.5773,-1.6513,-1.6716,-1.7286,-1.8157,-1.8005,-1.8343,-1.8955,-1.8827,-1.908,-1.9697,0.0,-2.0195,-2.0527,0.0,0.0,0.0,0.0,0.0,-2.2056,-2.2423,-2.283,-2.3334,-2.4241,-2.4202,-2.3897,-2.4179,-2.429,-2.4177,-2.36,-2.4015,-2.4705,-2.5005,-2.5393,-2.624,-2.8464,-2.9038,-2.9063,-2.8848,-2.9269,-2.8878,-2.6342,-2.5892,-2.5753,-2.5296,-2.4642,-2.4398,-2.496,-2.5099,-2.5165,-2.5168,-2.5254,-2.544,-2.5796,-2.5601,-2.5938,-2.7149,-2.7793,-2.832,-2.8754,-3.0069,-3.0791,-3.0794,-2.9943,-2.9189,-2.8532,-2.8144,-2.763,-2.7036,-2.9402,-3.0177,-2.9526,-3.0395,-3.0801,-3.0802,-3.0774,-3.0765,-3.0769,-3.0778,-3.0767,-3.0703,-3.0055,-3.0172,-3.0619,-2.9964,-3.0134,-3.0758,0.0,0.0,0.0,0.0,0.0,0.0,0.0,0.0,0.0,0.0,0.0,0.0,0.0,0.0,0.0,0.0,0.0,0.0,0.0,0.0,0.0,0.0,0.0,0.0,0.0,0.0,0.0,0.0,0.0,0.0,-1.6068,-1.6333,-1.6735,-1.7242,-1.7364,-1.7679,-1.8038,-1.7966,0.0,0.0,0.0,0.0,0.0,0.0,0.0,0.0,0.0,0.0,-2.1257,-2.1896,-2.2651,-2.3463,-2.4405,-2.4512,-2.4337,-2.4749,-2.4695,-2.4482,-2.4208,-2.424,-2.4435,-2.4723,-2.4754,-2.5206,-2.6945,-2.7779,-2.826,-2.8412,-2.8646,-2.8327,-2.6614,-2.6134,-2.5745,-2.5023,-2.4734,-2.4615,-2.4674,-2.4724,-2.4774,-2.4879,-2.5053,-2.5226,-2.5352,-2.5271,-2.5481,-2.6197,-2.7414,-2.8318,-2.8682,-3.001,-3.057,-3.019,-2.9342,-2.8306,-2.7067,-2.7493,-2.748,-2.7011,-2.8886,-2.9488,-2.901,-2.9884,-3.0267,-3.0255,0.0,-3.079,-3.0798,-3.0789,-3.0808,-3.0754,-3.0268,-3.0341,-3.0672,-3.0185,-3.0314,-3.0821,0.0,0.0,0.0,0.0,0.0,0.0,0.0,0.0,0.0,0.0,-1.8561,0.0,0.0,0.0,0.0,0.0,0.0,0.0,0.0,0.0,0.0,0.0,0.0,0.0,0.0,0.0,0.0,0.0,0.0,0.0,0.0,0.0,0.0,0.0,0.0,0.0,0.0,0.0,0.0,0.0,0.0,0.0,0.0,0.0,0.0,0.0,0.0,-2.0348,-2.0422,-2.152,-2.2529,-2.3475,-2.4402,-2.4911,-2.5225,-2.5592,-2.5347,-2.5023,-2.5291,-2.4752,-2.4208,-2.4445,-2.4096,-2.4018,-2.5155,-2.6168,-2.7139,-2.803,-2.7999,-2.7674,-2.7231,-2.6685,-2.5882,-2.4683,-2.4782,-2.4801,-2.4209,-2.4118,-2.4209,-2.4473,-2.4757,-2.4993,-2.5128,-2.4908,-2.492,-2.5348,-2.6946,-2.8314,-2.9249,-2.9975,-2.9964,-2.9078,-2.8312,-2.7172,-2.5613,-2.6515,-2.6939,-2.6831,-2.7831,-2.8242,-2.8164,-2.9033,-2.9452,-2.9569,-3.0306,-3.0632,-3.0645,-3.0762,-3.0746,-3.0651,-3.0758,-3.0802,-3.0804,-3.0799,-3.0759,-3.0821,0.0,0.0,0.0,0.0,0.0,0.0,0.0,0.0,0.0,0.0,-1.8641,-1.8524,0.0,0.0,0.0,0.0,0.0,0.0,0.0,0.0,0.0,0.0,0.0,0.0,0.0,0.0,0.0,0.0,0.0,0.0,0.0,0.0,0.0,0.0,0.0,0.0,0.0,0.0,0.0,0.0,0.0,0.0,0.0,0.0,0.0,0.0,-2.1017,-2.1041,-2.0825,-2.169,-2.2159,-2.2568,-2.3325,-2.4439,-2.5375,-2.5217,-2.5765,-2.6332,-2.5775,-2.5287,-2.4785,-2.4162,-2.3621,-2.371,-2.5547,-2.5853,-2.6236,-2.7943,-2.7778,-2.7017,-2.5986,-2.514,-2.4185,-2.3064,-2.2575,-2.2459,-2.2716,-2.2928,-2.3312,-2.393,-2.4296,-2.4591,-2.486,-2.4577,-2.4661,-2.5264,-2.5936,-2.6872,-2.8187,-2.8456,-2.8146,-2.7271,-2.7097,-2.6578,-2.5615,-2.6478,-2.6585,-2.5943,-2.7546,-2.7924,-2.7266,-2.8136,-2.8908,-2.9589,-2.9745,0.0,-2.986,-3.0523,-3.0406,-2.986,-3.0543,-3.0801,-3.0798,-3.0804,-3.0769,-3.0826,0.0,0.0,0.0,0.0,0.0,0.0,0.0,-1.9067,-1.8983,-1.8948,-1.8807,-1.8679,-1.8659,-1.843,-1.8645,0.0,0.0,0.0,0.0,0.0,0.0,0.0,0.0,0.0,0.0,0.0,-1.753,-1.7352,0.0,0.0,0.0,-1.6103,-1.585,-1.5493,0.0,0.0,0.0,0.0,0.0,0.0,0.0,0.0,0.0,0.0,0.0,0.0,0.0,-2.0959,-2.0649,-2.0974,-2.1179,-2.1539,-2.2901,-2.3692,-2.4172,-2.4589,-2.5167,-2.5658,-2.5401,-2.4995,-2.4543,-2.4257,-2.3805,-2.3638,-2.4288,-2.4928,-2.5615,-2.6335,-2.6467,-2.6192,-2.5163,-2.5002,-2.4511,-2.2867,-2.2745,-2.2799,-2.2648,-2.2777,-2.2922,-2.2964,-2.3231,-2.3533,-2.3878,-2.3562,-2.3841,-2.5005,-2.5178,-2.5834,-2.726,-2.7358,-2.7191,-2.6815,-2.6352,-2.5952,-2.5587,-2.6004,-2.6252,-2.6331,-2.6754,-2.696,-2.7027,-2.7908,-2.8289,-2.8323,-2.965,-2.9982,-2.9667,-3.0467,-3.0567,-3.0253,-3.066,-3.0807,-3.0794,-3.0789,-3.0774,-3.0803,0.0,0.0,0.0,0.0,0.0,0.0,0.0,-1.9084,-1.9087,-1.9036,-1.9,-1.9002,-1.9076,-1.8693,-1.8724,0.0,0.0,0.0,0.0,0.0,0.0,0.0,0.0,0.0,0.0,0.0,0.0,-1.8149,-1.7707,0.0,0.0,0.0,0.0,0.0,-1.5867,-1.5981,0.0,0.0,0.0,0.0,0.0,-1.8497,0.0,0.0,0.0,0.0,0.0,-2.0851,-2.0623,-2.022,-2.0271,-2.0751,-2.2245,-2.2608,-2.2643,-2.347,-2.3971,-2.4328,-2.4592,-2.4248,-2.3879,-2.4036,-2.3795,-2.3447,-2.3067,-2.399,-2.4926,-2.4934,-2.5231,-2.5272,-2.4566,-2.4976,-2.4751,-2.2757,-2.2797,-2.2928,-2.2525,-2.2311,-2.2214,-2.2163,-2.2131,-2.2389,-2.3159,-2.2747,-2.3066,-2.4588,-2.4605,-2.5101,-2.6376,-2.6605,-2.666,-2.6521,-2.5866,-2.5525,-2.557,-2.5595,-2.594,-2.6619,-2.6005,-2.6056,-2.6741,-2.7422,-2.7475,-2.7112,-2.9318,-2.9901,-2.9394,-3.0389,-3.0704,-3.0565,-3.0732,-3.0807,-3.0804,-3.0793,-3.0799,-3.0794,0.0,0.0,0.0,0.0,0.0,0.0,0.0,-1.9033,-1.9101,-1.9087,-1.915,-1.947,-2.0237,-1.9182,-1.8808,0.0,0.0,0.0,0.0,0.0,0.0,0.0,0.0,0.0,0.0,0.0,0.0,-1.8988,-1.8266,0.0,0.0,0.0,0.0,0.0,0.0,-1.6102,-1.6125,-1.681,0.0,0.0,0.0,0.0,0.0,0.0,0.0,0.0,0.0,-2.1184,-2.1313,-2.0207,-2.0085,-2.0486,-2.0859,-2.1159,-2.1439,-2.1467,-2.215,-2.2968,-2.3421,-2.3103,-2.2686,-2.2894,-2.2876,-2.288,-2.3191,-2.3526,-2.4061,-2.5139,-2.485,-2.4382,-2.4354,-2.3987,-2.3259,-2.1752,-2.0926,-2.0659,-2.1267,-2.0347,-2.0303,-2.2147,-2.1491,-2.1586,-2.3378,-2.2751,-2.2752,-2.3989,-2.4279,-2.4772,-2.5572,-2.6304,-2.637,-2.5646,-2.5546,-2.549,-2.5518,-2.5568,-2.5644,-2.5718,-2.5701,-2.5737,-2.5824,-2.5894,-2.6327,-2.7069,-2.8086,-2.8496,0.0,-3.0135,-3.037,-2.9784,-3.0512,-3.0798,-3.0798,-3.0793,-3.0799,-3.0799,0.0,0.0,0.0,0.0,0.0,0.0,-1.8771,-1.8861,-1.9093,-1.9579,-1.9289,-1.9522,-2.0844,-2.0006,-1.9618,-2.0252,0.0,0.0,0.0,0.0,0.0,0.0,0.0,0.0,0.0,0.0,-1.9696,-1.9339,-1.9026,0.0,0.0,0.0,0.0,0.0,0.0,-1.7007,-1.7068,0.0,0.0,0.0,0.0,0.0,0.0,0.0,0.0,0.0,0.0,0.0,-2.1766,-2.0769,-2.0346,-2.0195,-1.9909,-1.9757,-1.9858,-2.1222,-2.1732,-2.1957,-2.2177,-2.2324,-2.2334,-2.2159,-2.2345,-2.254,-2.2591,-2.297,-2.3456,-2.4033,-2.4044,-2.3691,-2.2935,-2.2944,-2.2723,-2.1628,-2.1194,-2.1116,-2.1435,-2.0921,-2.0643,-2.1102,-2.0671,-2.0935,-2.2496,-2.2435,-2.2916,-2.4379,-2.4662,-2.4936,-2.5351,-2.5713,-2.5793,-2.5507,-2.551,-2.5511,-2.557,-2.5599,-2.5591,-2.5613,-2.6204,-2.622,-2.574,-2.6792,-2.7168,-2.7086,-2.8485,-2.8787,0.0,-3.015,-3.0337,-2.9619,-3.0467,-3.0807,-3.0798,-3.0802,-3.0808,-3.0799,0.0,0.0,0.0,0.0,0.0,-1.8584,-1.8603,-1.8715,-1.8984,-1.9482,-1.9307,-1.9595,-2.0782,-2.0718,-2.0625,-2.0644,-2.0154,0.0,0.0,0.0,0.0,0.0,0.0,0.0,0.0,0.0,-2.017,-1.9812,-1.9654,-1.9221,0.0,0.0,-1.8185,-1.7612,0.0,0.0,0.0,0.0,0.0,0.0,0.0,0.0,0.0,0.0,0.0,0.0,0.0,0.0,0.0,0.0,0.0,-2.0195,-1.9559,-1.901,-1.8897,-2.0514,-2.0745,-2.0448,-2.0646,-2.0948,-2.1248,-2.1175,-2.163,-2.2055,-2.1858,-2.2435,-2.3023,-2.3054,-2.3031,-2.2761,-2.1902,-2.1959,-2.1975,0.0,0.0,-2.1455,-2.1706,-2.1246,-2.0637,-2.0069,-2.005,-2.0455,-2.1429,-2.2177,-2.3106,-2.44,-2.4685,-2.4866,-2.5053,-2.5284,-2.5421,-2.548,-2.549,-2.5511,-2.557,-2.5599,-2.5591,-2.5609,-2.6282,-2.6298,-2.5737,-2.6963,-2.7204,-2.6718,-2.8454,-2.8711,0.0,-3.0075,-3.0355,-2.9595,-3.0467,-3.0804,-3.0806,-3.0806,-3.0793,-3.0799,0.0,0.0,0.0,0.0,0.0,0.0,-1.8406,-1.8638,-1.8732,-1.8542,-1.9198,-1.9777,-1.9988,-2.1196,-2.1706,-2.105,-2.0396,0.0,0.0,0.0,0.0,0.0,0.0,0.0,0.0,0.0,-2.0644,-2.0494,-2.0089,-1.9879,-1.9788,-1.9236,-1.8999,-1.8962,0.0,0.0,0.0,0.0,0.0,0.0,0.0,0.0,0.0,0.0,0.0,0.0,0.0,0.0,0.0,0.0,0.0,0.0,0.0,-1.9191,-1.8748,-1.8908,-1.8572,-1.8222,-1.861,-1.8776,-1.9017,-1.9747,-2.0668,-2.1367,-2.1234,-2.1981,-2.2694,-2.2558,-2.1875,-2.1419,-2.1626,-2.104,-2.0737,-2.1491,-2.1149,0.0,-2.1706,-2.0647,-1.9699,-1.9339,-1.9715,-2.0104,-2.0383,-2.1987,-2.3221,-2.3785,-2.4118,0.0,-2.4505,-2.508,-2.5397,-2.5401,-2.548,-2.549,-2.5499,-2.5562,-2.5605,-2.5601,-2.5681,-2.5715,-2.5703,-2.5724,-2.5726,-2.5806,-2.7557,-2.7812,0.0,-2.9837,-3.0359,-2.9597,-3.0462,-3.0806,-3.0804,-3.0802,-3.0798,-3.0799,0.0,0.0,0.0,0.0,0.0,0.0,0.0,-1.8351,-1.858,-1.9101,-1.8903,-1.9112,-2.0293,-2.0793,-2.1167,-2.1505,-2.1274,0.0,0.0,0.0,0.0,0.0,0.0,0.0,0.0,0.0,-2.0957,-2.0775,-2.0561,-2.0361,-2.0196,-2.0147,-2.0062,-2.0032,-2.019,-2.0492,0.0,0.0,0.0,0.0,0.0,0.0,0.0,0.0,0.0,0.0,0.0,0.0,0.0,0.0,0.0,0.0,0.0,0.0,0.0,-1.8417,-1.8136,-1.8183,-1.8762,-1.879,-1.8843,-1.9243,-1.9683,-2.0059,-2.0316,-2.106,-2.1662,-2.1674,-2.1577,-2.1282,-2.0554,-2.0321,-2.0225,-2.0303,-1.9878,-1.9797,-2.0402,-1.9775,-1.9092,-1.8726,-1.9716,-2.0796,-2.1827,-2.3069,-2.3832,-2.3877,-2.4425,-2.4845,-2.4979,-2.5194,-2.5351,-2.5401,-2.5476,-2.5505,-2.5499,-2.5574,-2.5902,-2.6485,-2.6555,-2.6588,-2.6593,-2.6581,-2.6917,-2.7505,-2.8062,-2.8133,-2.8047,-3.0077,-3.0016,-2.8818,-3.0234,-3.0789,-3.081,-3.0807,-3.1184,-3.1695,0.0,0.0,0.0,0.0,0.0,0.0,0.0,-1.8205,-1.8335,-1.8814,-1.8579,-1.8819,-1.9907,-2.0534,-2.1136,-2.1704,-2.1631,0.0,0.0,0.0,0.0,0.0,0.0,0.0,0.0,-2.1305,-2.1294,-2.1087,-2.1071,-2.0991,-2.083,-2.107,-2.1147,-2.1131,-2.1434,-2.1757,0.0,0.0,0.0,0.0,0.0,0.0,-2.6199,0.0,0.0,0.0,0.0,0.0,0.0,0.0,0.0,0.0,0.0,0.0,0.0,0.0,-1.7589,-1.7446,-1.7879,-1.7872,-1.7885,-1.8326,-1.8722,-1.9105,-1.9551,-2.0207,-2.0757,-2.0848,-2.0741,-2.0361,-1.9607,-1.9543,-1.958,-1.9546,-1.928,-1.9228,-1.9648,-1.9404,-1.9329,-1.9774,-2.0058,-2.0867,-2.2622,-2.3221,-2.3424,-2.3246,-2.4298,-2.4905,-2.4741,-2.512,-2.536,-2.5401,-2.5476,-2.5505,-2.5499,-2.5574,-2.6038,-2.6889,-2.6961,-2.6997,-2.7003,-2.7349,-2.7604,-2.7852,-2.8494,-2.8602,0.0,-3.0176,-3.0058,-2.888,-3.0252,-3.0789,-3.0843,-3.1172,-3.1633,-3.2143,0.0,0.0,0.0,0.0,0.0,0.0,0.0,-1.8138,-1.8009,-1.7833,-1.8293,-1.8754,-1.9075,-2.0445,-2.1454,-2.1715,-2.165,0.0,0.0,0.0,0.0,0.0,0.0,0.0,0.0,-2.1361,-2.1617,-2.1448,-2.1648,-2.1691,-2.1598,-2.2,-2.219,-2.2218,-2.2479,-2.2702,0.0,0.0,0.0,0.0,0.0,0.0,0.0,0.0,0.0,0.0,0.0,0.0,0.0,0.0,0.0,0.0,0.0,0.0,0.0,0.0,0.0,0.0,0.0,-1.6187,-1.6425,-1.7145,-1.7875,-1.8478,-1.8821,-1.9359,0.0,-2.006,-1.9581,-1.9024,-1.8921,-1.8898,-1.897,-1.9154,-1.9153,-1.9164,-1.9297,-1.9233,-1.9849,-2.1682,-2.0404,-2.0274,-2.2593,-2.2561,-2.2313,-2.2163,-2.3766,-2.455,-2.4119,-2.486,-2.5348,-2.541,-2.5468,-2.5517,-2.5518,-2.5562,-2.6048,-2.6909,-2.6903,-2.6939,-2.7025,-2.7843,-2.7804,0.0,-2.8806,-2.9079,0.0,-3.0136,-3.0289,-2.9589,-3.0467,-3.0841,-3.0989,-3.1802,-3.2182,-3.2396,0.0,0.0,0.0,0.0,0.0,0.0,0.0,0.0,0.0,0.0,-1.7924,-1.8353,-1.9228,-2.0189,-2.1127,0.0,0.0,0.0,0.0,0.0,0.0,0.0,0.0,0.0,0.0,-2.1458,-2.1853,-2.1853,-2.201,-2.2203,-2.2495,-2.2853,-2.3141,-2.3325,-2.3554,-2.3737,0.0,0.0,0.0,0.0,0.0,0.0,0.0,0.0,0.0,0.0,-2.7968,-2.7514,0.0,0.0,0.0,0.0,0.0,0.0,0.0,0.0,-1.7232,-1.6357,-1.5329,0.0,-1.577,-1.6581,-1.6944,-1.7266,0.0,-1.8363,-1.8865,-1.9008,-1.9506,-1.9641,-1.8807,-1.9359,-1.9596,-1.8469,-1.8339,-1.8408,-1.8616,-1.7668,-1.742,-1.8686,-1.8305,-1.8515,-1.9908,-2.1326,-2.2335,-2.2759,-2.3012,-2.3734,-2.5087,-2.4722,-2.4791,-2.5452,-2.5538,-2.557,-2.557,-2.5579,-2.6048,-2.6898,-2.6287,-2.6356,-2.7017,-2.7214,-2.7552,-2.8026,-2.8429,-2.886,-2.9335,-2.9746,-2.9782,-2.9667,-3.0487,-3.1204,-3.1812,-3.2016,-3.2942,-3.4111,0.0,0.0,0.0,0.0,0.0,0.0,0.0,0.0,0.0,0.0,-1.7766,-1.8104,-1.9189,-2.0022,-2.09,0.0,0.0,0.0,0.0,0.0,0.0,0.0,0.0,0.0,-2.0982,-2.1406,-2.1843,-2.2275,-2.2168,-2.2225,-2.2446,-2.2937,-2.3226,-2.3361,-2.4022,-2.4379,0.0,0.0,0.0,0.0,-2.5794,0.0,0.0,0.0,0.0,0.0,-2.8488,-2.8058,0.0,-2.6387,-2.5389,-2.4402,0.0,0.0,0.0,0.0,-1.7615,-1.6298,-1.4745,-1.47,-1.5213,-1.5958,-1.6385,-1.6746,-1.7373,-1.7987,-1.8517,-1.8847,-1.9442,-1.9733,-1.9294,-1.9696,-1.9774,-1.8768,-1.8203,-1.7947,-1.8061,-1.7765,-1.7879,-1.8791,-1.8918,-1.9125,0.0,-2.091,-2.173,-2.1722,-2.2288,-2.2973,-2.3727,-2.407,-2.4458,-2.493,-2.536,-2.5604,-2.5601,-2.5625,-2.6067,-2.6894,-2.649,-2.6537,-2.704,-2.7825,-2.8239,-2.832,-2.8726,-2.9389,-3.0172,-2.9765,-2.984,-3.0272,-3.1072,-3.1688,-3.2198,-3.2996,-3.3882,-3.4753,0.0,0.0,0.0,0.0,0.0,0.0,0.0,0.0,0.0,0.0,0.0,0.0,0.0,0.0,0.0,0.0,0.0,0.0,0.0,0.0,0.0,0.0,0.0,-1.9999,-2.0883,-2.1208,-2.1687,-2.2374,-2.22,-2.2113,-2.2157,-2.2667,-2.2961,-2.3103,-2.4143,-2.4685,0.0,0.0,0.0,0.0,-2.7025,0.0,0.0,0.0,0.0,0.0,0.0,0.0,0.0,-2.698,-2.5976,-2.4974,-2.4194,0.0,0.0,0.0,0.0,0.0,-1.4573,-1.4433,-1.4839,-1.5295,-1.5888,-1.6571,-1.725,-1.7808,-1.8383,-1.9016,-1.9298,-1.9533,-1.9829,-1.99,-1.9755,-1.9291,-1.8415,-1.7754,-1.7613,-1.8237,-1.8979,-1.9639,-2.0006,0.0,-2.0037,-2.0722,-2.0945,-2.0475,-2.1622,-2.2288,-2.2117,-2.3387,-2.4233,-2.4505,-2.5236,-2.5615,-2.562,-2.5663,-2.605,-2.67,-2.6766,-2.6861,-2.7044,-2.8652,-2.9062,-2.8534,0.0,0.0,-3.0823,-2.9959,-3.0114,-3.0977,-3.1792,-3.2179,-3.2483,-3.4106,-3.4789,-3.4987,0.0,0.0,0.0,0.0,0.0,0.0,0.0,0.0,0.0,0.0,0.0,0.0,0.0,0.0,0.0,0.0,0.0,0.0,0.0,0.0,0.0,0.0,-1.9515,-1.925,-1.959,-2.0928,-2.154,-2.1341,-2.2179,-2.2667,-2.2842,-2.2605,-2.2943,-2.3755,-2.3995,-2.4487,-2.5206,0.0,0.0,0.0,-2.6155,0.0,0.0,0.0,0.0,0.0,0.0,0.0,0.0,-2.6965,-2.5899,-2.4985,-2.4436,0.0,0.0,0.0,0.0,0.0,-1.5486,-1.5197,-1.5279,-1.4602,-1.5139,-1.5948,-1.6557,-1.7152,-1.7863,-1.8755,-1.9121,-1.9345,-1.9739,-1.9923,-1.9749,-1.8984,-1.8505,-1.7946,-1.72,-1.7048,-1.7109,-1.7436,0.0,-1.8565,-1.8753,-1.9792,-2.0764,-2.1503,-2.1055,-2.1694,-2.3871,-2.3533,-2.3968,-2.5449,-2.5616,-2.5681,-2.5681,-2.5695,-2.5738,-2.5791,-2.5874,-2.6269,-2.6952,-2.8021,-2.8821,-2.9413,0.0,-3.0096,-3.0827,-2.996,-3.0114,-3.0977,-3.1792,-3.2549,-3.3326,-3.4326,-3.512,-3.5727,0.0,0.0,0.0,0.0,0.0,0.0,0.0,0.0,0.0,0.0,0.0,0.0,0.0,0.0,0.0,0.0,0.0,0.0,0.0,0.0,0.0,-2.0688,-1.9913,-1.966,-2.004,-2.1397,-2.2111,-2.2191,-2.2374,-2.2555,-2.2669,-2.2555,-2.3042,-2.3986,-2.4926,-2.558,-2.6034,-2.7349,-2.7478,-2.6778,0.0,0.0,0.0,0.0,0.0,0.0,0.0,0.0,0.0,0.0,-2.6214,-2.5329,-2.4548,0.0,0.0,0.0,0.0,0.0,-1.6167,-1.5771,-1.5576,-1.4733,-1.5154,-1.5985,-1.6605,-1.7214,-1.782,-1.8589,-1.9213,-1.9797,-2.0307,-2.0262,-1.9941,-1.928,-1.8622,-1.8317,-1.8623,-1.8129,-1.7947,0.0,0.0,-1.9023,-1.9035,-1.9831,-2.0564,-2.1058,-2.069,-2.1198,-2.2906,-2.3064,-2.3686,-2.4966,-2.5444,-2.5705,-2.5705,-2.5696,-2.5679,-2.5654,-2.5683,-2.5897,-2.6303,-2.7665,-2.8524,-2.8917,0.0,-3.0032,-3.0772,-2.9902,-3.0055,-3.0977,-3.2282,-3.3044,-3.3561,-3.4876,-3.5585,-3.5879,0.0,0.0,0.0,0.0,0.0,0.0,0.0,0.0,0.0,0.0,0.0,0.0,0.0,0.0,0.0,0.0,0.0,0.0,0.0,0.0,-2.1468,-2.0802,-2.0255,-2.0073,-2.0324,-2.1398,-2.208,-2.2324,-2.2141,-2.2,-2.189,-2.2393,-2.2968,-2.3678,-2.5351,-2.6236,-2.657,-2.8245,-2.8452,-2.7585,0.0,0.0,0.0,0.0,0.0,0.0,0.0,0.0,0.0,0.0,0.0,0.0,0.0,0.0,0.0,-2.0797,-1.9522,-1.7944,-1.682,-1.635,-1.6026,-1.531,-1.5654,-1.6265,-1.6828,-1.7337,-1.7862,-1.8553,-1.9343,-2.0055,-2.0659,-2.0526,-2.0094,-1.9411,-1.8856,-1.8883,-1.9907,-1.9531,-1.9405,-2.0124,-2.0155,-1.9981,-1.9661,-2.0092,-2.05,-2.0755,-2.0809,-2.1266,-2.2324,-2.3026,-2.3802,-2.467,-2.5343,-2.5697,-2.5696,-2.5699,-2.5702,-2.5703,-2.5702,-2.5912,-2.6353,-2.7698,-2.8515,-2.892,-2.9545,-3.0173,-3.0769,-3.0296,-3.0495,-3.1259,-3.2807,-3.3519,-3.3886,-3.5352,-3.5898,-3.5898,0.0,0.0,0.0,0.0,0.0,0.0,0.0,0.0,0.0,0.0,0.0,0.0,0.0,0.0,0.0,0.0,0.0,0.0,0.0,0.0,-2.0128,-2.0059,-2.0136,-1.9885,-1.9224,-2.014,-2.0448,-2.0039,-2.0937,-2.1015,-2.0387,-2.197,-2.2592,-2.2489,-2.416,-2.5333,-2.6143,-2.782,-2.8426,-2.8238,-2.8147,0.0,0.0,0.0,0.0,0.0,0.0,0.0,0.0,0.0,0.0,0.0,0.0,0.0,-2.1295,-2.1225,-2.0343,-1.9053,-1.7544,-1.7072,-1.6892,-1.6342,-1.6515,-1.6819,-1.6826,-1.7239,-1.7871,-1.878,-1.9272,-1.9692,-2.0235,-2.036,-2.0028,-1.8952,-1.9324,-1.9799,-1.9901,0.0,-2.0625,-2.1069,-2.1058,-2.0752,-2.0114,-2.027,-2.0745,-2.1548,-2.1677,-2.2413,-2.4019,-2.4241,-2.4707,-2.5584,-2.5664,-2.5703,-2.57,-2.5703,-2.57,-2.5696,-2.5705,-2.6554,-2.8125,-2.8246,-2.9159,-3.0615,-3.068,-3.0747,-3.0857,-3.1612,-3.1943,-3.2099,-3.3041,-3.3899,-3.472,-3.5585,-3.5898,-3.5891,0.0,0.0,0.0,0.0,0.0,0.0,0.0,0.0,0.0,0.0,0.0,0.0,0.0,0.0,0.0,0.0,0.0,0.0,0.0,0.0,-2.0752,-2.0317,-2.0317,-2.0021,-1.9365,-2.0683,-2.1109,-2.0606,-2.1119,-2.1206,-2.0919,-2.1956,-2.2664,-2.3124,-2.4799,-2.5768,-2.6314,-2.8149,-2.8859,-2.8734,-2.8657,-2.8442,0.0,0.0,0.0,0.0,0.0,0.0,0.0,0.0,-2.4669,-2.4069,-2.3659,-2.2648,-2.1568,-2.1311,-2.0322,-1.9254,-1.8918,-1.8529,-1.8092,-1.7512,-1.7856,-1.8308,-1.8253,-1.8359,-1.8679,-1.9406,-1.9865,-2.0311,-2.0918,-2.0315,-1.9828,-2.0202,-1.9889,-1.9976,-2.1037,-2.097,-2.1054,-2.1801,-2.1757,-2.1632,-2.1594,-2.1765,-2.2067,-2.2481,-2.2571,-2.3131,-2.4307,-2.4391,-2.4796,-2.5662,-2.5697,-2.5697,-2.5702,-2.6242,-2.6513,-2.6518,-2.6509,-2.7145,-2.8327,-2.8817,-2.9382,-3.0014,-3.0568,-3.0789,-3.0838,-3.1154,-3.1602,-3.225,-3.3604,-3.4675,-3.5474,-3.5749,-3.5845,-3.583,0.0,0.0,0.0,0.0,0.0,0.0,0.0,0.0,0.0,0.0,0.0,0.0,0.0,0.0,0.0,0.0,0.0,0.0,-1.9704,-2.0318,-2.0499,-2.0107,-2.0022,-1.9817,-1.9416,-2.0436,-2.0834,-2.054,-2.0668,-2.076,-2.0831,-2.1771,-2.2491,-2.3049,-2.5073,-2.6015,-2.6212,-2.8153,-2.8972,-2.8983,-2.9212,-2.9027,0.0,0.0,0.0,0.0,0.0,0.0,0.0,0.0,-2.4448,-2.3989,-2.35,-2.2739,-2.2022,-2.1625,-2.0701,-1.9764,-1.9651,-1.9216,-1.8672,-1.7898,-1.8293,-1.9025,-1.965,-1.9056,-1.8592,-1.9335,-2.0061,-2.0705,-2.1296,-2.042,-1.9855,-2.0685,-2.0407,-2.0531,-2.1742,-2.1868,-2.1882,-2.2088,-2.2293,-2.2342,-2.2114,-2.2518,-2.2948,-2.3314,-2.3406,-2.3828,-2.4693,-2.4787,-2.5074,-2.5672,-2.5698,-2.5698,-2.5696,-2.6566,-2.7137,-2.7401,-2.7694,-2.8139,-2.8728,-2.9279,-2.9666,-2.9939,-3.054,-3.0804,-3.0828,-3.1106,-3.1704,-3.2658,-3.4361,-3.5217,-3.5503,-3.5714,-3.5795,-3.5807,0.0,0.0,0.0,0.0,0.0,0.0,0.0,0.0,0.0,0.0,0.0,0.0,0.0,0.0,0.0,0.0,0.0,0.0,-1.8878,-1.8896,-1.9,-1.9184,-1.9137,-1.912,-1.9202,-1.907,-1.9113,-1.9304,-1.9304,-1.9433,-1.9731,-2.1339,-2.198,-2.1907,-2.4657,-2.5772,-2.5722,-2.7667,-2.864,-2.8955,-2.9786,-2.9665,-2.9027,0.0,0.0,0.0,0.0,0.0,0.0,0.0,-2.3664,-2.3567,-2.3289,-2.2977,-2.2624,-2.2283,-2.167,-2.0789,-1.9553,-1.898,-1.8434,-1.7385,-1.7627,-1.8676,-2.0809,-1.9049,-1.7314,-1.8389,-1.9663,-2.0739,-2.1122,-2.0644,0.0,-2.0012,-2.091,-2.1631,-2.1765,-2.2946,-2.326,-2.1877,-2.2654,-2.2773,-2.1366,-2.2201,-2.3178,-2.4056,-2.4173,-2.4599,-2.5446,-2.5628,-2.5704,-2.5693,-2.5694,-2.5701,-2.5712,-2.6573,-2.7457,-2.832,-2.9191,-2.9606,-2.9601,-2.9601,-3.004,-3.0798,-3.0793,-3.0808,-3.0876,-3.1757,-3.2571,-3.3472,-3.5224,-3.5376,-3.4704,-3.5504,-3.5791,-3.5782,0.0,0.0,0.0,0.0,0.0,0.0,0.0,0.0,0.0,0.0,0.0,0.0,0.0,0.0,0.0,0.0,0.0,0.0,-1.8678,-1.8825,-1.8931,-1.9,-1.8983,-1.9,-1.912,-1.8861,-1.8843,-1.9097,-1.9237,-1.9343,-1.9452,-2.0522,-2.1384,-2.2092,-2.3539,-2.4598,-2.5378,-2.7372,-2.8294,-2.8534,-2.9946,-3.0431,-3.021,0.0,0.0,0.0,0.0,0.0,0.0,0.0,0.0,0.0,-2.3473,-2.3008,-2.2387,-2.173,-2.0841,-1.9976,-1.9757,-1.953,-1.9226,-1.8707,-1.9438,-2.0172,-1.9773,-1.869,-1.8023,-1.8906,-1.9545,-2.0186,-2.0865,-2.0865,0.0,-2.064,-2.1005,-2.1478,-2.195,-2.231,-2.2694,-2.3059,-2.3226,-2.3455,-2.3841,-2.43,-2.4685,-2.4979,-2.5111,-2.5293,-2.5561,-2.5656,-2.5694,-2.569,-2.5691,-2.5983,-2.6607,-2.7474,-2.8342,-2.9226,-3.0092,-3.0504,-3.0503,-3.0464,-3.0572,-3.081,-3.0802,-3.0793,-3.0901,-3.2344,-3.3068,-3.3405,-3.5144,-3.5629,-3.5396,-3.5639,-3.5727,-3.5815,0.0,0.0,0.0,0.0,0.0,0.0,0.0,0.0,0.0,0.0,0.0,0.0,0.0,0.0,0.0,0.0,0.0,0.0,0.0,-1.8824,-1.8914,-1.8895,-1.8896,-1.8896,-1.8931,-1.8715,-1.8697,-1.8878,-1.8913,-1.9049,-1.928,-2.0101,-2.0886,-2.1629,-2.2612,-2.3629,-2.4688,-2.6366,-2.7309,-2.7827,-2.9535,-3.0267,-3.0309,0.0,0.0,0.0,0.0,0.0,0.0,0.0,0.0,0.0,-2.3804,-2.3221,-2.2567,-2.2052,-2.1156,-2.0336,-2.0226,-2.0033,-1.9829,-1.9633,-1.9711,-1.9515,-1.8211,-1.8447,-1.9003,-1.9265,-1.9617,-1.994,-2.0129,-2.0353,0.0,-2.0524,-2.0984,-2.1501,-2.1994,-2.2397,-2.2815,-2.3293,-2.3617,-2.3986,-2.4448,-2.4949,-2.5303,-2.5429,-2.5499,-2.5571,-2.5598,-2.5652,-2.5701,-2.569,-2.5697,-2.6119,-2.6984,-2.7855,-2.8742,-2.9611,-3.0456,-3.087,-3.085,-3.0852,-3.0823,-3.0817,-3.1172,-3.1505,-3.1893,-3.3258,-3.3779,-3.3865,-3.5242,-3.5757,-3.5708,-3.5659,-3.5892,-3.625,0.0,0.0,0.0,0.0,0.0,0.0,0.0,0.0,0.0,0.0,0.0,0.0,0.0,0.0,0.0,0.0,0.0,0.0,0.0,0.0,-1.8896,-1.8895,-1.8878,-1.8843,-1.8715,-1.8623,-1.8642,-1.8734,-1.8616,-1.8803,-1.9295,-2.0005,-2.0535,-2.0933,-2.1858,-2.2844,-2.386,-2.5008,-2.6021,-2.7028,-2.8716,-2.9413,-2.9551,-3.0351,0.0,0.0,0.0,0.0,0.0,0.0,0.0,0.0,-2.4233,-2.3556,-2.3053,-2.2831,-2.2126,-2.1268,-2.0705,-2.0354,-2.0146,-2.0037,-1.8962,-1.7745,-1.7023,-1.8559,-1.9947,-1.9318,-1.9641,-1.9815,-1.9104,-1.9481,-1.9942,-1.997,-2.0848,-2.1682,-2.2022,-2.2821,-2.3283,-2.2977,-2.3812,-2.426,-2.3866,-2.4667,-2.5293,-2.5484,-2.5511,-2.5535,-2.5617,-2.5665,-2.5693,-2.5696,-2.5785,-2.625,-2.7108,-2.7972,-2.884,-2.9713,-3.0445,-3.0795,-3.0801,-3.0862,-3.0897,-3.0967,-3.1753,-3.2556,-3.3362,-3.4218,-3.4559,-3.4572,-3.5456,-3.5757,-3.5699,-3.5629,-3.6168,-3.688,0.0,0.0,0.0,0.0,0.0,0.0,0.0,0.0,0.0,0.0,0.0,0.0,0.0,0.0,0.0,0.0,0.0,0.0,0.0,0.0,-1.8878,-1.8807,-1.8824,-1.877,-1.8697,-1.8697,-1.8734,-1.886,-1.9489,-1.9831,-1.9921,-2.0345,-2.0944,-2.164,-2.1422,-2.2223,-2.3875,-2.4906,-2.588,-2.6841,-2.8002,-2.848,-2.8524,-2.8769,-2.8847,0.0,0.0,0.0,0.0,0.0,0.0,0.0,-2.4487,-2.3695,-2.3033,-2.2666,-2.1603,-2.0501,-2.0269,-1.9682,-1.9038,-1.8712,-1.8841,-1.9409,-2.0792,-2.0369,-1.9469,-1.8551,-1.9098,-1.9494,-1.8741,-1.9848,-2.0624,-1.983,-2.0868,-2.1982,-2.239,-2.2127,-2.2429,-2.3877,-2.3403,-2.3448,-2.4688,-2.5137,-2.5395,-2.5488,-2.5557,-2.562,-2.5668,-2.5697,-2.5707,-2.5696,-2.6369,-2.7136,-2.8018,-2.8884,-2.9728,0.0,-3.0712,-3.0804,-3.0801,-3.0817,-3.1184,-3.1835,-3.1953,-3.2506,-3.3359,-3.4175,-3.4484,-3.4517,-3.5369,-3.5707,-3.5706,-3.5676,-3.6199,-3.689,0.0,0.0,0.0,0.0,0.0,0.0,0.0,0.0,0.0,0.0,0.0,0.0,0.0,0.0,0.0,0.0,0.0,0.0,0.0,0.0,-1.8932,-1.8896,-1.8807,-1.877,-1.8788,-1.8734,-1.877,-1.8895,-1.9812,-2.0029,-1.9613,-1.9833,-2.0258,-2.0821,-2.0545,-2.1502,-2.3311,-2.3804,-2.4803,-2.6165,-2.7098,-2.7526,-2.7635,-2.8117,-2.8289,-2.8242,-2.8201,0.0,0.0,0.0,0.0,0.0,0.0,0.0,-2.3511,-2.3202,-2.2128,-2.0934,-2.0588,-1.992,-1.9196,-1.8629,-1.9362,-2.0259,-2.0449,-1.9957,-1.9328,-1.8812,-1.8753,-1.8709,-1.8446,-1.9723,-2.0527,-1.9672,-2.0766,-2.1746,-2.1814,-2.1646,-2.2094,-2.3731,-2.3453,-2.3656,-2.5023,-2.5303,-2.5448,-2.5541,-2.557,-2.5625,-2.5703,-2.5697,-2.5693,-2.5709,-2.6555,-2.7414,-2.8289,-2.9153,-2.9994,-3.0793,-3.0806,-3.0801,-3.0801,-3.1239,-3.1895,-3.274,-3.3092,-3.3738,-3.4559,-3.4955,-3.5087,-3.5059,-3.5514,-3.5667,-3.5646,-3.5651,-3.6168,-3.6858,0.0,0.0,0.0,0.0,0.0,0.0,0.0,0.0,0.0,0.0,0.0,0.0,0.0,0.0,0.0,0.0,0.0,0.0,0.0,0.0,0.0,-1.9018,-1.8878,-1.8843,-1.8949,-1.8843,-1.886,-1.9031,-1.9753,-1.9819,-1.9231,-1.9368,-1.9594,-1.9888,-1.982,-2.077,-2.2421,-2.2566,-2.3601,-2.5208,-2.6126,-2.6551,-2.6744,-2.7514,-2.7784,-2.7751,-2.7746,-2.7679,-2.7443,-2.661,0.0,0.0,0.0,0.0,-2.4174,-2.3989,-2.2905,-2.1658,-2.1207,-2.0429,-1.9657,-1.916,-1.9979,-2.0523,-1.9058,-1.9075,-1.9383,-1.9404,-1.8831,-1.8383,-1.8578,-1.9679,-2.0407,-1.9835,-2.0711,-2.1378,-2.1184,-2.1352,-2.1951,-2.3097,-2.3354,-2.3834,-2.4927,-2.5138,-2.531,-2.5582,-2.5607,-2.5639,-2.5694,-2.5837,-2.5915,-2.5916,-2.6914,-2.7792,-2.8528,-2.9393,-3.0155,-3.081,-3.0804,-3.0801,-3.0841,-3.1691,-3.2576,-3.3448,-3.408,-3.4951,-3.5884,-3.5801,-3.5747,-3.5699,-3.5688,-3.5667,-3.5626,-3.562,-3.611,-3.6786,0.0,0.0,0.0,0.0,0.0,0.0,0.0,0.0,0.0,0.0,0.0,0.0,0.0,0.0,0.0,0.0,0.0,0.0,0.0,0.0,0.0,-1.9168,-1.9148,-1.9148,-1.917,-1.9198,-1.9316,-1.9513,-1.9393,0.0,0.0,0.0,0.0,-2.063,-1.9988,-2.0282,-2.128,-2.2336,-2.3294,-2.4177,-2.5181,-2.5614,-2.5712,-2.5842,-2.5901,-2.5952,-2.5956,-2.6253,-2.6569,-2.579,-2.5787,0.0,0.0,0.0,-2.4605,-2.4582,-2.3143,-2.1576,-2.1723,-2.0518,-1.9334,-1.9888,-2.0092,-2.0126,-2.006,-1.9937,-1.9739,-1.9454,-1.9756,-2.0007,-1.9825,-2.0602,-2.1149,-2.076,-2.1074,-2.1419,-2.167,-2.1379,-2.1532,-2.2493,-2.2198,-2.2537,-2.4167,-2.4392,-2.4772,-2.555,-2.5644,-2.5681,-2.5697,-2.6415,-2.683,-2.6836,-2.8405,-2.9308,-2.9428,-3.0292,-3.0757,-3.08,-3.0793,-3.0801,-3.0841,-3.1691,-3.2588,-3.3404,-3.3445,-3.4367,-3.5799,-3.5736,-3.5718,-3.5688,-3.5706,-3.5695,-3.5684,-3.5687,-3.6153,-3.6698,0.0,0.0,0.0,0.0,0.0,0.0,0.0,0.0,0.0,0.0,0.0,0.0,0.0,0.0,0.0,0.0,0.0,0.0,0.0,0.0,0.0,-1.9413,-1.9361,-1.9328,-1.938,-1.9361,-1.9387,-1.9425,-1.9268,0.0,0.0,-1.9701,-1.9999,0.0,0.0,-2.0699,-2.1895,-2.1971,-2.2738,-2.3936,-2.4426,-2.4706,-2.489,-2.5368,-2.5566,-2.5605,-2.5601,-2.5775,-2.5934,-2.5577,-2.558,-2.5639,-2.5279,0.0,0.0,0.0,-2.3825,-2.2567,-2.2041,-2.0638,-1.9556,-2.0566,-2.1248,-2.1587,-2.1272,-2.1611,-2.1815,-2.1244,-2.1262,-2.0935,-1.9583,-2.0165,-2.0667,-2.0147,-2.068,-2.1072,-2.0732,-2.0624,-2.0922,-2.1826,-2.1769,-2.2342,-2.4092,-2.4322,-2.4729,-2.5601,-2.5673,-2.5913,-2.6403,-2.6793,-2.7009,-2.6992,-2.8697,-2.9374,-2.8878,-3.0215,-3.0895,-3.0857,-3.0866,-3.086,-3.088,-3.122,-3.1847,-3.2718,-3.3634,-3.4438,-3.5154,-3.5571,-3.5728,-3.5708,-3.5697,-3.5676,-3.5646,-3.5646,-3.5821,-3.6029,0.0,0.0,0.0,0.0,0.0,0.0,0.0,0.0,0.0,0.0,0.0,0.0,0.0,0.0,0.0,0.0,0.0,0.0,0.0,0.0,0.0,-1.9641,-1.9764,-1.9764,-1.9617,-1.954,-1.9481,-1.9439,0.0,0.0,-1.9199,-1.9161,-1.9332,0.0,-2.005,-2.0853,0.0,0.0,-2.2197,-2.3314,-2.3593,-2.3948,-2.4335,-2.4935,-2.5343,-2.5567,-2.5546,-2.5533,-2.5576,-2.5775,-2.5628,-2.5383,-2.5611,-2.5476,0.0,0.0,0.0,-2.3496,-2.2388,-2.1159,-2.0401,-2.1269,-2.2207,-2.2751,-2.2124,-2.2776,-2.333,-2.2722,-2.2276,-2.1464,-1.9846,-2.0139,-2.0469,-1.9982,-2.0446,-2.0661,-2.0028,-2.0108,-2.0485,-2.1152,-2.1333,-2.2084,-2.3824,-2.4042,-2.4524,-2.5582,-2.5687,-2.5973,-2.661,-2.7063,-2.7293,-2.7299,-2.899,-2.9597,-2.8963,-3.0254,-3.0897,-3.0907,-3.0888,-3.0884,-3.0899,-3.083,-3.1149,-3.187,-3.3531,-3.4399,-3.4664,-3.5443,-3.5766,-3.5708,-3.5718,-3.5678,-3.5629,-3.5635,-3.5581,-3.5526,0.0,0.0,0.0,0.0,0.0,0.0,0.0,0.0,0.0,0.0,0.0,0.0,0.0,0.0,0.0,-1.8877,0.0,0.0,0.0,0.0,0.0,-1.9719,-2.0533,0.0,-1.9892,-1.9873,-1.9835,0.0,0.0,0.0,-1.9189,-1.8812,-1.8855,-1.9257,-1.9898,-2.019,-2.0202,0.0,0.0,-2.1696,-2.2601,-2.3458,-2.4185,-2.404,-2.4628,-2.5482,-2.5366,-2.5351,-2.5547,-2.6423,-2.6055,-2.5398,-2.6398,-2.6101,-2.5391,0.0,0.0,0.0,-2.2922,-2.2372,-2.2058,-2.2054,-2.2337,-2.2538,-2.2244,-2.2721,-2.3166,-2.2935,-2.2203,-2.1616,-2.1559,-2.1386,-2.1252,-2.1293,-2.0699,-2.0279,-2.0357,-2.0332,-2.0366,-2.0524,-2.0553,-2.1258,-2.2989,-2.3179,-2.3856,-2.5478,-2.5654,-2.5696,-2.5678,-2.7235,-2.8134,-2.8142,-2.9838,-3.0743,-3.0762,-3.0857,-3.0898,-3.0898,-3.084,-3.0837,-3.0899,-3.0838,-3.0827,-3.0953,-3.2629,-3.3847,-3.4664,-3.5406,-3.5737,-3.5794,-3.5716,-3.5697,-3.5699,-3.5698,-3.5648,-3.5607,0.0,0.0,0.0,0.0,0.0,0.0,0.0,0.0,0.0,0.0,0.0,0.0,0.0,-1.9033,-1.9164,-1.9398,-1.9841,0.0,0.0,0.0,0.0,-1.9818,-2.0694,-2.0827,-1.9988,-1.9963,0.0,0.0,0.0,-1.9136,-1.8881,-1.8467,-1.8324,-1.8475,-1.931,-2.0106,-2.085,-2.0939,0.0,0.0,0.0,-2.2789,0.0,0.0,0.0,0.0,0.0,0.0,-2.6209,-2.6411,-2.5809,-2.5092,-2.5652,-2.5936,-2.6074,-2.6201,-2.5195,-2.3934,-2.3534,-2.3137,-2.2827,-2.2716,-2.3189,-2.3598,-2.3239,-2.3814,-2.4186,-2.3396,-2.2836,-2.2343,-2.1855,-2.1196,-2.0739,-2.0817,-2.0582,-2.0383,-2.0408,-2.0387,-2.0378,-2.0424,-2.0934,-2.1743,-2.292,-2.3546,-2.4326,-2.5444,-2.56,-2.6076,-2.7082,-2.777,-2.8388,-2.8948,-3.017,-3.082,-3.0841,-3.0888,-3.0891,-3.0891,-3.0878,-3.0876,-3.0899,-3.0841,-3.0791,-3.0888,-3.2566,-3.3485,-3.3867,-3.5208,-3.5784,-3.5794,-3.5776,-3.5708,-3.5639,-3.5688,-3.5635,-3.5546,0.0,0.0,0.0,0.0,0.0,0.0,0.0,0.0,0.0,0.0,0.0,0.0,0.0,0.0,-1.9902,-2.0387,-2.0718,-2.077,-2.0462,-2.1541,-2.1749,-2.075,-2.1373,-2.1323,-2.0467,0.0,0.0,0.0,0.0,0.0,0.0,-1.8069,-1.7821,-1.7778,-1.8438,-1.9363,0.0,0.0,0.0,-2.1051,0.0,0.0,-2.2183,0.0,0.0,0.0,0.0,0.0,0.0,-2.6883,-2.6117,-2.5253,-2.5851,-2.6277,-2.6509,-2.6365,-2.5652,0.0,-2.4447,-2.4036,-2.3675,-2.3529,-2.3695,-2.3883,-2.3891,-2.4233,-2.4335,-2.3663,-2.3193,-2.2669,-2.1902,-2.1034,-2.0449,-2.0487,-2.0477,-2.0453,-2.0405,-2.0398,-2.0494,-2.0776,-2.129,-2.2081,-2.3218,-2.3857,-2.4555,-2.5394,-2.5754,0.0,-2.7517,-2.815,-2.888,-2.9775,-3.0458,-3.0806,-3.0801,-3.0841,-3.088,-3.088,-3.0873,-3.0879,-3.0909,-3.085,-3.0979,-3.1315,-3.2725,-3.3317,-3.3433,-3.5108,-3.5818,-3.5838,-3.5775,-3.5728,-3.5679,-3.5687,-3.5631,-3.5572,0.0,0.0,0.0,0.0,0.0,0.0,0.0,0.0,0.0,0.0,0.0,0.0,0.0,0.0,0.0,-2.1805,-2.1332,-2.1288,-2.2046,-2.221,-2.2364,-2.2495,0.0,0.0,0.0,0.0,0.0,0.0,0.0,0.0,0.0,0.0,-1.7292,-1.7292,-1.735,-1.7807,-1.8574,0.0,-1.9367,-1.9801,0.0,-2.1055,-2.2703,0.0,0.0,0.0,-2.5885,-2.6313,0.0,-2.79,0.0,0.0,0.0,0.0,0.0,0.0,0.0,0.0,0.0,0.0,0.0,-2.4529,-2.3751,-2.3276,-2.4075,-2.3838,-2.3497,-2.3713,-2.3199,-2.2506,-2.1815,-2.1031,-2.0501,-2.0483,-2.045,-2.0395,-2.0396,-2.0423,-2.0714,-2.1506,-2.157,-2.2199,-2.3842,-2.4021,-2.4414,-2.5322,-2.6149,-2.6632,-2.6708,-2.831,-2.964,-3.0536,-3.0701,-3.0802,-3.0799,-3.0799,-3.0799,-3.0799,-3.0799,-3.0831,-3.0898,-3.0898,-3.1325,-3.2112,-3.2971,-3.3317,-3.3393,-3.5104,-3.5842,-3.5891,-3.5756,-3.5747,-3.5801,-3.5723,-3.5651,-3.5701,0.0,0.0,0.0,0.0,0.0,0.0,-1.8333,0.0,0.0,0.0,0.0,0.0,0.0,0.0,-2.1071,-2.1968,-2.2544,-2.2663,-2.2205,-2.346,-2.3707,-2.2547,-2.2602,-2.2297,-2.1464,0.0,0.0,0.0,0.0,0.0,0.0,0.0,0.0,0.0,-1.6905,-1.7085,-1.7586,-1.8705,0.0,-1.9788,-2.0647,-2.0996,0.0,0.0,0.0,0.0,0.0,-2.5884,-2.6186,0.0,-2.6294,-2.4709,0.0,0.0,0.0,0.0,0.0,0.0,-2.5634,0.0,0.0,0.0,0.0,0.0,-2.3458,-2.4022,-2.4308,-2.2936,-2.2834,-2.2702,-2.1737,-2.0943,-2.0387,-2.0226,-2.032,-2.0385,-2.0325,-2.0875,-2.1295,-2.1366,-2.2475,-2.3427,-2.3885,-2.4448,-2.4891,0.0,-2.5975,-2.673,-2.7326,-2.9072,-2.994,-2.9663,-3.0347,-3.075,-3.0802,-3.081,-3.081,-3.0802,-3.0791,-3.0804,-3.0829,-3.0875,-3.1015,-3.1282,-3.2098,-3.2443,-3.2609,-3.4923,-3.5885,-3.5892,-3.5823,-3.5754,-3.5737,-3.5707,-3.5639,-3.556,0.0,0.0,0.0,0.0,0.0,-1.8771,-1.8716,-1.8807,-1.8824,0.0,0.0,0.0,0.0,0.0,0.0,-2.2618,-2.3261,-2.3556,-2.3423,-2.4119,-2.4278,-2.3736,-2.3448,-2.3084,-2.2594,0.0,0.0,0.0,0.0,0.0,0.0,0.0,0.0,0.0,0.0,0.0,0.0,0.0,0.0,0.0,-1.9962,0.0,0.0,-2.1405,-2.2604,0.0,0.0,0.0,-2.6039,-2.6845,-2.5972,0.0,0.0,0.0,0.0,0.0,0.0,0.0,0.0,0.0,0.0,0.0,0.0,0.0,-2.3893,-2.4232,-2.4302,0.0,-2.2844,-2.2559,-2.1626,-2.0809,-2.023,-2.0125,-2.0142,-2.0227,-2.0289,-2.0989,-2.1457,-2.1321,-2.276,-2.3771,-2.3771,-2.4507,-2.4998,-2.5015,-2.5816,-2.6683,-2.7514,-2.8618,-2.9051,-2.8645,-2.9535,-3.0056,-3.0129,-3.0486,-3.0701,-3.0767,-3.0754,-3.0778,-3.0794,-3.0831,-3.1054,-3.1424,-3.1905,-3.2309,-3.2775,-3.4608,-3.5365,-3.5396,-3.5682,-3.5763,-3.5689,-3.5667,-3.5584,-3.5589,0.0,0.0,-2.0136,-2.0083,-1.9538,-1.9063,-1.8877,-1.8998,-1.9031,0.0,0.0,0.0,0.0,0.0,0.0,0.0,-2.3777,-2.4167,-2.5071,-2.4487,-2.4473,-2.5376,-2.4647,-2.4188,-2.4129,-2.3327,0.0,0.0,0.0,0.0,0.0,0.0,0.0,0.0,0.0,0.0,0.0,0.0,0.0,-1.9265,-1.8763,-1.978,0.0,0.0,-2.1676,-2.4172,-2.4154,-2.4959,-2.6016,-2.6045,-2.5773,0.0,0.0,0.0,0.0,0.0,-2.6591,0.0,0.0,0.0,0.0,0.0,-2.4656,0.0,-2.4773,-2.4464,-2.401,0.0,-2.3198,-2.2487,-2.1825,-2.0992,-2.0374,-2.0263,-2.0146,-2.0118,-2.0258,-2.09,-2.1388,-2.1414,-2.269,-2.3615,-2.3699,-2.4379,-2.481,-2.4847,-2.5729,-2.6616,-2.7392,-2.7684,-2.7803,-2.78,-2.8626,-2.9119,-2.9198,-2.9872,-3.0273,-3.0389,-3.0516,-3.0594,-3.0664,-3.0765,-3.1228,-3.1952,-3.1962,-3.2397,-3.3184,-3.4086,-3.4514,-3.4681,-3.5488,-3.5754,-3.5689,-3.5623,-3.5547,-3.5671,0.0,0.0,-2.1007,-2.0627,-1.989,-1.9292,-1.9146,-1.9246,-1.9232,0.0,0.0,0.0,0.0,0.0,0.0,0.0,-2.4915,-2.5066,-2.5332,-2.5307,-2.5328,-2.5473,-2.4701,-2.4263,-2.4257,-2.3428,-2.2421,0.0,0.0,0.0,0.0,0.0,0.0,0.0,0.0,0.0,0.0,0.0,0.0,-2.0577,-1.9876,-2.0332,-2.1333,-2.0355,-2.0559,-2.1546,-2.2864,-2.34,-2.3593,-2.4231,-2.4864,-2.5416,0.0,0.0,0.0,-2.7376,0.0,0.0,0.0,0.0,0.0,0.0,-2.5082,0.0,-2.4314,-2.472,-2.5006,-2.4331,-2.4069,-2.3862,-2.3626,-2.2898,-2.2077,-2.1281,-2.1131,-2.0871,-2.0169,-2.0679,-2.1377,-2.2023,-2.2937,-2.3776,-2.4418,-2.4636,-2.4687,-2.465,-2.5927,-2.6803,-2.7076,-2.8395,-2.8939,-2.8526,-2.879,-2.8989,-2.9115,-2.866,-2.8459,-2.8536,-2.9295,-2.9688,-2.9782,-3.0482,-3.0891,-3.1051,-3.1042,-3.1159,-3.1412,-3.2863,-3.392,-3.4681,-3.5492,-3.5766,-3.5698,-3.5558,-3.5476,-3.5451,0.0,-2.097,-2.0894,-2.0689,-1.9936,-1.9338,-1.9301,-1.9368,0.0,0.0,0.0,0.0,0.0,0.0,0.0,0.0,0.0,0.0,0.0,-2.6333,-2.6458,-2.5582,-2.5584,-2.5389,-2.4956,-2.4137,-2.3361,-2.2695,0.0,0.0,0.0,0.0,0.0,0.0,0.0,0.0,0.0,0.0,-2.0655,-2.1426,-2.0016,0.0,-2.1457,-2.0046,-2.0074,-2.0994,-2.1786,-2.2432,-2.3125,-2.4296,-2.4815,0.0,-2.6126,-2.6193,-2.6145,0.0,-2.7033,-2.6393,0.0,0.0,0.0,-2.5715,0.0,0.0,0.0,-2.505,-2.5332,-2.4937,-2.451,-2.4188,-2.4116,-2.3399,-2.2643,-2.213,-2.1966,-2.176,-2.1411,-2.1549,-2.1706,-2.1749,-2.2993,-2.3889,-2.3982,-2.421,-2.4524,-2.4912,-2.5615,-2.6243,-2.6727,-2.7196,-2.7394,-2.7199,-2.7365,-2.7519,-2.7646,-2.7752,-2.785,-2.7965,-2.8465,-2.8744,-2.8873,-2.9294,-2.9506,-2.9525,-2.9957,-3.0119,-3.0267,-3.2307,-3.3433,-3.3971,-3.5175,-3.5623,-3.5579,-3.5449,-3.5345,-3.5346,-2.0476,-2.0403,-2.0486,-2.0599,-1.9856,-1.9274,-1.938,-1.9394,0.0,0.0,0.0,0.0,0.0,0.0,0.0,0.0,0.0,0.0,0.0,-2.681,-2.7075,-2.5886,-2.6337,-2.6376,-2.5832,-2.5039,-2.4464,-2.4134,0.0,0.0,0.0,0.0,0.0,0.0,0.0,0.0,0.0,0.0,0.0,-2.2095,0.0,-2.0514,-2.1733,-2.0088,-2.0093,-2.0996,-2.114,-2.2032,-2.338,-2.4928,-2.5152,-2.5035,-2.6465,-2.6129,0.0,0.0,0.0,0.0,0.0,0.0,0.0,0.0,0.0,-2.5137,0.0,0.0,0.0,-2.5369,-2.4852,-2.4387,-2.44,-2.3761,-2.3199,-2.3023,0.0,0.0,0.0,-2.2631,0.0,-2.1725,-2.2973,-2.3768,-2.3417,-2.3626,-2.4169,-2.5059,-2.522,-2.5579,-2.6249,-2.5962,-2.5869,-2.6098,-2.5999,-2.601,-2.6162,-2.6854,-2.7263,-2.742,-2.7668,-2.7823,-2.7964,-2.8115,-2.8202,-2.8248,-2.9082,-2.9424,-2.9538,-3.1854,-3.2803,-3.2948,-3.4766,-3.5463,-3.5454,-3.5324,-3.5223,-3.5253,-2.042,-2.0383,-2.04,-2.0646,-1.9778,-1.9135,-1.9365,-1.9343,0.0,0.0,0.0,0.0,0.0,0.0,0.0,0.0,0.0,0.0,-2.5576,0.0,-2.6065,-2.6644,-2.6016,-2.5978,-2.6644,-2.5878,-2.5075,-2.4277,0.0,0.0,0.0,0.0,0.0,0.0,-2.0429,0.0,0.0,0.0,-2.2357,0.0,-2.1972,-2.1924,0.0,-2.1428,-2.0748,-2.0372,-2.1412,-2.2471,-2.3598,0.0,-2.5735,-2.5865,0.0,-2.6569,-2.6844,-2.5925,0.0,0.0,0.0,0.0,0.0,0.0,-2.5088,0.0,0.0,0.0,-2.5156,-2.5279,0.0,-2.5438,-2.5427,0.0,0.0,0.0,-2.3954,-2.3601,-2.2977,-2.3254,-2.348,-2.3266,-2.297,-2.3015,-2.3668,-2.3307,-2.3435,-2.4438,-2.4941,-2.5288,-2.5514,-2.6518,-2.7219,-2.7559,-2.6357,-2.5816,-2.6019,-2.5609,-2.5497,-2.5687,-2.6532,-2.6973,-2.707,-2.7851,-2.8196,-2.8236,-2.9006,-2.9279,-2.9358,-3.1072,-3.1698,-3.1857,-3.4417,-3.5379,-3.5316,-3.5181,-3.5126,-3.511,-2.0075,-1.9904,0.0,-2.0089,-1.9616,-1.9308,-1.9526,-1.9861,0.0,0.0,0.0,0.0,0.0,0.0,0.0,0.0,0.0,-2.5851,0.0,0.0,0.0,-2.6627,-2.6755,-2.7016,-2.7373,-2.6629,-2.6061,-2.5679,-2.4739,0.0,0.0,0.0,0.0,0.0,-2.1081,0.0,-2.1313,0.0,-2.151,0.0,0.0,0.0,0.0,-2.183,-2.1409,-2.0792,-2.1195,-2.1911,-2.2949,0.0,-2.5282,0.0,0.0,0.0,0.0,-2.6107,0.0,0.0,0.0,0.0,0.0,0.0,0.0,0.0,-2.5726,0.0,-2.6687,0.0,0.0,0.0,0.0,0.0,0.0,0.0,-2.5718,-2.534,0.0,0.0,-2.4212,-2.3581,0.0,0.0,-2.3441,-2.3358,-2.3576,-2.4248,-2.4511,-2.5155,-2.6214,-2.6178,-2.6417,-2.6969,-2.6111,-2.554,-2.5374,-2.519,-2.5222,-2.5453,-2.5906,-2.6119,-2.6165,-2.6473,-2.6603,-2.6631,-2.7359,-2.7933,-2.8439,-3.001,-3.0923,-3.1424,-3.2905,-3.3859,-3.4348,-3.4225,-3.4491,-3.4907,-2.038,0.0,0.0,0.0,-1.9599,-1.9596,-1.9905,-2.0369,0.0,0.0,0.0,0.0,-2.2314,-2.3338,0.0,0.0,-2.5744,-2.5976,0.0,0.0,-2.7094,0.0,-2.7223,-2.7624,-2.8053,-2.7354,-2.6966,-2.6938,-2.5584,0.0,0.0,0.0,0.0,0.0,0.0,-2.1554,-2.139,0.0,-2.1048,-2.0498,-2.0476,-2.084,-2.1459,-2.1842,-2.1757,-2.1387,-2.1073,-2.1545,-2.2556,-2.4223,-2.5081,0.0,-2.6868,0.0,-2.5764,0.0,0.0,0.0,-2.6047,0.0,0.0,0.0,0.0,0.0,0.0,0.0,0.0,0.0,0.0,0.0,0.0,0.0,-2.7678,0.0,0.0,-2.689,0.0,-2.587,-2.5337,-2.4036,0.0,0.0,0.0,-2.3353,-2.3413,-2.3638,-2.3833,-2.4408,-2.5541,-2.5115,-2.5154,-2.586,-2.5498,-2.5169,-2.4914,-2.5076,-2.5274,-2.5499,-2.5547,-2.5562,-2.5563,-2.546,-2.5386,-2.5348,-2.61,-2.6849,-2.7631,-2.8981,-2.9988,-3.0727,-3.1364,-3.222,-3.3109,-3.3289,-3.3883,-3.4583,-2.1718,-2.07,0.0,0.0,-1.9793,-1.9885,-2.0487,0.0,0.0,0.0,0.0,0.0,0.0,0.0,0.0,0.0,0.0,-2.5321,-2.5486,0.0,-2.6091,0.0,0.0,-2.7179,-2.8722,-2.8058,-2.7644,-2.7574,-2.6877,0.0,0.0,0.0,0.0,0.0,-2.2754,-2.2114,-2.0174,-2.1652,-2.1636,-2.07,-2.0838,-2.1316,-2.1936,0.0,-2.1637,-2.1909,-2.1312,0.0,0.0,-2.4451,-2.5633,0.0,0.0,0.0,0.0,0.0,0.0,0.0,0.0,0.0,0.0,-2.5175,0.0,0.0,0.0,0.0,-2.7353,0.0,0.0,0.0,-2.7816,-2.7361,0.0,0.0,0.0,0.0,0.0,-2.742,-2.7159,-2.5099,-2.4118,0.0,0.0,-2.3085,-2.2529,0.0,-2.276,-2.2797,-2.2294,-2.3219,-2.3998,-2.4541,-2.4554,-2.4647,-2.4892,-2.516,-2.5363,-2.55,-2.5508,-2.5503,-2.5505,-2.5297,-2.5158,-2.5154,-2.5888,-2.6559,-2.7167,-2.8003,-2.8708,-2.9336,-3.0077,-3.0859,-3.1691,-3.2662,-3.3494,-3.4091,0.0,0.0,0.0,0.0,0.0,0.0,0.0,-2.1293,0.0,0.0,-2.1614,0.0,0.0,-2.1836,-2.271,0.0,0.0,-2.4733,-2.5321,-2.5321,0.0,0.0,0.0,-2.71,0.0,-2.7984,-2.786,-2.8453,-2.7113,0.0,0.0,0.0,0.0,0.0,0.0,-2.2279,0.0,0.0,0.0,0.0,0.0,-2.0563,-2.1078,0.0,-2.1236,-2.1441,-2.0702,-2.1022,0.0,-2.316,-2.4159,-2.4995,-2.5534,-2.5765,-2.5764,-2.5428,-2.5322,0.0,0.0,0.0,-2.5113,-2.5107,0.0,0.0,0.0,0.0,0.0,0.0,0.0,0.0,0.0,0.0,0.0,0.0,0.0,0.0,0.0,-2.7876,-2.7666,-2.6721,-2.4833,-2.3531,0.0,0.0,0.0,0.0,-2.1675,0.0,-2.2705,-2.272,-2.3253,-2.4453,-2.4837,-2.5023,-2.5034,-2.4632,-2.4453,-2.4503,-2.4457,-2.4341,-2.4189,-2.4673,-2.4782,-2.4689,-2.5379,-2.6096,-2.6823,-2.7456,-2.815,-2.8941,-2.9591,-3.0366,-3.1294,-3.2262,-3.3138,-3.3806,-2.3047,0.0,0.0,0.0,0.0,0.0,0.0,0.0,0.0,0.0,-2.1641,0.0,-2.0966,0.0,-2.2134,0.0,-2.4018,-2.4515,-2.5355,-2.5371,0.0,-2.6397,-2.6371,-2.6947,0.0,0.0,0.0,0.0,0.0,-2.7516,0.0,0.0,0.0,0.0,0.0,-2.254,-2.1924,-2.0354,-1.9948,0.0,0.0,-2.0103,0.0,0.0,-2.0885,-2.1196,0.0,-2.069,-2.1559,-2.216,-2.3157,-2.4229,-2.4743,-2.5127,-2.5385,-2.535,-2.5332,-2.5312,-2.5252,-2.5176,0.0,-2.5125,-2.5958,0.0,-2.7443,0.0,-2.9484,0.0,0.0,0.0,0.0,0.0,0.0,0.0,0.0,0.0,0.0,-2.851,-2.809,-2.8132,-2.5925,-2.4201,-2.3722,-2.326,-2.264,-2.17,-2.1368,-2.1492,0.0,-2.2246,-2.2767,-2.3887,-2.4773,-2.5216,-2.52,-2.4386,-2.3975,-2.4005,-2.3757,-2.3565,-2.3418,-2.4058,-2.4261,-2.4137,-2.4514,-2.5266,-2.6236,-2.662,-2.7598,-2.8895,-2.9533,-3.0327,-3.1217,-3.1946,-3.2745,-3.3478,-2.3168,-2.2449,0.0,0.0,-2.1169,0.0,0.0,0.0,-2.2515,0.0,-2.1656,-2.1209,-2.0295,-2.1,-2.1933,-2.2956,-2.3774,-2.4607,-2.5488,-2.5523,0.0,0.0,-2.6392,-2.6696,-2.7424,0.0,0.0,0.0,0.0,0.0,0.0,0.0,0.0,0.0,-2.3707,0.0,-2.1042,-2.0374,-2.0252,-2.047,-1.9972,-1.9911,-2.0107,-2.0167,-2.0636,-2.1157,-2.0384,-2.0721,-2.1531,-2.1589,-2.2704,-2.4092,-2.4169,-2.4741,-2.5343,-2.5397,-2.5407,-2.5398,-2.5322,-2.5293,-2.5282,-2.5222,0.0,0.0,0.0,0.0,-2.9992,0.0,0.0,0.0,0.0,0.0,0.0,0.0,0.0,0.0,0.0,0.0,-2.8638,-2.9289,-2.7325,-2.5571,-2.473,-2.4275,-2.3291,-2.1509,-2.1689,-2.1502,0.0,-2.1658,-2.2461,-2.2834,-2.4271,-2.5124,-2.5332,-2.4323,-2.3877,-2.3957,-2.3402,-2.3115,-2.3155,-2.3543,-2.3655,-2.3538,-2.3513,-2.4242,-2.549,-2.5678,-2.7064,-2.9119,-2.9817,-3.0602,-3.1404,-3.1781,-3.2371,-3.3086,-2.4008,-2.3242,-2.2726,0.0,-2.2658,-2.2566,0.0,0.0,0.0,0.0,-2.1343,-2.0733,-2.0244,-2.0495,-2.1083,-2.204,-2.2909,0.0,0.0,0.0,0.0,-2.5747,-2.5695,-2.6004,-2.6737,-2.7523,-2.8275,-2.8962,0.0,0.0,-2.9688,0.0,0.0,0.0,0.0,-2.3336,-2.2154,-2.163,-2.1055,-2.0439,-1.9707,-1.9698,-2.0097,0.0,-2.0229,-2.0465,-2.0292,-2.041,-2.0727,-2.1377,-2.1927,-2.2563,-2.3812,-2.4374,-2.4703,-2.5306,-2.5437,-2.5401,-2.5378,-2.5332,-2.5293,-2.5293,-2.5568,-2.6022,0.0,0.0,0.0,0.0,0.0,0.0,0.0,0.0,0.0,0.0,0.0,0.0,0.0,0.0,-3.0845,-3.0399,-2.8579,-2.6862,-2.5542,-2.5614,-2.487,-2.272,-2.2156,-2.1756,-2.1393,0.0,-2.1166,-2.2203,-2.3424,-2.422,-2.4581,-2.3334,-2.2965,-2.346,-2.2443,-2.199,-2.2143,-2.3312,-2.3478,-2.2867,-2.4424,-2.5049,-2.507,-2.6202,-2.7379,-2.8582,-2.9292,-3.052,-3.1934,-3.2228,-3.2576,-3.3029,-2.4238,-2.3802,0.0,-2.389,0.0,0.0,-2.3455,-2.3019,0.0,-2.2017,-2.1533,0.0,-2.0716,-2.085,-2.1357,-2.2298,-2.316,0.0,-2.4904,0.0,0.0,-2.555,-2.5812,-2.5992,-2.6015,-2.7144,0.0,-2.8525,0.0,0.0,-2.9358,0.0,0.0,0.0,0.0,-2.3767,-2.318,-2.2238,-2.1242,-2.0171,-1.9522,-1.9538,0.0,-1.9991,-2.006,-2.0159,-2.0192,-2.0253,-2.0379,-2.0908,-2.1355,-2.1861,-2.2848,-2.3678,-2.4387,-2.4846,-2.5221,-2.5478,-2.5461,-2.5429,-2.5376,-2.535,-2.5592,-2.5974,-2.6436,-2.7106,-2.7752,0.0,0.0,0.0,0.0,0.0,0.0,0.0,0.0,0.0,0.0,0.0,-3.2237,-3.1367,-3.0309,-2.9039,-2.7478,-2.6689,-2.5649,-2.4155,-2.3497,-2.2833,-2.2099,0.0,-2.1766,-2.2423,-2.3506,-2.4169,-2.4297,-2.3125,-2.2608,-2.2773,-2.2061,-2.1768,-2.1926,-2.3172,-2.3493,-2.3089,-2.4328,-2.4861,-2.4923,-2.5872,-2.7156,-2.864,-2.9868,-3.0967,-3.191,-3.2196,-3.2476,-3.2788,-2.4315,-2.4291,0.0,0.0,0.0,0.0,0.0,-2.3466,0.0,-2.1946,0.0,-2.1544,-2.1224,-2.1403,-2.1924,-2.2842,0.0,-2.4594,-2.547,-2.5639,-2.5679,-2.5629,-2.6223,-2.6207,-2.5432,-2.6929,-2.7808,0.0,0.0,0.0,0.0,0.0,0.0,0.0,0.0,0.0,0.0,-2.2462,-2.1149,-2.0006,-1.9459,-1.9458,-1.9797,-1.9926,-2.0009,-2.0098,-2.0106,-2.0184,-2.0306,-2.0371,-2.0905,-2.1574,-2.1753,-2.2866,-2.4147,-2.4266,-2.4902,-2.557,-2.5518,-2.5485,-2.5471,-2.5418,-2.5964,-2.6516,-2.6468,-2.7052,-2.7608,-2.7616,-2.8179,-2.8708,0.0,0.0,0.0,0.0,0.0,0.0,0.0,0.0,-3.3083,-3.211,-3.1757,0.0,-2.9705,-2.7821,-2.643,-2.5757,-2.5274,-2.4365,-2.2891,0.0,-2.3062,-2.2977,-2.3934,-2.4352,-2.415,0.0,-2.2571,-2.2252,-2.2043,-2.2052,-2.2225,-2.3152,-2.3587,-2.3585,-2.3835,-2.4325,-2.498,-2.5347,-2.6826,-2.9072,-3.0788,-3.1517,-3.1651,-3.1965,-3.2197,-3.2472,-2.5201,0.0,0.0,0.0,0.0,-2.3318,-2.2684,-2.2022,-2.1488,-2.1205,-2.0766,-2.0518,-2.0559,-2.0655,-2.1065,-2.1947,-2.2814,0.0,0.0,0.0,0.0,-2.5673,-2.5756,-2.571,-2.5499,-2.6412,-2.7256,0.0,0.0,0.0,0.0,0.0,0.0,0.0,0.0,0.0,-2.3841,-2.2526,0.0,-2.0886,-1.9875,-1.955,-1.972,-1.9738,-1.9904,-2.0098,-2.0161,-2.0238,-2.0308,-2.0386,-2.0545,-2.0834,-2.1566,-2.2459,-2.3376,-2.4088,-2.4872,-2.5518,-2.549,-2.5461,-2.5418,-2.5401,-2.5511,-2.561,-2.561,-2.6156,-2.6637,-2.6581,-2.7158,-2.7657,-2.7592,0.0,0.0,0.0,0.0,0.0,0.0,0.0,0.0,-3.2116,-3.0833,-3.0194,-3.0447,-3.0111,-2.9164,-2.7441,-2.6573,-2.5644,-2.4548,0.0,-2.2701,0.0,-2.3382,0.0,0.0,0.0,-2.2582,-2.3013,-2.2158,-2.2085,-2.2678,-2.3319,-2.3343,-2.2931,-2.416,-2.4949,-2.5387,-2.6211,-2.7674,-2.9599,-3.0796,-3.1368,-3.1617,-3.1875,-3.2055,-3.2354,-2.5418,0.0,0.0,0.0,0.0,0.0,0.0,-2.1196,-2.0776,-2.1024,-2.0909,-2.0868,-2.0958,-2.1093,-2.1341,-2.1754,-2.2593,-2.3274,-2.3698,-2.4128,-2.4549,-2.5015,-2.5422,-2.5619,-2.5556,-2.6346,-2.6943,-2.7334,0.0,0.0,0.0,0.0,0.0,-2.665,0.0,-2.4721,0.0,0.0,0.0,-2.0873,-1.9947,-1.9611,-1.9638,-1.9695,-1.987,-2.0098,-2.0143,-2.0211,-2.0311,-2.0385,-2.0444,-2.0577,-2.0988,-2.1677,-2.2507,-2.3367,-2.4211,-2.4975,-2.5383,-2.5505,-2.5498,-2.5456,-2.5437,-2.5443,-2.5404,-2.5611,-2.5814,-2.5746,-2.6314,-2.7043,-2.7792,-2.8326,0.0,0.0,0.0,0.0,0.0,0.0,-3.4574,-3.3248,-3.2469,-3.2011,-3.1953,-3.1573,-3.0558,-2.8723,0.0,-2.7079,0.0,0.0,-2.3849,0.0,0.0,0.0,0.0,0.0,0.0,-2.3594,-2.3197,-2.319,-2.3551,-2.3892,-2.3963,-2.383,-2.4549,-2.5227,-2.5938,-2.7381,-2.8608,-2.9705,-3.0673,-3.1295,-3.1559,-3.1802,-3.2001,-3.2231,-2.5406,-2.5158,0.0,0.0,-2.3042,-2.2143,-2.1529,-2.08,-2.0475,-2.0899,-2.1097,-2.1204,-2.127,-2.1418,-2.1581,-2.1777,-2.2421,-2.2891,-2.3095,-2.3102,-2.3492,-2.4358,-2.506,-2.5473,-2.5601,-2.6228,-2.6605,0.0,0.0,0.0,0.0,0.0,0.0,0.0,0.0,0.0,0.0,0.0,-2.1967,-2.071,-2.0156,-1.9793,-1.9585,-1.9643,-1.9847,-2.0069,-2.0116,-2.0203,-2.0306,-2.0374,-2.0439,-2.0472,-2.0497,-2.1055,-2.1823,-2.2518,-2.3464,-2.4418,-2.5046,-2.5389,-2.5531,-2.5498,-2.5453,-2.5432,-2.5382,-2.534,-2.5253,-2.5198,-2.5621,-2.646,-2.7911,-2.8282,0.0,0.0,0.0,0.0,0.0,0.0,-3.4867,-3.3943,-3.3716,-3.3287,-3.2483,0.0,0.0,0.0,0.0,0.0,-2.655,0.0,0.0,0.0,0.0,-2.4387,-2.4374,0.0,-2.4042,-2.3964,-2.4035,-2.4097,-2.4233,-2.4368,-2.4585,-2.4823,-2.4848,-2.5523,-2.6711,-2.8587,-2.9538,-2.9895,-3.0673,-3.1206,-3.1576,-3.1802,-3.2036,-3.2248,0.0,0.0,0.0,0.0,0.0,-2.1517,-2.1493,-2.0851,-2.0406,-2.0461,-2.0477,-2.0527,-2.0586,-2.0559,-2.0872,-2.1728,-2.1879,-2.2262,-2.3044,-2.3103,-2.3496,-2.4356,-2.4488,-2.4868,-2.5582,-2.5668,-2.6072,0.0,0.0,-2.7687,0.0,0.0,0.0,0.0,0.0,0.0,0.0,-2.3378,-2.2318,-2.0855,-2.0753,-2.0209,-1.9513,-1.9582,-1.9781,-2.0021,-2.0153,-2.0241,-2.0315,-2.0377,-2.039,-2.0415,-2.0488,-2.105,-2.1713,-2.1809,-2.2953,-2.423,-2.4302,-2.4814,-2.5351,-2.5395,-2.5313,-2.5243,-2.5293,-2.5264,-2.5182,-2.5126,-2.507,-2.5465,-2.6876,-2.7157,-2.7735,0.0,0.0,0.0,0.0,0.0,-3.3557,-3.2759,-3.2119,-3.132,-3.0229,-3.0585,0.0,0.0,-2.9746,0.0,0.0,0.0,0.0,-2.5669,0.0,-2.4681,-2.3945,-2.3581,-2.3537,-2.3806,-2.3723,-2.3888,-2.4282,-2.4197,-2.4387,-2.4823,-2.4967,-2.6067,-2.7846,-2.9447,-3.029,-3.0613,-3.0813,-3.1249,-3.1763,-3.18,-3.2089,-3.2564,0.0,0.0,0.0,0.0,0.0,0.0,0.0,-2.062,-2.0402,-2.0449,-2.0419,-2.0419,-2.0436,-2.0383,-2.0512,-2.0977,-2.1029,-2.1394,-2.2268,-2.1839,-2.2159,-2.3553,-2.3125,-2.3474,-2.4855,-2.4876,-2.5278,0.0,0.0,0.0,0.0,0.0,0.0,0.0,0.0,-2.446,-2.3877,-2.3692,-2.2593,-2.0948,-2.1034,-2.0462,-1.9636,-1.9694,-1.9866,-2.0069,-2.0125,-2.0186,-2.0262,-2.036,-2.0394,-2.0405,-2.042,-2.0692,-2.1075,-2.1549,-2.2177,-2.2927,-2.3935,-2.4428,-2.4761,-2.5312,-2.539,-2.5322,-2.535,-2.534,-2.5303,-2.5222,-2.505,-2.5333,-2.6691,-2.6954,-2.7456,0.0,0.0,0.0,0.0,0.0,0.0,-3.2239,0.0,-3.2424,-3.1393,-3.1631,0.0,0.0,0.0,0.0,0.0,0.0,0.0,-2.5915,0.0,-2.5281,-2.4577,-2.4396,-2.4422,-2.4639,-2.4562,-2.4611,-2.4744,-2.4496,-2.4491,-2.4664,-2.5821,-2.6855,-2.7854,-2.9495,-3.041,-3.0757,-3.0926,-3.1338,-3.1923,-3.2414,-3.2842,-3.3422,-2.3546,0.0,-2.2669,0.0,-2.1448,-2.1059,-2.0516,-2.043,-2.0421,-2.0467,-2.0391,-2.0366,-2.0409,-2.0314,-2.0315,-2.0465,-2.0472,-2.0733,-2.1383,-2.0837,-2.1155,-2.2652,-2.2369,0.0,-2.4375,-2.4644,-2.5061,-2.5626,-2.6173,0.0,0.0,0.0,0.0,0.0,-2.527,-2.4526,-2.4081,-2.3911,-2.2819,-2.1195,-2.1292,-2.0668,-1.9719,-1.9801,-1.9919,-2.0049,-2.0088,-2.0131,-2.0215,-2.0347,-2.0394,-2.0391,-2.0415,-2.0444,-2.0575,-2.1157,-2.1496,-2.2014,-2.3463,-2.4017,-2.4373,-2.5254,-2.538,-2.5312,-2.5369,-2.5322,-2.5253,-2.5176,-2.4968,-2.5145,-2.6302,-2.6488,-2.6783,-2.7848,0.0,0.0,0.0,-3.0858,0.0,-3.1534,-3.2315,-3.2454,-3.1431,-3.1517,0.0,0.0,0.0,0.0,0.0,0.0,0.0,0.0,0.0,0.0,-2.5026,-2.4782,-2.4768,-2.5036,-2.4759,-2.4822,-2.51,-2.5215,-2.5163,-2.5125,-2.6796,-2.7617,-2.7904,-2.9601,-3.053,-3.0937,-3.106,-3.1432,-3.1992,-3.28,-3.3352,-3.3951,-2.4431,-2.3591,-2.2701,-2.1758,-2.0937,-2.0387,-2.0309,-2.0367,-2.039,-2.04,-2.0296,-2.0241,-2.0388,-2.0282,-2.026,-2.0388,-2.0402,-2.0424,-2.0504,-2.0508,-2.0883,0.0,0.0,-2.3499,-2.4375,-2.5232,-2.5683,-2.57,0.0,0.0,-2.6812,0.0,-2.6491,-2.6071,-2.5181,-2.4622,-2.4284,-2.4018,-2.3048,-2.1696,-2.1624,-2.0818,-1.9712,-1.9837,-1.99,-1.9909,-2.005,-2.015,-2.0215,-2.0359,-2.0404,-2.0415,-2.0487,-2.0454,-2.04,-2.042,-2.1025,-2.188,-2.2791,-2.3555,-2.431,-2.5185,-2.525,-2.5151,-2.5261,-2.516,-2.4966,-2.4823,-2.4685,-2.4804,-2.5486,-2.5502,-2.5425,-2.5444,0.0,0.0,0.0,-2.9397,0.0,-3.0446,-3.068,-3.0344,-2.9163,-2.9336,0.0,0.0,0.0,0.0,0.0,0.0,0.0,-2.7735,-2.6654,0.0,-2.511,-2.4242,-2.4069,-2.4589,-2.3952,-2.4152,-2.5157,-2.6267,-2.6588,-2.6333,-2.7906,-2.8426,-2.8329,-2.9859,-3.0762,-3.1215,-3.127,-3.1524,-3.1992,-3.28,-3.3387,-3.4022,-2.2695,-2.2294,-2.2025,-2.1723,-2.096,-2.039,-2.0379,-2.0355,-2.0314,-2.027,-2.0231,-2.0195,-2.0203,-2.0169,-2.0186,0.0,-2.032,-2.0605,0.0,-2.0755,-2.0817,-2.1699,-2.2045,-2.2611,-2.3491,-2.436,-2.5074,-2.5625,0.0,0.0,0.0,-2.5771,-2.5629,-2.5393,-2.5031,-2.4737,-2.4493,-2.4284,-2.3288,-2.1893,-2.1778,-2.096,-1.9782,-1.9818,-1.9889,-1.9985,-2.0069,-2.0133,-2.0227,-2.0347,-2.0396,-2.0404,-2.0429,-2.0454,-2.0588,-2.1182,-2.1138,-2.1303,-2.3287,-2.3526,-2.354,-2.4975,-2.522,-2.5107,-2.5153,-2.5088,-2.4942,-2.4782,-2.47,-2.4816,-2.5317,-2.5373,-2.547,-2.5932,-2.6617,0.0,-2.6763,0.0,-2.8709,-2.8507,-2.9866,-3.0105,-2.8361,-2.8718,0.0,0.0,0.0,0.0,0.0,0.0,0.0,0.0,-2.6763,0.0,-2.4429,-2.4318,-2.4209,-2.4051,-2.4551,-2.5293,-2.6326,-2.6694,-2.6863,-2.6923,-2.8023,-2.8623,-2.8897,-3.0111,-3.0886,-3.1269,-3.1457,-3.1716,-3.2221,-3.3663,-3.4384,-3.4859,-2.1822,-2.1656,-2.1558,-2.1197,-2.0695,-2.0326,-2.0283,-2.025,-2.0216,-2.0175,-2.0133,-2.0107,-2.0079,-2.004,0.0,-2.0238,-2.0254,-2.0523,-2.114,-2.0662,-2.0626,-2.1186,-2.1571,-2.2025,-2.2555,-2.3458,0.0,-2.5148,-2.5455,-2.5532,-2.5432,-2.5363,-2.5284,-2.5168,-2.5043,-2.4869,-2.4697,-2.4522,-2.3553,-2.2145,-2.2014,-2.1129,-1.9881,-1.9877,-1.993,-2.0007,-2.0079,-2.0152,-2.0215,-2.0347,-2.039,-2.0399,-2.0425,-2.0463,-2.0597,-2.1124,-2.0886,-2.0881,-2.2757,-2.3042,-2.3124,-2.4514,-2.4968,-2.5061,-2.5006,-2.4953,-2.4883,-2.4671,-2.4564,-2.4557,-2.4764,-2.4759,-2.4868,-2.5292,-2.557,-2.5837,-2.6172,0.0,-2.7974,0.0,0.0,0.0,0.0,-2.7583,-2.7558,0.0,0.0,0.0,0.0,0.0,0.0,-2.7414,-2.6569,0.0,-2.4554,-2.442,-2.4219,-2.3925,-2.5024,-2.6074,-2.7101,-2.7469,-2.7653,-2.7653,-2.864,-2.9165,-2.9461,-3.0496,-3.1117,-3.1487,-3.1641,-3.1898,-3.2291,-3.372,-3.4563,-3.5209,-2.1755,-2.1584,-2.1306,0.0,-2.0233,0.0,-2.0098,-2.0088,-2.0079,-2.0069,-2.0001,-1.9971,-1.9977,-1.9907,-1.996,-2.0134,0.0,0.0,0.0,-2.0288,-2.0334,-2.0379,-2.1241,-2.1687,-2.1694,-2.2606,-2.3529,-2.439,-2.5144,-2.5508,-2.551,-2.5444,-2.5367,-2.5302,-2.516,-2.5037,-2.4915,-2.4785,-2.3836,-2.2405,-2.2262,-2.1329,-2.0001,-1.9996,-1.9996,-2.0019,-2.0089,-2.0152,-2.0223,-2.0354,-2.0396,-2.0399,-2.0473,-2.0482,-2.0482,-2.0502,-2.0459,-2.0604,-2.1539,-2.2299,-2.3009,-2.3879,-2.4541,-2.494,-2.4817,-2.4779,-2.4718,-2.4538,-2.432,-2.4147,-2.4002,-2.3878,-2.3807,-2.3795,-2.4364,-2.5163,-2.6099,-2.7263,-2.7979,0.0,0.0,0.0,0.0,-2.6081,-2.5775,0.0,0.0,0.0,0.0,0.0,-2.8587,-2.7582,-2.6233,-2.549,-2.5438,-2.4673,-2.4315,-2.4349,-2.5574,-2.6627,-2.7582,-2.8529,-2.8817,-2.8597,-2.9605,-2.9988,-2.9978,-3.0864,-3.1453,-3.1806,-3.1903,-3.2046,-3.2329,-3.3213,-3.4164,-3.5118,0.0,0.0,-2.1377,-2.1139,-2.0518,-2.0041,-2.0029,-1.9988,-1.9915,-1.9816,-1.9738,-1.9688,-1.9619,-1.9663,-1.9682,-1.9731,-1.999,-2.0126,-2.0143,-2.0238,-2.0304,-2.0332,-2.1165,-2.1623,-2.1615,-2.2537,-2.3482,-2.4405,-2.4588,-2.4991,-2.5574,-2.5513,-2.5434,-2.5365,-2.5283,-2.5205,-2.5126,-2.5037,-2.4083,-2.2601,-2.2431,-2.1438,-2.0069,-1.9958,-1.9988,-2.0078,-2.0145,-2.0208,-2.0281,-2.0313,-2.0328,-2.0347,-2.0404,-2.0427,-2.057,-2.1255,-2.1002,-2.0808,-2.2287,-2.2784,-2.3036,-2.3696,-2.4347,-2.4817,-2.4738,-2.4673,-2.4586,-2.4391,-2.4266,-2.4114,-2.3831,-2.3815,-2.3834,-2.3753,-2.4,-2.4563,-2.5554,-2.6043,-2.6487,0.0,-2.7102,-2.6822,-2.6168,-2.5883,-2.5948,0.0,0.0,0.0,0.0,-2.8303,-2.8698,-2.897,-2.7365,-2.6551,-2.6764,-2.6388,-2.6411,-2.6791,-2.7207,-2.7994,-2.9005,-2.9419,-2.9696,-2.9894,-3.0344,-3.0666,-3.092,-3.1317,-3.1631,-3.1903,-3.2192,-3.2336,-3.2529,-3.3458,-3.4351,-3.5211,-2.1301,-2.0899,-2.0611,-2.057,-2.0187,-1.9851,-1.9788,-1.9751,-1.9669,-1.954,-1.9504,-1.9448,-1.9419,-1.9476,-1.9504,-1.9509,-1.9816,-2.0,-2.002,-2.0135,-2.0208,-2.0205,-2.0685,-2.0962,-2.0964,-2.152,-2.227,-2.3212,-2.3571,-2.3981,-2.4411,-2.4773,-2.4934,-2.4904,-2.5221,-2.533,-2.5284,-2.5214,-2.4465,-2.3323,-2.3111,-2.2098,-2.0671,-2.0505,-2.0278,-2.0058,-2.0098,-2.0173,-2.0249,-2.025,-2.0268,-2.0321,-2.0386,-2.039,-2.0496,-2.1012,-2.0818,-2.0648,-2.1558,-2.2049,-2.2466,-2.3091,-2.348,-2.3686,-2.3577,-2.3502,-2.3497,-2.3657,-2.3603,-2.3554,-2.3677,-2.3697,-2.3685,-2.3774,-2.3963,-2.445,-2.5519,-2.5785,-2.5986,-2.6318,-2.6563,-2.635,-2.5448,-2.5825,-2.6225,-2.655,-2.6871,0.0,-2.8094,-2.7946,-2.8108,-2.8688,-2.7818,-2.7338,-2.7451,-2.7301,-2.7381,-2.7676,-2.8152,-2.8721,-2.9383,-2.9966,-3.0368,-3.0642,-3.0958,-3.123,-3.1475,-3.1726,-3.1946,-3.2142,-3.2371,-3.2475,-3.2677,-3.3641,-3.4497,-3.5335,-2.0803,-2.017,-1.9638,-1.9585,-1.9617,-1.9623,-1.9485,-1.9442,-1.9394,-1.9283,-1.924,-1.9246,-1.9227,-1.9305,-1.9353,-1.936,-1.9662,-1.9839,-1.9873,-1.999,-2.0069,-2.0089,-2.0144,-2.0169,-2.0184,-2.0313,-2.0836,-2.1784,-2.2477,-2.2876,-2.3011,-2.3766,-2.4169,-2.4316,-2.4814,-2.5112,-2.5205,-2.5013,-2.4464,-2.3692,-2.3504,-2.2534,-2.1187,-2.0986,-2.0547,-2.0009,-2.0019,-2.0098,-2.0197,-2.0208,-2.0246,-2.0308,-2.0372,-2.0396,-2.0394,-2.0385,-2.0385,-2.0399,-2.0404,-2.0972,-2.1752,-2.2441,-2.2509,-2.235,-2.2224,-2.2125,-2.2219,-2.2715,-2.2758,-2.2854,-2.3414,-2.3471,-2.3567,-2.3837,-2.4081,-2.461,-2.5721,0.0,-2.5812,-2.5662,-2.6096,-2.5983,-2.4866,-2.5882,-2.6588,-2.6514,-2.7078,-2.7716,-2.8345,-2.7771,-2.7571,-2.7898,-2.7883,-2.7897,-2.7981,-2.7762,-2.7778,-2.7989,-2.8756,-2.9198,-2.9353,-3.0342,-3.0918,-3.114,-3.1466,-3.1671,-3.1891,-3.2054,-3.2267,-3.2423,-3.2528,-3.2661,-3.2934,-3.3795,-3.4695,-3.5606,-1.9866,-1.9583,-1.9434,-1.9419,-1.9442,-1.9402,-1.9274,-1.9212,-1.9132,-1.9051,-1.8984,-1.8949,-1.8878,-1.9035,-1.9153,-1.9137,-1.9398,-1.9623,-1.972,-1.987,-1.9955,-2.0015,-2.0039,-2.006,-2.0117,-2.0257,-2.0785,-2.1725,-2.1831,-2.2274,-2.2996,-2.3135,-2.3593,-2.4261,-2.3655,-2.3758,-2.4329,-2.3584,-2.274,-2.1902,-2.1807,-2.1177,-2.0299,-2.0196,-2.012,-2.0088,-2.0155,-2.0182,-2.0205,-2.0265,-2.0282,-2.0308,-2.0379,-2.039,-2.039,-2.0328,-2.0366,-2.0404,-2.0399,-2.0906,-2.1636,-2.246,-2.2509,-2.2303,-2.2215,-2.2114,-2.2021,-2.1977,-2.2319,-2.2632,-2.2673,-2.3218,-2.3703,-2.3862,-2.4118,-2.4631,-2.5677,0.0,-2.4869,-2.5375,-2.5236,-2.5188,-2.543,-2.6206,-2.6883,-2.7373,-2.7574,-2.7694,-2.7829,-2.825,-2.8432,-2.8386,-2.801,-2.8262,-2.9218,-2.8487,-2.8487,-2.9234,-2.947,-2.9677,-2.9905,-3.0934,-3.1483,-3.1671,-3.1929,-3.2053,-3.214,-3.2354,-3.2493,-3.2581,-3.2721,-3.3204,-3.3898,-3.4128,-3.5112,-3.6456,-1.9941,-1.9437,-1.9081,-1.9084,-1.9084,-1.9033,-1.8895,-1.8877,-1.8861,-1.8788,-1.8732,-1.8676,-1.8657,-1.8752,-1.8861,-1.8878,-1.9132,-1.9335,-1.9419,-1.9669,-1.9811,-1.9892,-1.9941,-1.9998,-2.0098,-2.0152,-2.0427,-2.0887,-2.0933,-2.1163,-2.1614,-2.2072,-2.252,-2.2909,-2.2968,-2.3201,-2.3523,-2.3088,-2.2646,-2.2238,-2.2096,-2.156,-2.0795,-2.0682,-2.0397,-2.0059,-2.0089,-2.0135,-2.0205,-2.0235,-2.028,-2.0308,-2.0334,-2.034,-2.0347,-2.0301,-2.0314,-2.0354,-2.0341,-2.0554,-2.084,-2.1168,-2.1126,-2.0985,-2.0875,-2.0779,-2.0778,-2.1046,-2.1239,-2.1474,-2.1902,-2.2542,-2.3109,-2.332,-2.3897,0.0,0.0,-2.4946,-2.4986,-2.5261,-2.5719,-2.604,-2.6233,-2.6985,-2.7368,-2.7182,-2.7587,-2.77,-2.7307,-2.7906,-2.8282,-2.8326,-2.851,-2.8848,-2.9286,-2.8958,-2.8794,-2.8803,-2.9336,-2.9668,-2.9882,-3.0726,-3.144,-3.2001,-3.2196,-3.2302,-3.2371,-3.2613,-3.2732,-3.2767,-3.2915,-3.3484,-3.4257,-3.4827,-3.5717,-3.678,-1.983,-1.9255,-1.8753,-1.8751,-1.8734,-1.8698,-1.8584,-1.8566,-1.8565,-1.8502,-1.8463,-1.8443,-1.8443,-1.8487,-1.8584,-1.8642,-1.8913,-1.9115,-1.9178,-1.9467,-1.9668,-1.9757,-1.9825,-1.9941,-2.0059,-2.0079,-2.0133,-2.0175,-2.0258,-2.032,-2.0392,-2.1085,-2.1504,-2.1728,-2.2207,-2.2524,-2.2703,-2.2419,-2.2313,-2.2281,-2.2115,-2.1665,-2.1081,-2.0969,-2.0551,-2.0031,-2.0031,-2.0106,-2.0205,-2.0211,-2.025,-2.0306,-2.0311,-2.0292,-2.028,-2.0304,-2.028,-2.0275,-2.0284,-2.0219,-2.0142,-2.0031,-1.9945,-1.9837,-1.9712,-1.9614,-1.9676,-2.0144,-2.027,-2.0516,-2.1151,-2.1839,-2.2431,-2.2905,0.0,0.0,0.0,-2.4745,-2.4984,-2.4864,-2.5966,-2.6684,-2.6606,-2.7508,-2.7765,-2.6947,-2.7457,-2.7482,-2.6735,-2.7183,-2.7638,-2.7987,-2.8676,-2.9059,-2.9094,-2.8956,-2.8716,-2.8335,-2.8972,-2.9366,-2.9534,-3.0506,-3.1358,-3.2073,-3.2403,-3.2592,-3.2626,-3.2879,-3.2944,-3.2973,-3.3055,-3.3705,-3.4663,-3.542,-3.6291,-3.719,-1.8728,-1.8657,-1.8601,-1.8601,-1.8563,-1.8505,-1.8426,-1.8307,-1.8229,-1.8229,-1.8218,-1.8232,-1.8232,-1.8342,-1.8448,-1.8512,-1.8825,-1.9052,-1.9115,-1.9292,-1.9479,-1.9615,-1.9744,-1.983,-1.9918,-2.004,-2.0098,-2.0107,-2.0238,-2.0299,-2.0301,-2.0446,-2.0938,-2.1666,-2.0995,-2.1128,-2.1828,-2.0962,-2.0539,-2.0469,-2.0408,-2.0305,-2.0194,-2.0174,-2.0136,-2.0096,-2.0156,-2.0192,-2.0211,-2.0269,-2.0304,-2.0304,-2.0304,-2.025,-2.0215,-2.0277,-2.0262,-2.02,-2.0208,-2.015,-2.0088,-2.0021,-1.9892,-1.9763,-1.9641,-1.9513,-1.9427,-1.9472,-1.9925,-2.0371,-2.0547,-2.117,-2.2009,-2.3009,0.0,0.0,-2.421,-2.4247,-2.4094,-2.3828,-2.5028,-2.5915,-2.5958,-2.7254,-2.7822,-2.7238,-2.7169,-2.686,-2.6194,-2.6153,-2.6527,-2.7326,-2.795,-2.8525,-2.8996,-2.8215,-2.8119,-2.8673,-2.8725,-2.8841,-2.9004,-3.0621,-3.1473,-3.1693,-3.2581,-3.2952,-3.2955,-3.3059,-3.3082,-3.3093,-3.3105,-3.4057,-3.5435,-3.5636,-3.6638,-3.7923,-1.818,-1.8184,-1.8201,-1.8163,-1.8222,-1.8222,-1.8176,-1.8138,-1.8117,-1.8074,-1.8031,-1.8027,-1.8065,-1.8074,-1.8184,-1.8353,-1.8567,-1.8771,-1.8947,-1.9134,-1.9341,-1.9602,-1.9638,-1.9744,-1.983,-1.9936,-2.0021,-2.0097,-2.0184,-2.028,-2.036,-2.0385,-2.0574,-2.089,-2.0572,-2.0618,-2.0917,-2.0552,-2.0363,-2.0294,-2.0235,-2.0175,-2.0161,-2.0216,-2.0214,-2.0219,-2.0219,-2.0227,-2.0262,-2.0235,-2.0273,-2.03,-2.0257,-2.0222,-2.0214,-2.023,-2.0197,-2.0134,-2.0088,-2.0021,-1.9939,-1.9793,-1.9745,-1.9699,-1.9513,-1.9471,-1.9442,-1.9368,-1.9518,-1.9707,-1.979,-2.0462,-2.1115,-2.1517,0.0,-2.3051,-2.329,-2.4049,-2.4566,-2.4457,-2.5375,-2.6003,-2.6092,-2.6662,-2.6734,-2.6009,-2.6387,-2.6331,-2.5577,-2.6459,-2.7339,-2.816,-2.8467,-2.8655,-2.8675,-2.8253,-2.8124,-2.8393,-2.8859,-2.9354,-2.9862,-3.1036,-3.1894,-3.2505,-3.2854,-3.3028,-3.306,-3.3194,-3.325,-3.3298,-3.3291,-3.4286,-3.5752,-3.5778,-3.6768,-3.8119,-1.7772,-1.7816,-1.7833,-1.7816,-1.7883,-1.7944,-1.7939,-1.7944,-1.7922,-1.79,-1.7856,-1.7816,-1.7856,-1.79,-1.7992,-1.8225,-1.843,-1.8605,-1.8825,-1.8999,-1.9214,-1.9526,-1.9555,-1.962,-1.977,-1.9892,-2.0001,-2.006,-2.0184,-2.028,-2.0379,-2.0399,-2.0398,-2.0399,-2.0414,-2.0433,-2.0437,-2.0423,-2.0395,-2.0365,-2.0287,-2.0258,-2.0277,-2.0289,-2.0304,-2.0299,-2.0242,-2.0262,-2.0296,-2.0211,-2.0222,-2.026,-2.019,-2.0171,-2.0197,-2.0205,-2.0143,-2.0098,-2.0019,-1.9936,-1.9828,-1.9649,-1.9614,-1.9587,-1.9438,-1.9456,-1.9471,-1.9368,-1.936,-1.9378,-1.946,-1.9904,-2.0367,-2.0633,-2.1736,-2.263,-2.2776,-2.386,-2.4657,-2.4697,-2.5379,-2.5877,-2.6005,-2.6299,-2.6139,-2.5386,-2.5827,-2.5764,-2.4962,-2.642,-2.7524,-2.8085,-2.8686,-2.8936,-2.8737,-2.8522,-2.8376,-2.8335,-2.8855,-2.9462,-3.0212,-3.1105,-3.1972,-3.2805,-3.3057,-3.3208,-3.3268,-3.337,-3.3429,-3.347,-3.3753,-3.4715,-3.5968,-3.6173,-3.7084,-3.821,-1.7486,-1.7486,-1.7526,-1.7589,-1.7589,-1.7635,-1.7766,-1.7681,-1.7635,-1.7687,-1.7658,-1.7612,-1.7612,-1.7772,-1.7966,-1.8091,-1.8406,-1.862,-1.8697,-1.8949,-1.9186,-1.939,-1.946,-1.956,-1.9705,-1.9955,-2.0079,-2.0001,-2.02,-2.0306,-2.0304,-2.0379,-2.0398,-2.0399,-2.0472,-2.0506,-2.0504,-2.0498,-2.0506,-2.05,-2.0438,-2.0399,-2.0399,-2.0327,-2.0308,-2.0302,-2.0299,-2.0304,-2.0296,-2.0214,-2.0197,-2.0199,-2.0117,-2.0145,-2.0197,-2.0203,-2.0152,-2.0098,-2.0019,-1.9892,-1.9763,-1.9623,-1.9541,-1.9485,-1.9409,-1.9456,-1.9522,-1.9497,-1.9501,-1.9516,-1.9582,-1.9597,-1.9862,-2.0656,-2.1408,-2.2159,-2.2885,-2.362,-2.4135,-2.4265,-2.4873,-2.5349,-2.556,-2.6188,-2.6289,-2.5634,-2.5529,-2.5145,-2.4351,-2.5761,-2.6683,-2.6803,-2.8373,-2.9237,-2.9292,-2.8971,-2.8748,-2.8601,-2.8619,-2.9011,-2.9755,-3.0685,-3.1529,-3.2374,-3.3231,-3.3605,-3.3605,-3.3585,-3.3613,-3.3678,-3.4509,-3.5312,-3.6103,-3.6898,-3.7689,-3.8316,-1.7117,-1.7183,-1.7199,-1.7126,-1.7272,-1.7368,-1.732,-1.7408,-1.7432,-1.7361,-1.7408,-1.7455,-1.7455,-1.7566,-1.7721,-1.8005,-1.8222,-1.8487,-1.8896,-1.9034,-1.9184,-1.9314,-1.939,-1.9493,-1.9625,-1.9811,-1.9931,-1.9993,-2.0156,-2.028,-2.0379,-2.0379,-2.041,-2.039,-2.0415,-2.0465,-2.0497,-2.0449,-2.0467,-2.0486,-2.0425,-2.0404,-2.0399,-2.0386,-2.0334,-2.0301,-2.0296,-2.03,-2.0292,-2.0225,-2.0197,-2.0208,-2.0182,-2.0171,-2.0188,-2.0199,-2.0144,-2.0098,-2.0019,-1.9892,-1.9751,-1.9569,-1.9968,-2.0247,-1.9615,-1.9958,-2.0276,-1.975,-1.9652,-1.9665,-1.9737,-1.9738,-1.9795,-1.9988,-2.0699,-2.1243,-2.136,-2.2131,-2.2722,-2.2754,-2.3015,-2.3444,-2.4061,-2.4302,-2.4568,-2.4877,-2.4892,-2.502,-2.5394,-2.6338,-2.7176,-2.784,-2.8899,-2.9483,-2.9512,-2.9172,-2.8997,-2.8966,-2.9418,-3.0043,-3.0779,-3.1719,-3.2575,-3.3296,-3.3561,-3.3661,-3.3671,-3.3605,-3.3633,-3.3762,-3.4491,-3.5323,-3.6168,-3.6924,-3.7713,-3.837,-1.6733,-1.6831,-1.6876,-1.6815,-1.6952,-1.7035,-1.7027,-1.7076,-1.7101,-1.7076,-1.7142,-1.7191,-1.7272,-1.7401,-1.7566,-1.7856,-1.8142,-1.8489,-1.8931,-1.9051,-1.9152,-1.9251,-1.9314,-1.942,-1.955,-1.972,-1.9858,-1.9993,-2.0131,-2.0265,-2.036,-2.0379,-2.0404,-2.041,-2.0439,-2.0463,-2.0499,-2.0467,-2.0464,-2.0492,-2.0465,-2.0424,-2.0396,-2.0396,-2.0353,-2.0301,-2.0311,-2.0289,-2.03,-2.0249,-2.0214,-2.0205,-2.0233,-2.0241,-2.0241,-2.0244,-2.019,-2.0126,-2.0068,-1.9966,-1.9835,-1.9662,-1.9963,-2.0192,-1.9699,-2.0019,-2.0279,-1.9838,-1.9732,-1.977,-1.9868,-1.987,-1.9866,-1.9794,-2.0476,-2.0966,-2.0848,-2.1593,-2.2201,-2.2224,-2.2312,-2.2571,-2.3063,-2.3407,-2.3941,-2.4705,-2.4757,-2.5003,-2.5525,-2.6236,-2.7056,-2.7961,-2.8782,-2.9363,-2.9678,-2.9439,-2.9299,-2.9228,-2.9586,-3.0165,-3.0906,-3.1796,-3.2619,-3.3356,-3.3678,-3.3798,-3.3789,-3.3735,-3.3716,-3.3835,-3.4952,-3.5713,-3.6321,-3.7411,-3.8076,-3.846,-1.6371,-1.6463,-1.6543,-1.6543,-1.6607,-1.668,-1.6809,-1.6747,-1.6722,-1.6834,-1.6777,-1.6795,-1.6954,-1.7166,-1.7396,-1.7586,-1.817,-1.862,-1.8878,-1.9018,-1.912,-1.9202,-1.9266,-1.936,-1.9489,-1.9676,-1.9836,-1.9962,-2.0124,-2.0215,-2.0287,-2.036,-2.0398,-2.0394,-2.0454,-2.0497,-2.0492,-2.0501,-2.0508,-2.0508,-2.0506,-2.0452,-2.042,-2.0404,-2.0371,-2.0302,-2.0308,-2.0306,-2.0304,-2.0308,-2.0254,-2.0227,-2.0292,-2.0315,-2.0304,-2.03,-2.0249,-2.018,-2.0117,-2.0058,-1.9977,-1.9847,-1.9732,-1.965,-1.9712,-1.9826,-1.9895,-1.982,-1.9823,-1.9873,-1.9993,-2.003,-2.0003,-1.9939,-2.0595,-2.107,-2.0937,-2.1588,-2.2142,-2.221,-2.2263,-2.2334,-2.2402,-2.3258,-2.4125,-2.4846,-2.4968,-2.5019,-2.5019,-2.5725,-2.6531,-2.7365,-2.8194,-2.8984,-2.9696,-2.972,-2.9624,-2.9409,-2.9351,-2.9702,-3.046,-3.126,-3.2072,-3.2863,-3.364,-3.3965,-3.3915,-3.3907,-3.3899,-3.4064,-3.5662,-3.6333,-3.6573,-3.8132,-3.8634,-3.8511,-1.6095,-1.6108,-1.6108,-1.6067,-1.6191,-1.6313,-1.6274,-1.6421,-1.6528,-1.6448,-1.6276,-1.6136,-1.6032,-1.6327,-1.6642,-1.6893,-1.7951,-1.8656,-1.8896,-1.9036,-1.9155,-1.9271,-1.9285,-1.9329,-1.942,-1.9577,-1.967,-1.9762,-1.9993,-2.0131,-2.0145,-2.0272,-2.0354,-2.0396,-2.0423,-2.0427,-2.0439,-2.0488,-2.0504,-2.0506,-2.0499,-2.0488,-2.0458,-2.042,-2.0357,-2.0308,-2.0302,-2.0308,-2.0294,-2.0301,-2.0334,-2.0353,-2.0379,-2.0379,-2.0353,-2.025,-2.0208,-2.0203,-2.0126,-2.0098,-2.0068,-2.0048,-1.9979,-1.9888,-1.98,-2.032,-2.0644,-2.0077,-1.999,-2.005,-2.0079,-2.0152,-2.0205,-2.0079,-2.025,-2.0364,-2.0247,-2.0421,-2.0604,-2.0669,-2.0688,-2.0979,-2.1655,-2.3035,-2.3954,-2.413,-2.4777,-2.5153,-2.5153,-2.5907,-2.6441,-2.6632,-2.8065,-2.889,-2.9017,-2.9576,-2.9757,-2.9551,-2.9488,-2.9837,-3.0586,-3.1427,-3.2214,-3.2915,-3.3654,-3.3994,-3.3963,-3.385,-3.4165,-3.4844,-3.5881,-3.6673,-3.7356,-3.8334,-3.8689,-3.8658,-1.5711,-1.574,-1.574,-1.5712,-1.5854,-1.5981,-1.5998,-1.6123,-1.6219,-1.6191,-1.5869,-1.5645,-1.5645,-1.5667,-1.583,-1.6194,-1.7309,-1.8053,-1.8235,-1.8732,-1.9069,-1.9188,-1.9237,-1.9314,-1.9402,-1.9527,-1.9656,-1.9804,-1.995,-2.0069,-2.0203,-2.0265,-2.0327,-2.034,-2.0392,-2.0404,-2.0404,-2.0441,-2.0474,-2.0505,-2.051,-2.048,-2.0443,-2.0454,-2.0399,-2.0347,-2.0359,-2.0341,-2.036,-2.0347,-2.036,-2.0392,-2.0392,-2.0398,-2.0372,-2.0287,-2.0258,-2.0227,-2.0125,-2.0098,-2.0108,-2.0088,-2.0098,-2.0069,-1.9918,-2.0259,-2.0481,-2.0115,-2.0098,-2.0161,-2.0184,-2.0268,-2.0321,-2.0208,-2.0246,-2.0265,-2.0153,-2.0161,-2.02,-2.0236,-2.0243,-2.061,-2.1509,-2.2711,-2.358,-2.3974,-2.4793,-2.5312,-2.5292,-2.5653,-2.6074,-2.648,-2.7713,-2.851,-2.8793,-2.955,-2.9849,-2.9645,-2.9588,-2.9943,-3.0694,-3.1517,-3.2303,-3.3019,-3.3728,-3.4042,-3.3998,-3.3879,-3.4293,-3.509,-3.5952,-3.6809,-3.7603,-3.8328,-3.8554,-3.8486,-1.5299,-1.5359,-1.5389,-1.5418,-1.5551,-1.5696,-1.5827,-1.5871,-1.5942,-1.6095,-1.5499,-1.5158,-1.5389,-1.5195,-1.5279,-1.5824,-1.6858,-1.754,-1.7666,-1.843,-1.8965,-1.912,-1.917,-1.928,-1.9394,-1.9522,-1.9686,-1.987,-1.9892,-2.002,-2.026,-2.0269,-2.0292,-2.0296,-2.0366,-2.0379,-2.0385,-2.041,-2.0441,-2.0504,-2.0497,-2.0477,-2.0422,-2.0472,-2.0473,-2.0424,-2.0399,-2.0402,-2.0398,-2.0398,-2.0404,-2.0421,-2.0421,-2.0408,-2.0383,-2.0321,-2.028,-2.0262,-2.0143,-2.0116,-2.0116,-2.0117,-2.0171,-2.0186,-2.0079,-2.005,-2.006,-2.0116,-2.0186,-2.0258,-2.0295,-2.0349,-2.0395,-2.0314,-2.0352,-2.039,-2.0311,-2.0315,-2.0318,-2.0315,-2.0321,-2.0676,-2.1617,-2.2307,-2.3033,-2.386,-2.4709,-2.526,-2.5416,-2.5341,-2.5649,-2.6381,-2.7311,-2.8068,-2.8586,-2.9528,-2.9916,-2.972,-2.9645,-2.9983,-3.0734,-3.1519,-3.234,-3.3111,-3.3799,-3.4052,-3.3999,-3.3925,-3.4394,-3.5293,-3.6025,-3.685,-3.7753,-3.8259,-3.8405,-3.8245,-1.4949,-1.498,-1.5011,-1.5074,-1.5255,-1.5477,-1.561,-1.5799,-1.5985,-1.6166,-1.5216,-1.4554,-1.4718,-1.5043,-1.5604,-1.6416,-1.7557,-1.8284,-1.8357,-1.8699,-1.8983,-1.9182,-1.92,-1.9298,-1.9483,-1.9489,-1.9582,-1.9738,-1.9828,-1.9958,-2.0041,-2.0152,-2.0249,-2.0292,-2.03,-2.0311,-2.0321,-2.0383,-2.0431,-2.051,-2.0497,-2.0497,-2.0484,-2.0496,-2.048,-2.0489,-2.0424,-2.039,-2.041,-2.041,-2.0434,-2.0478,-2.0478,-2.0448,-2.0388,-2.0321,-2.026,-2.0208,-2.02,-2.0192,-2.02,-2.0258,-2.0287,-2.0282,-2.0253,-2.025,-2.0254,-2.0262,-2.0325,-2.0366,-2.0308,-2.0391,-2.0445,-2.032,-2.0357,-2.0402,-2.039,-2.0385,-2.0396,-2.0383,-2.0388,-2.0723,-2.1618,-2.1789,-2.2223,-2.3076,-2.3895,-2.4687,-2.5456,-2.5423,-2.5446,-2.5562,-2.7023,-2.7788,-2.7761,-2.9246,-2.9935,-2.9795,-2.972,-3.0039,-3.0734,-3.1534,-3.2315,-3.3037,-3.3734,-3.4023,-3.3999,-3.3862,-3.4741,-3.614,-3.6248,-3.7156,-3.8373,-3.8405,-3.8289,-3.8132,-1.4655,-1.4637,-1.4669,-1.4842,-1.5102,-1.5344,-1.5463,-1.5412,-1.5382,-1.5479,-1.4492,-1.385,-1.3962,-1.4393,-1.4997,-1.5758,-1.6887,-1.7582,-1.7662,-1.8339,-1.861,-1.8333,-1.885,-1.9,-1.868,-1.9249,-1.9628,-1.9763,-1.983,-1.9926,-2.006,-2.0126,-2.0153,-2.0192,-2.0233,-2.0235,-2.0253,-2.0357,-2.0447,-2.0497,-2.0502,-2.0508,-2.051,-2.0503,-2.0506,-2.0497,-2.0469,-2.0463,-2.0458,-2.0463,-2.0487,-2.0491,-2.0491,-2.0449,-2.0388,-2.0328,-2.0282,-2.0265,-2.025,-2.0265,-2.0255,-2.0295,-2.0334,-2.0357,-2.0352,-2.0383,-2.0396,-2.0321,-2.0341,-2.0402,-2.04,-2.0461,-2.0472,-2.043,-2.0433,-2.0437,-2.0413,-2.0822,-2.1313,-2.1847,-2.1478,-2.1522,-2.2396,-2.2479,-2.2838,-2.3655,-2.4503,-2.5124,-2.5488,-2.5448,-2.5395,-2.5397,-2.6956,-2.7742,-2.7591,-2.9193,-2.9931,-2.9814,-2.9683,-3.0283,-3.1484,-3.1812,-3.2609,-3.374,-3.3914,-3.3991,-3.3999,-3.3844,-3.4495,-3.5616,-3.6025,-3.7095,-3.8391,-3.8358,-3.8207,-3.8054]}]]